GFSCGP_sfc_temp_000.txt.gz
Temp
50 45 43 53 48 54 44 42 43 48 56 48 48 51 56 62 56 51 55 60 63 64 69 62 57 57 55 54 53 52 51 49 49 46 44 43 44 41 38 39 40 40 40 39
44 42 52 54 50 48 47 46 47 52 54 47 50 51 57 56 60 62 61 61 60 62 66 55 55 51 52 53 52 51 51 49 51 51 49 45 43 38 41 39 40 41 39 38
50 51 53 51 48 46 46 44 47 46 48 45 43 46 46 52 55 60 57 60 63 65 66 58 53 50 49 49 50 50 51 50 51 50 45 38 38 36 35 37 37 38 38 37
45 54 51 46 46 50 47 50 49 44 39 40 41 39 44 50 52 54 56 57 59 61 60 58 51 46 47 49 49 50 50 49 50 48 45 42 45 42 41 42 38 35 37 37
47 47 45 44 51 49 50 48 45 41 36 34 35 34 42 48 46 52 59 60 61 64 57 53 50 51 49 46 47 49 48 49 48 46 47 44 44 45 36 35 35 37 35 36
46 46 47 48 46 48 46 44 41 35 35 33 39 39 41 41 48 50 57 61 61 64 56 53 50 47 44 43 46 47 46 46 45 46 45 45 44 38 37 36 37 36 36 34
41 43 43 48 43 42 44 41 29 26 22 29 40 33 50 49 57 54 58 60 62 62 50 49 47 45 44 43 43 45 44 45 43 44 45 44 44 41 41 38 38 36 35 34
36 40 44 46 48 43 41 44 35 23 28 39 30 32 45 52 56 56 56 56 54 53 51 50 47 47 45 45 43 45 44 45 44 44 45 45 44 42 43 39 39 38 38 37
37 40 44 44 44 49 37 35 46 33 18 22 40 44 51 48 53 52 53 52 52 51 50 48 45 45 44 43 44 45 44 45 44 44 44 43 44 42 42 39 38 38 37 35
43 39 46 41 43 42 44 45 33 31 25 22 33 37 44 49 51 50 52 53 52 50 45 45 45 45 42 43 44 44 45 45 44 43 43 42 42 41 42 35 36 36 34 32
46 41 40 39 39 41 38 39 39 39 34 34 32 39 46 48 44 48 53 56 49 49 48 47 47 45 43 42 41 43 43 42 41 41 43 40 39 39 39 36 35 33 33 32
47 40 32 38 45 43 42 44 46 37 33 32 32 37 55 56 56 56 56 56 53 49 50 49 49 45 43 42 41 43 44 43 44 43 42 40 39 38 37 36 35 33 33 32
45 36 32 32 38 42 39 42 44 43 36 36 30 34 57 58 56 57 55 58 55 53 50 50 49 49 49 47 45 44 44 43 43 41 40 38 37 37 38 36 33 33 32 31
47 40 36 32 39 41 38 39 40 42 36 37 37 41 50 53 55 58 58 58 53 57 53 54 54 54 50 49 48 44 44 44 41 39 38 38 37 37 37 36 33 33 32 30
43 35 36 38 41 41 42 41 42 41 44 37 42 43 48 53 55 57 60 60 57 51 52 55 53 54 53 48 46 46 46 44 42 40 38 38 38 37 36 32 31 31 30 30
38 33 36 34 37 36 34 40 41 41 42 42 42 41 53 55 57 56 57 58 57 55 52 52 51 49 48 52 52 46 45 42 39 38 37 38 35 33 31 30 29 28 28 26
34 32 31 28 32 31 28 36 36 40 42 42 35 43 40 38 42 49 50 39 39 41 42 43 43 46 48 53 51 46 45 40 35 37 36 33 32 30 28 28 27 26 25 24
33 31 32 27 31 20 36 40 41 38 42 43 36 31 31 30 34 36 38 36 36 39 40 42 43 44 46 49 45 44 35 34 35 35 33 31 29 28 26 26 25 25 25 23
39 34 28 24 25 33 37 33 29 29 29 30 27 29 29 30 33 36 39 39 38 40 41 42 42 42 42 41 40 35 29 30 30 31 31 30 29 27 25 24 25 25 23 22
36 35 28 23 16 17 22 26 32 33 26 29 28 27 27 29 21 27 37 38 38 41 42 40 39 39 40 40 35 29 27 25 28 29 29 28 28 26 24 24 23 23 23 22
10 12 14 18 18 23 27 30 36 19 18 28 28 29 28 26 29 32 35 37 37 38 39 40 39 38 38 37 32 32 25 25 25 24 23 21 23 23 22 22 22 20 20 19
18 14 11 14 7 11 29 27 19 27 32 30 31 31 29 29 30 32 34 33 33 33 36 37 36 37 38 37 31 33 31 26 20 21 20 20 20 21 21 18 18 17 18 16
11 19 10 18 18 29 32 31 34 31 25 26 27 28 27 26 28 28 27 28 29 30 31 33 33 33 36 36 30 29 33 22 18 21 21 20 17 18 19 17 15 15 15 16
21 27 18 15 25 27 31 33 35 31 29 28 27 25 26 24 24 24 24 25 26 27 27 28 27 28 30 34 35 33 32 24 21 21 19 18 17 16 16 16 16 15 15 16
22 23 19 20 26 29 30 31 27 28 28 27 26 24 23 22 21 21 21 21 23 22 22 23 21 21 22 26 30 34 33 24 22 20 18 17 17 14 15 16 16 17 18 19
27 24 20 18 30 29 30 32 28 25 24 22 21 20 21 21 20 20 18 20 19 18 18 17 16 17 19 21 23 25 31 23 23 19 17 16 16 14 15 14 13 22 21 23

GFSCGP_sfc_temp_003.txt.gz
Temp
48 44 42 51 47 53 42 41 40 46 52 44 46 50 53 59 58 60 60 57 61 62 68 69 57 54 53 51 52 52 50 50 49 45 43 43 44 42 40 40 42 42 40 39
42 41 52 51 48 45 43 43 44 51 54 45 48 49 53 53 58 61 64 64 65 65 65 65 54 51 50 53 52 51 50 49 50 49 50 44 47 39 42 39 39 40 39 38
48 50 51 49 45 43 43 42 46 45 46 44 42 46 49 50 51 58 61 63 63 62 62 65 53 50 48 48 49 50 50 48 50 50 45 37 37 35 35 35 37 38 38 37
44 51 50 43 43 47 45 47 47 43 37 37 40 38 43 52 55 56 57 59 57 60 61 60 53 49 48 51 49 49 49 47 50 49 46 45 44 43 41 44 41 37 37 37
45 42 41 42 48 47 46 47 43 38 35 33 34 31 39 46 48 50 54 56 59 61 59 60 51 52 50 46 45 46 47 47 49 48 48 46 46 46 37 35 35 36 35 36
44 44 47 47 45 46 45 42 38 33 35 29 37 37 46 42 48 48 53 57 58 58 60 54 52 49 44 41 42 44 45 46 47 47 47 46 46 39 38 37 37 36 36 35
40 41 42 48 43 40 42 37 28 25 22 28 37 33 50 50 52 53 59 54 55 54 53 59 51 48 43 40 41 43 44 44 44 45 45 45 45 42 41 38 39 36 35 35
35 38 42 45 46 42 39 40 29 21 25 36 30 30 48 53 54 51 51 52 51 53 55 49 51 46 42 42 41 43 43 43 43 44 45 45 44 44 42 40 40 38 38 38
34 36 40 43 44 49 38 35 44 33 27 27 39 42 51 49 50 48 50 48 51 51 52 48 48 44 42 40 40 42 42 43 43 43 44 43 43 43 42 38 38 38 38 37
43 36 43 40 41 42 44 44 32 30 22 23 33 39 43 50 55 49 48 48 51 53 52 48 46 45 42 41 41 41 41 42 41 41 43 43 43 43 41 37 37 37 36 34
45 40 39 39 38 42 35 35 37 38 32 31 30 37 55 54 48 46 49 52 52 51 53 51 49 47 45 42 42 43 42 41 40 40 42 42 41 42 41 37 37 37 35 33
45 40 32 37 42 42 42 40 39 32 33 34 37 39 56 58 49 49 52 56 55 53 57 53 51 47 47 45 43 42 44 42 43 43 43 41 41 39 39 38 36 36 34 33
43 36 31 31 35 35 34 40 41 42 39 32 29 36 55 56 55 56 53 51 52 53 54 53 51 51 51 50 46 43 42 43 42 41 39 38 38 37 38 39 35 35 34 33
45 39 34 29 31 39 35 39 42 39 32 34 36 40 47 51 53 56 55 51 46 40 41 41 41 42 45 48 49 48 46 45 40 38 38 39 38 38 40 39 35 34 34 32
40 32 35 36 38 37 35 34 36 37 40 34 38 39 45 49 40 33 38 37 37 37 38 40 40 41 43 44 45 47 50 46 40 39 40 40 41 41 40 38 34 33 32 33
38 29 33 30 34 35 32 33 33 33 33 32 35 36 27 29 31 31 34 36 36 37 39 40 41 41 41 43 43 43 44 45 39 41 40 42 39 36 36 36 33 31 30 30
31 30 26 23 31 30 24 31 36 38 35 32 26 22 26 26 27 29 31 35 35 37 38 40 40 40 40 41 40 40 39 40 40 38 40 37 32 33 33 32 31 30 29 29
29 28 27 21 25 13 29 35 32 30 26 26 25 25 26 27 31 34 37 35 34 36 38 39 39 39 39 39 39 38 37 37 35 36 36 30 32 33 30 29 28 28 29 27
33 29 21 9 9 24 30 27 23 22 21 26 25 26 28 31 33 34 37 36 35 35 37 38 39 39 39 37 37 35 34 35 33 32 31 29 29 30 26 27 27 28 27 26
32 32 24 7 10 10 21 28 30 32 19 27 27 26 26 26 19 25 34 34 34 34 34 32 34 36 36 36 37 33 32 33 32 30 29 26 24 23 26 26 25 26 26 25
5 3 3 -2 0 10 20 25 29 8 14 27 27 26 24 23 28 31 32 32 33 32 32 33 32 31 32 35 33 32 33 32 31 26 22 19 20 21 25 25 24 22 22 23
15 2 -2 -4 -5 3 25 26 20 22 26 27 27 28 27 27 28 29 29 29 28 28 29 30 29 29 30 31 30 29 30 33 31 28 22 22 18 19 22 23 21 21 21 19
10 18 8 12 12 28 31 29 32 30 26 26 27 28 28 26 25 26 25 25 26 27 27 27 24 23 26 26 26 23 25 28 32 31 28 24 22 20 21 20 18 18 19 18
20 27 18 15 27 28 30 32 32 32 30 30 28 26 26 23 24 23 23 23 24 23 22 23 20 19 19 21 22 22 23 25 24 26 27 24 21 19 19 20 18 18 16 17
22 22 19 20 27 28 30 31 32 30 29 27 26 25 23 22 21 21 20 20 20 20 21 20 18 17 16 18 18 19 20 20 19 22 25 23 20 19 18 19 18 18 19 20
27 24 20 18 29 28 29 33 29 26 26 22 20 20 22 21 19 19 17 18 18 17 18 15 14 13 13 13 13 14 15 15 15 16 20 23 20 18 18 17 16 24 24 24

GFSCGP_sfc_temp_006.txt.gz
Temp
46 42 41 49 46 49 40 39 39 44 51 43 50 51 54 56 52 57 60 60 60 63 66 66 60 56 52 48 49 51 49 50 49 46 43 42 44 42 41 42 43 43 41 40
41 38 50 47 45 44 41 41 43 48 50 43 45 47 53 55 57 58 60 62 62 62 63 64 56 51 49 50 49 49 49 48 49 49 49 44 48 42 45 41 40 42 39 39
44 49 48 46 42 43 39 38 43 42 43 42 40 43 43 50 50 56 57 60 56 57 61 64 54 51 49 46 46 49 49 48 50 48 45 36 37 35 35 34 37 38 40 39
42 47 47 40 42 44 42 46 45 42 37 35 39 35 41 48 51 52 56 53 54 55 55 55 53 50 50 50 46 47 46 46 48 47 45 45 44 43 43 45 44 40 40 39
43 40 39 40 44 44 43 45 42 37 35 31 32 31 38 42 45 51 53 54 53 54 53 54 54 53 51 48 44 44 45 45 47 47 46 46 47 47 38 38 39 38 37 38
42 42 45 46 45 45 43 40 37 33 33 27 36 35 45 40 44 47 54 63 55 55 54 53 52 49 48 43 40 40 42 43 44 45 45 46 46 37 38 35 37 36 36 35
39 41 42 45 40 39 40 36 27 24 21 27 33 31 46 50 55 52 53 53 53 52 50 50 49 47 46 41 39 39 39 39 41 43 43 44 44 39 42 38 40 36 36 36
35 38 41 43 45 42 37 40 28 23 21 34 28 30 46 51 53 53 50 50 48 50 50 49 48 44 43 41 38 40 39 39 39 40 41 40 41 41 42 39 40 38 39 39
34 36 40 42 42 45 36 35 42 33 33 26 38 40 49 52 47 46 45 46 47 50 50 51 49 45 42 40 39 39 39 39 39 38 39 39 39 40 40 37 37 38 39 38
44 37 42 41 40 41 42 42 32 30 24 21 31 36 39 49 54 50 48 47 46 48 50 50 51 48 43 40 39 39 39 39 38 39 41 41 41 42 40 37 37 36 37 35
44 39 37 36 36 40 36 35 35 36 33 29 27 36 49 53 55 47 45 48 48 44 42 43 44 45 45 43 41 39 38 38 37 37 39 37 36 38 37 36 37 37 35 34
44 40 33 38 40 42 41 42 41 33 31 33 34 34 52 52 55 44 37 37 38 39 40 41 41 41 42 43 44 44 41 39 39 38 38 36 37 35 35 36 36 36 34 34
42 35 29 31 36 35 33 37 40 39 33 30 26 30 50 51 41 37 35 36 37 39 40 40 41 41 42 42 42 43 43 44 41 41 36 36 36 34 36 38 37 36 35 34
43 35 32 28 32 37 34 36 37 35 30 30 30 34 43 31 29 29 34 35 36 38 39 39 40 40 41 42 42 41 42 42 40 38 37 36 35 36 39 39 37 35 35 34
38 31 35 36 36 34 32 31 33 30 34 28 32 33 34 25 26 29 32 34 35 36 37 38 38 38 39 39 40 40 40 39 38 37 38 38 37 35 36 36 36 33 33 35
36 27 29 25 31 32 29 32 32 32 32 32 33 30 27 28 31 31 32 30 32 34 36 38 38 38 38 39 38 38 38 37 36 35 35 37 36 34 32 35 34 31 32 32
30 28 26 21 28 26 20 27 30 32 36 28 24 22 23 25 30 32 33 31 32 31 32 35 35 36 36 38 37 36 35 35 34 34 34 34 34 33 34 31 29 30 30 31
29 27 24 21 19 12 26 29 29 25 25 25 23 21 23 26 29 32 32 32 31 33 34 35 35 34 34 35 35 35 35 34 33 32 32 32 31 31 30 27 28 27 28 29
32 27 17 13 6 19 27 25 23 23 21 25 25 28 27 28 27 29 34 34 31 31 33 33 32 32 32 31 33 31 30 31 32 32 32 31 30 29 28 25 25 27 27 28
29 29 24 6 8 -1 19 27 29 27 13 21 23 23 23 24 17 24 32 31 31 34 31 30 29 28 27 29 30 28 27 28 28 30 31 30 27 26 26 24 22 23 27 27
3 1 7 4 -2 8 19 23 28 7 12 19 22 24 23 20 23 29 31 28 29 29 28 28 27 27 28 29 27 25 25 25 27 26 26 29 29 26 25 26 20 21 23 22
14 3 -3 -7 -6 -0 24 24 17 21 24 24 26 28 27 28 29 29 28 28 28 26 27 28 26 26 27 27 24 23 23 25 24 24 24 25 27 28 25 23 21 20 21 21
10 17 7 11 10 26 28 26 32 28 24 26 27 30 28 27 28 27 26 26 26 26 26 26 22 22 24 23 21 19 21 21 20 20 21 21 23 26 25 23 22 20 20 20
20 25 21 20 26 27 30 33 31 32 31 32 30 28 27 26 26 24 24 24 24 23 22 22 20 19 19 21 20 18 19 18 15 15 15 16 18 21 25 22 23 20 20 19
23 21 17 20 26 28 30 31 33 33 32 27 26 25 24 22 22 22 21 20 21 21 20 19 18 17 17 18 17 16 15 13 11 12 12 12 15 17 22 22 22 21 22 23
27 24 20 18 29 28 30 33 29 27 26 22 21 20 21 21 19 20 18 19 18 17 17 16 15 14 13 13 12 12 11 9 8 7 8 10 12 14 18 20 20 26 27 26

GFSCGP_sfc_temp_009.txt.gz
Temp
46 43 41 47 46 44 42 40 39 46 51 45 50 50 52 56 55 57 60 62 63 63 67 65 61 60 58 54 53 53 52 53 52 51 48 47 47 50 47 49 49 50 50 47
42 40 49 47 45 44 42 40 41 46 49 43 45 48 54 56 58 59 60 61 59 59 63 64 59 58 57 56 52 51 51 51 52 52 52 52 52 50 50 48 48 50 48 47
42 47 47 46 42 42 39 39 43 41 42 43 40 42 44 53 51 53 57 57 56 56 57 59 59 57 55 54 51 50 51 51 52 52 50 42 43 42 43 43 44 46 46 45
42 45 46 41 43 43 39 45 43 40 38 34 43 35 41 51 52 53 53 54 54 55 57 56 53 55 54 53 51 49 50 49 51 50 48 49 49 46 46 48 48 46 46 45
44 42 40 40 44 44 43 43 41 39 36 34 34 31 40 44 47 50 54 56 55 55 53 56 54 53 53 48 47 47 47 47 50 49 49 49 49 50 46 47 46 44 43 44
42 43 44 46 44 44 43 41 37 34 35 29 37 36 39 42 48 48 52 57 54 54 54 57 52 49 48 46 43 43 44 44 46 47 47 48 48 45 44 43 43 42 41 41
38 40 41 44 40 39 41 38 29 26 23 28 34 32 43 49 54 52 56 54 51 51 52 51 49 47 46 45 42 43 42 42 43 44 45 46 46 43 46 44 45 41 39 40
35 37 41 43 44 42 37 39 32 24 24 34 27 32 46 48 52 52 50 49 48 48 48 45 45 45 44 44 42 42 41 41 42 42 42 43 44 44 45 43 43 42 42 42
33 34 39 41 43 46 36 35 42 33 29 28 37 40 51 51 49 48 43 40 38 40 40 41 42 43 43 43 43 42 41 41 42 41 41 41 41 41 42 41 41 42 43 42
43 35 40 40 39 41 42 44 33 30 23 25 33 37 40 46 40 36 36 36 37 39 39 41 42 42 43 44 44 45 44 42 42 41 41 41 41 41 41 39 39 39 40 39
42 39 38 37 36 38 36 35 36 37 33 29 27 34 45 35 34 32 34 36 37 38 39 40 41 42 43 43 43 43 44 43 42 43 42 39 39 40 40 38 38 39 38 37
43 37 30 33 41 38 38 39 40 31 29 32 33 32 47 33 33 34 34 36 37 38 39 40 41 41 41 41 41 41 42 41 41 41 41 41 39 38 38 39 38 38 37 37
41 35 29 32 35 35 35 37 38 36 32 30 27 31 42 36 34 33 33 34 35 37 39 39 40 39 39 40 40 40 40 40 39 39 38 40 40 39 38 38 38 36 38 36
42 35 32 28 32 36 32 34 36 34 29 30 31 34 39 30 28 31 31 32 33 35 36 38 37 38 39 40 40 40 40 40 37 37 37 36 37 38 38 39 38 36 37 37
39 31 33 33 34 33 30 29 29 27 30 25 30 30 36 24 26 29 33 32 32 33 34 35 36 36 37 38 38 39 39 38 37 36 35 35 36 36 36 36 36 36 35 36
35 29 28 23 30 30 28 30 31 31 31 30 31 31 27 28 30 30 32 32 31 32 33 34 35 35 35 35 35 36 36 35 35 34 34 35 34 33 34 34 34 34 33 33
30 27 23 22 28 25 19 25 29 31 33 30 25 21 20 22 27 28 29 31 31 31 32 33 33 33 33 33 32 32 32 32 30 31 33 32 32 31 31 32 32 32 32 33
28 24 23 20 13 11 26 26 29 27 23 21 20 18 22 26 30 31 32 31 31 32 32 32 32 31 32 32 30 31 30 28 28 29 29 30 29 29 29 29 30 30 31 30
30 26 16 15 13 21 26 28 25 24 20 22 21 24 27 29 27 26 32 34 32 31 31 32 31 30 31 30 30 28 28 27 27 27 27 27 26 25 28 27 28 29 28 29
28 27 22 9 6 -3 18 27 29 27 11 19 18 18 20 23 15 24 30 32 31 31 31 30 29 29 28 28 28 27 26 24 24 26 26 25 24 24 26 27 27 28 27 28
2 3 16 15 13 9 19 22 27 7 12 19 19 23 23 21 26 30 31 29 29 29 30 29 27 27 28 28 25 24 24 23 25 23 23 22 22 22 23 24 26 26 26 26
14 2 -6 -6 -3 3 22 22 16 20 24 24 25 27 27 29 30 30 30 30 29 27 29 29 27 27 28 28 24 22 22 25 22 19 19 19 18 19 20 20 22 25 24 23
11 17 9 11 10 25 27 26 32 32 26 28 26 29 28 28 28 29 27 25 26 27 27 27 23 23 25 24 22 19 21 21 19 16 15 15 16 16 16 16 18 21 24 21
19 24 19 20 26 27 31 33 32 31 30 30 29 28 27 26 26 25 23 24 24 24 22 22 20 19 18 20 20 19 19 18 14 11 12 13 12 12 13 15 17 19 22 22
23 21 17 19 26 28 29 31 32 33 31 28 25 25 24 22 21 21 21 20 20 20 19 18 16 15 15 16 15 15 14 12 9 9 9 9 9 9 10 12 14 17 23 24
27 23 19 17 28 28 29 33 29 28 27 21 20 19 21 20 19 18 16 17 16 15 14 12 11 10 9 9 8 8 8 7 5 4 5 5 6 6 7 8 10 18 22 26

GFSCGP_sfc_temp_012.txt.gz
Temp
59 57 55 62 62 63 58 55 54 60 64 58 58 59 63 67 68 67 69 71 73 74 76 77 75 74 72 72 70 69 68 66 66 63 62 63 61 62 62 63 62 63 61 59
54 52 62 59 57 55 55 52 53 59 61 54 58 56 62 65 65 68 69 70 71 72 72 72 70 69 67 67 68 67 65 65 64 64 64 64 63 63 63 61 60 61 60 59
56 60 59 54 56 52 54 51 54 53 56 58 54 56 58 67 64 68 67 69 69 67 66 66 64 62 60 59 59 61 63 63 63 63 63 61 60 60 59 58 58 58 60 58
53 55 53 51 52 56 49 58 54 50 49 47 54 44 58 63 64 64 67 68 68 65 64 60 58 56 56 54 56 57 58 60 60 61 60 57 57 55 57 57 57 56 57 58
55 50 48 48 53 54 54 52 50 48 48 45 51 45 57 58 58 63 67 64 61 60 57 54 53 53 54 53 52 54 56 56 57 58 58 57 56 59 60 58 57 55 55 55
55 53 54 57 53 53 51 51 49 47 47 40 51 48 53 57 58 61 59 54 53 52 53 53 53 53 52 52 52 52 53 53 54 55 56 55 55 56 55 54 54 55 54 53
53 50 53 53 51 50 50 48 42 40 40 39 48 44 53 62 60 55 52 49 49 50 50 50 49 50 50 50 50 51 51 50 51 52 53 53 54 54 54 55 54 53 52 51
46 44 50 53 54 54 48 49 42 31 34 41 38 41 52 59 52 49 49 48 49 49 49 49 49 49 49 49 49 50 50 48 49 50 49 51 51 52 54 54 54 53 53 52
46 46 50 48 52 55 47 43 51 40 40 35 45 52 60 57 46 46 46 46 45 45 47 47 48 49 48 48 48 49 49 48 48 49 49 49 50 49 50 51 51 52 52 52
49 40 50 51 50 51 49 53 40 40 29 27 39 44 47 47 44 43 42 42 44 44 44 45 47 47 47 48 48 48 49 47 47 47 48 48 48 47 48 49 47 47 49 48
49 43 44 46 46 46 46 42 43 43 39 30 29 39 51 48 41 40 40 40 41 42 43 44 47 47 47 47 47 47 47 45 44 45 46 46 46 46 46 45 47 47 47 46
50 42 34 42 50 48 47 45 47 36 32 38 36 37 43 40 40 38 37 38 40 42 44 45 45 46 46 45 45 45 45 44 43 43 43 43 44 44 44 45 45 45 45 46
45 35 30 35 42 41 39 41 43 38 33 31 28 32 41 37 36 38 37 37 38 39 41 43 44 44 44 44 44 44 44 43 42 43 41 41 39 40 40 40 42 43 43 42
42 36 33 29 36 37 33 35 34 33 29 30 32 37 42 45 39 38 38 38 39 39 40 41 42 43 44 45 44 43 43 43 40 40 40 39 39 38 38 38 38 39 40 41
41 31 36 37 39 39 36 35 37 35 36 28 34 33 39 42 39 36 38 39 38 38 39 40 40 41 42 43 43 43 43 42 40 39 39 39 39 39 37 36 35 35 35 37
42 29 34 29 37 36 31 35 34 34 35 35 35 35 45 36 36 36 37 37 37 38 39 40 40 40 40 41 40 40 41 40 38 35 34 37 35 34 33 34 33 34 34 34
33 31 28 23 33 32 23 29 33 36 39 38 31 34 31 31 34 36 37 37 37 38 39 39 39 40 40 40 39 39 39 37 34 32 32 32 32 31 31 32 33 32 32 34
30 29 28 22 25 14 32 41 38 34 33 29 27 27 30 34 37 37 39 37 38 39 39 40 40 41 41 40 39 39 36 34 33 31 30 31 31 29 29 29 31 32 33 32
34 30 24 19 19 27 31 36 34 30 31 30 29 31 34 36 35 36 40 40 40 41 40 40 40 39 39 37 37 34 32 32 32 31 31 31 30 26 26 24 27 29 29 30
32 32 24 19 14 12 29 31 34 33 22 28 28 30 31 32 25 33 41 40 40 42 40 38 38 37 36 37 36 31 30 29 29 30 30 30 29 25 23 25 24 26 27 28
20 19 18 19 17 23 29 30 33 18 22 29 30 31 31 29 34 38 40 39 40 38 37 37 36 35 35 35 32 28 28 27 28 28 28 27 26 24 23 23 23 23 23 24
22 19 15 12 12 11 31 29 24 32 34 33 34 34 33 35 36 36 38 38 38 35 34 35 32 32 33 31 27 25 24 27 26 24 22 22 21 21 21 19 19 19 19 19
18 25 22 20 23 33 33 33 37 37 33 35 35 36 36 34 35 36 35 34 32 32 31 30 26 24 26 24 23 20 21 21 20 17 15 16 17 17 17 15 15 16 17 17
28 32 24 24 30 32 35 38 39 39 37 38 37 36 35 32 32 30 30 29 28 26 23 23 20 18 17 19 18 16 16 15 12 10 10 11 11 12 12 14 14 13 14 15
29 28 24 24 30 32 34 36 38 38 38 37 33 31 29 27 27 26 24 22 22 20 19 18 15 13 13 14 12 12 11 9 7 6 7 7 8 8 8 10 11 12 14 15
31 27 24 22 33 32 33 37 39 35 35 29 26 24 23 22 21 21 18 19 17 15 14 12 10 9 9 8 7 7 7 6 4 4 5 6 6 6 7 7 7 13 15 17

GFSCGP_sfc_temp_015.txt.gz
Temp
64 59 56 63 66 65 63 60 58 63 68 64 61 62 66 71 72 73 76 77 77 75 74 71 68 66 66 65 65 68 70 72 71 69 66 66 66 67 68 68 68 68 67 64
57 54 65 67 61 60 60 56 56 63 67 59 60 59 64 69 70 74 72 73 71 70 67 64 63 61 60 59 60 62 64 68 69 68 67 67 67 68 68 66 66 66 65 63
57 63 65 61 60 57 58 55 56 55 60 62 59 57 64 69 73 75 72 71 67 62 60 59 58 58 57 56 57 58 60 63 65 66 66 65 65 61 62 63 64 63 64 63
59 63 57 57 55 59 52 63 58 55 51 48 58 44 57 66 68 66 65 63 60 58 58 57 55 55 54 55 56 58 58 59 60 62 63 61 59 57 60 61 62 61 61 61
57 54 52 53 56 60 56 57 56 54 50 50 53 50 57 66 62 65 61 58 57 57 55 54 54 54 55 54 54 56 56 56 57 58 59 58 57 59 61 61 59 60 59 58
58 58 57 59 59 58 56 54 55 54 50 41 53 52 54 59 60 56 55 55 55 55 55 55 55 55 54 54 54 54 54 54 55 55 55 55 54 55 56 58 56 57 58 57
58 58 58 56 54 55 52 50 41 41 41 40 56 48 54 63 65 61 54 52 53 54 53 53 52 52 51 51 52 52 52 51 53 53 52 52 52 53 54 55 55 55 55 55
48 46 56 56 55 52 53 52 41 31 35 42 48 41 51 57 55 54 54 52 52 51 52 51 51 51 51 50 50 51 50 49 50 50 50 51 50 51 51 52 52 53 54 55
47 47 60 55 56 55 51 45 51 38 37 35 44 52 60 58 51 51 49 49 47 48 49 50 50 50 50 49 49 49 48 48 48 49 49 49 49 49 48 48 49 49 49 51
51 40 54 53 54 55 51 55 36 39 27 28 40 44 47 56 52 47 46 45 46 47 47 48 49 49 49 49 49 49 48 46 46 46 47 47 46 47 48 48 46 46 47 47
50 44 45 51 48 46 48 44 46 45 40 30 29 39 52 49 49 45 44 44 44 45 46 47 47 48 48 48 47 47 47 45 44 45 45 44 44 44 45 44 44 44 44 45
51 44 36 42 53 54 50 45 46 33 31 37 35 35 55 47 45 43 41 42 43 43 44 45 46 47 47 46 46 45 46 44 43 44 43 42 43 41 41 41 41 41 41 42
47 39 30 34 46 49 42 46 45 42 35 30 27 34 44 39 38 40 40 42 42 41 43 45 47 46 47 47 46 46 45 44 43 43 42 42 40 40 39 39 38 38 38 39
45 39 34 29 36 42 35 38 37 34 29 31 31 36 45 44 39 40 43 42 41 42 41 43 43 45 46 46 46 46 46 46 44 43 41 39 39 39 39 38 38 37 37 37
44 32 37 38 41 41 38 36 38 36 38 32 36 36 42 45 46 44 44 42 41 41 42 42 42 42 44 44 44 45 45 45 44 41 39 39 38 38 37 35 34 35 35 36
45 31 34 28 36 36 32 36 36 37 38 37 38 37 48 43 41 40 40 40 41 41 42 42 42 43 42 43 43 43 43 43 42 37 35 36 34 34 33 33 32 33 34 35
35 32 27 22 32 31 24 31 36 38 40 39 32 34 33 36 37 39 39 40 39 41 42 42 42 42 42 43 42 41 41 40 36 33 32 32 32 31 32 31 31 30 31 33
32 29 28 22 24 13 32 44 42 37 36 36 33 29 33 35 39 40 41 40 40 41 42 43 43 42 43 42 41 40 37 35 33 32 31 32 32 30 31 30 28 29 30 30
38 32 24 19 19 27 31 36 35 32 30 38 32 33 35 37 38 38 45 44 42 43 43 44 44 41 41 40 40 36 33 33 32 31 31 31 31 29 29 26 26 27 27 27
35 36 28 23 16 12 30 36 37 36 22 31 31 31 32 34 26 33 42 42 42 43 43 42 40 39 38 38 37 31 30 29 28 29 29 29 28 26 25 26 25 25 25 24
24 23 20 20 18 23 35 33 36 19 24 31 33 34 33 31 35 39 41 41 42 41 40 39 37 36 36 35 30 26 26 25 26 26 25 24 24 23 23 22 23 22 21 21
25 22 19 20 15 12 34 32 25 33 36 35 36 37 36 37 38 39 39 39 40 37 36 35 32 31 31 29 25 22 21 23 21 19 17 16 15 16 17 15 16 16 16 15
20 27 23 25 25 36 36 35 39 39 35 36 37 39 38 36 36 38 37 37 35 33 31 28 24 22 24 22 20 17 18 17 15 12 9 9 10 10 11 10 10 11 12 12
31 35 27 26 31 33 37 39 41 41 39 40 40 39 38 35 36 35 33 31 29 26 23 22 19 16 15 17 17 14 14 13 9 6 6 7 7 7 8 9 10 8 8 8
32 33 27 27 32 34 36 38 39 39 40 39 40 38 35 33 31 31 27 24 24 22 20 18 15 13 13 14 12 11 10 9 6 5 5 6 7 6 7 8 8 8 9 9
34 30 27 25 35 34 35 40 41 38 37 37 34 29 27 25 24 24 21 21 19 17 15 13 12 11 10 9 8 8 8 6 4 3 4 5 5 5 6 6 7 13 14 16

GFSCGP_sfc_temp_018.txt.gz
Temp
57 50 47 53 57 58 54 52 50 55 61 56 53 53 58 63 63 62 61 62 59 57 58 57 56 54 53 54 55 56 56 57 58 56 55 54 54 56 57 57 59 59 57 56
50 46 57 61 59 54 52 49 48 54 59 53 52 52 58 62 63 64 59 57 55 54 54 54 52 51 50 51 52 53 54 55 57 56 55 55 54 54 55 57 57 58 59 56
50 56 61 57 54 53 51 48 49 49 53 51 49 47 53 61 60 61 59 56 54 51 50 50 50 48 48 48 49 51 52 53 54 54 55 54 53 50 50 51 52 54 59 57
53 58 55 51 51 52 47 54 52 49 44 38 49 36 47 56 54 54 52 50 49 49 50 50 48 47 47 46 48 50 50 51 53 52 51 49 48 47 49 50 51 51 54 53
50 48 47 48 52 53 49 50 47 46 42 39 41 36 46 53 49 48 49 49 48 48 48 47 47 48 48 46 46 47 49 49 50 49 49 47 45 46 47 47 48 49 49 51
52 51 51 52 53 52 51 47 47 45 41 29 41 41 42 47 49 46 47 48 48 47 47 47 48 48 45 45 45 46 46 46 47 47 46 44 43 43 44 44 44 45 46 47
49 50 51 52 47 48 46 42 31 29 27 29 44 38 44 50 52 51 47 45 45 45 44 44 44 43 43 42 43 45 43 43 44 44 44 43 43 42 42 42 41 41 42 43
41 39 49 51 48 45 45 45 32 24 24 30 37 31 43 48 49 49 47 45 45 43 44 43 43 43 42 43 42 41 41 40 41 42 42 42 43 43 43 41 41 40 40 41
42 42 50 51 51 50 43 39 45 33 30 26 36 43 52 47 44 44 43 42 41 42 43 43 43 42 41 41 41 40 40 39 39 40 39 39 41 41 41 41 41 41 40 43
47 37 48 47 48 47 46 47 34 33 24 22 31 34 38 43 41 42 41 40 41 41 41 41 42 42 41 41 41 40 40 38 38 38 38 38 37 38 38 38 37 37 39 39
46 41 40 45 42 41 41 39 40 40 34 25 24 30 42 42 42 39 39 40 40 39 39 40 41 42 42 42 41 40 39 38 37 38 38 37 36 37 37 35 36 35 35 36
45 39 29 37 47 48 42 40 42 32 30 33 32 31 42 40 39 40 39 41 42 41 40 40 42 41 41 42 41 40 40 39 38 38 37 37 37 35 34 34 34 33 33 34
43 34 24 27 38 41 37 39 39 37 32 28 25 27 40 38 38 39 37 38 39 40 40 42 41 41 41 40 40 41 41 39 39 39 37 35 33 33 32 32 32 32 32 32
46 36 28 23 31 38 29 34 36 34 28 28 29 33 39 43 39 39 36 37 37 38 39 37 37 38 38 39 38 38 38 41 38 38 35 32 32 32 32 31 30 29 30 30
41 25 32 34 36 36 33 32 34 32 34 27 31 31 38 41 36 35 38 39 38 38 38 38 37 36 36 37 38 38 37 37 36 34 32 33 32 31 29 28 27 28 28 30
41 22 28 21 30 31 28 31 31 32 32 32 33 32 41 34 36 36 37 37 36 36 38 38 38 37 37 37 37 38 37 35 33 30 29 31 30 30 29 29 30 28 28 26
30 23 14 12 27 25 14 26 29 31 35 34 27 29 25 29 33 33 33 35 35 36 37 38 38 37 37 36 36 34 34 32 26 25 25 26 27 27 28 28 28 28 28 28
27 20 17 9 12 1 26 35 33 30 31 29 26 21 26 29 32 33 35 34 35 36 37 38 37 36 35 34 33 33 30 26 26 25 24 24 27 26 27 27 27 27 28 26
34 28 14 7 5 20 27 31 29 26 24 29 26 27 30 31 31 30 37 37 34 35 36 36 34 34 33 32 30 27 25 26 26 26 26 26 25 23 24 22 23 24 24 24
32 32 20 7 3 0 22 30 33 31 15 21 23 21 24 27 17 23 34 35 35 36 36 32 31 31 30 28 26 25 24 21 23 23 23 22 20 18 17 18 18 19 19 20
10 9 14 16 11 14 24 26 32 10 18 22 24 25 25 23 27 31 34 34 35 33 30 29 28 27 27 26 23 21 21 19 20 19 18 16 15 13 13 12 13 13 13 14
18 9 5 6 2 8 27 25 19 24 28 27 29 30 30 31 31 32 32 32 31 29 28 26 24 24 23 23 19 17 16 18 16 13 11 10 8 8 10 7 7 8 8 7
13 22 13 17 14 30 30 29 32 33 27 30 30 32 32 30 30 31 31 29 29 26 24 23 17 18 20 15 14 13 14 13 11 8 6 5 6 6 7 5 5 5 6 5
24 28 20 19 26 29 33 34 34 34 32 33 32 31 31 30 30 30 29 27 25 21 18 17 13 10 11 11 13 9 11 10 6 4 4 5 5 4 5 7 7 6 5 4
27 25 21 23 29 31 33 34 35 35 35 32 32 32 31 30 29 27 23 20 20 18 17 13 10 10 10 11 9 6 8 6 4 4 4 3 3 3 3 4 4 6 7 8
31 28 24 21 31 31 32 34 34 32 32 32 30 27 25 25 24 23 19 19 17 15 12 10 8 7 7 5 5 5 2 3 3 2 3 3 2 2 3 3 3 11 14 16

GFSCGP_sfc_temp_021.txt.gz
Temp
51 45 41 47 49 49 46 44 43 48 56 49 51 49 54 58 57 56 49 49 48 48 50 50 49 49 49 49 49 50 51 52 53 51 51 52 52 53 54 58 60 60 59 58
46 42 51 53 52 51 47 44 43 49 54 50 50 49 54 56 56 54 50 47 47 47 47 48 47 46 46 47 47 48 49 50 51 51 50 50 49 49 51 55 57 59 58 57
43 51 55 54 50 48 45 43 44 45 48 48 44 42 49 54 51 51 49 48 47 45 45 45 45 44 45 44 44 47 48 48 48 49 51 49 49 48 48 49 53 54 56 56
46 54 52 49 47 49 42 49 48 46 40 36 44 32 44 48 45 46 45 43 43 44 45 45 44 44 44 43 44 45 46 47 48 47 46 44 43 42 44 45 46 48 50 52
46 47 45 45 48 50 46 48 45 44 39 35 38 32 40 44 41 42 41 43 42 42 43 43 43 44 43 42 41 42 45 45 45 45 44 43 41 42 42 44 44 45 46 47
47 49 48 49 50 50 49 45 43 40 37 27 37 36 37 42 44 41 42 42 42 42 42 42 43 43 42 41 40 41 42 43 44 43 43 42 40 40 40 40 40 41 43 43
44 46 47 50 45 46 45 39 30 26 24 27 38 34 40 44 46 45 41 39 40 40 40 40 40 39 40 39 39 42 40 39 40 41 40 40 40 39 39 39 38 37 38 40
37 36 46 48 47 43 42 43 30 22 23 26 36 30 40 41 42 42 42 40 40 39 40 40 39 38 39 39 38 38 37 37 38 38 38 38 38 38 39 38 37 37 37 37
38 38 46 48 47 49 42 38 42 33 24 23 32 38 40 41 39 40 39 39 38 39 39 39 40 38 38 38 38 37 36 36 36 37 36 35 35 35 35 34 34 35 35 39
41 35 44 43 45 45 44 46 33 31 18 18 28 31 34 36 36 37 36 36 37 39 39 40 39 39 39 38 38 38 38 36 36 36 36 36 35 35 34 34 32 32 33 34
43 40 37 41 39 40 40 36 38 38 32 23 19 28 39 38 37 35 36 38 37 38 38 38 38 38 38 38 39 38 37 37 37 38 37 37 36 35 34 32 32 31 31 31
42 38 27 35 42 44 42 39 39 28 26 27 29 31 40 38 38 39 37 39 38 38 38 40 40 38 38 39 39 38 38 36 37 38 36 35 36 35 32 32 32 31 30 30
43 32 21 26 35 38 35 37 38 37 32 28 25 25 38 36 36 38 36 37 37 36 36 36 36 36 36 36 37 36 37 37 38 37 35 34 33 32 33 32 32 32 32 31
46 36 28 25 29 34 28 31 33 33 21 23 26 31 38 38 34 36 35 36 35 36 37 35 34 34 35 35 35 35 36 36 34 34 31 30 29 30 31 30 29 28 30 29
40 25 30 32 33 32 31 30 31 29 31 24 31 30 36 39 33 32 34 35 35 35 35 35 34 34 34 35 35 36 35 35 34 32 30 30 30 31 30 28 28 27 27 29
39 23 28 21 31 31 27 30 30 30 30 29 31 30 40 30 33 33 35 35 34 34 36 35 35 35 35 35 35 35 34 33 32 29 28 29 29 30 29 29 29 29 29 29
30 23 15 13 26 24 14 25 29 30 32 29 24 29 24 28 32 30 30 32 33 34 35 35 35 35 34 34 34 32 31 29 24 23 24 25 26 26 27 27 26 26 26 27
28 21 14 7 9 1 25 31 31 29 29 25 23 19 22 28 30 33 33 31 32 34 34 35 34 33 32 32 30 29 28 24 25 23 21 21 23 21 22 22 22 22 22 22
32 27 10 9 0 15 26 30 29 27 24 25 24 23 27 30 27 27 33 33 33 34 34 33 32 31 30 27 26 26 24 24 23 23 22 21 18 16 17 15 15 17 16 16
29 29 21 0 5 2 20 29 32 30 16 22 19 21 23 26 16 20 32 34 35 35 34 31 29 28 27 24 24 22 21 18 19 20 19 18 16 12 12 12 11 12 11 12
8 6 16 16 7 10 22 24 30 10 17 18 22 24 25 22 25 30 32 32 34 32 30 28 26 25 24 23 21 19 18 16 17 16 15 13 12 10 9 9 9 8 7 8
16 10 5 1 -4 5 28 24 20 24 26 26 28 29 29 29 30 30 31 31 31 29 27 26 24 23 22 20 17 15 14 16 13 10 9 8 6 6 8 5 5 5 5 4
15 21 12 17 14 28 28 29 31 30 26 28 29 31 30 29 29 31 30 29 29 28 25 23 18 18 19 14 13 11 12 11 9 2 1 2 4 5 5 3 3 3 4 4
23 25 20 18 25 27 29 30 32 31 31 31 31 31 30 29 29 29 29 28 25 21 18 16 12 10 8 9 12 7 8 8 -3 -5 2 4 4 3 3 4 4 2 2 2
25 24 19 20 28 28 29 31 34 31 31 31 30 30 30 29 29 28 26 22 21 19 16 13 10 9 8 8 6 3 6 -0 -1 1 4 3 3 2 2 3 3 4 6 8
30 28 23 21 31 29 32 33 33 31 31 31 29 28 28 27 27 24 20 19 18 16 14 10 8 6 4 1 1 0 -4 -6 -4 1 3 3 3 2 3 2 3 10 13 16

GFSCGP_sfc_temp_024.txt.gz
Temp
49 44 41 46 47 47 44 42 41 45 53 47 48 46 52 55 52 46 44 44 44 43 46 46 46 45 46 46 46 47 47 47 49 47 47 49 49 49 52 57 57 59 58 57
44 41 51 50 49 47 44 41 41 46 50 47 47 47 52 51 48 47 44 43 42 42 43 45 44 44 43 43 44 45 46 46 46 48 46 46 46 47 47 53 55 55 57 56
42 49 52 50 47 45 43 41 42 44 46 44 41 41 47 45 45 46 44 44 43 41 40 41 42 41 42 41 42 44 45 45 45 45 47 47 46 45 46 46 49 50 51 53
44 51 50 45 45 46 41 48 46 43 39 35 40 31 40 44 41 41 40 38 39 39 40 41 40 40 40 39 41 42 43 44 45 44 43 41 40 39 39 40 42 44 45 45
45 44 44 44 47 49 45 46 44 41 37 33 35 32 37 40 37 37 37 38 38 38 39 39 39 40 39 39 38 39 41 41 42 42 42 41 39 40 40 40 40 41 42 42
45 47 47 47 47 47 47 44 41 36 35 27 36 35 34 38 41 37 37 38 39 38 38 39 40 40 38 37 36 37 39 39 40 40 39 38 37 38 37 37 37 38 39 40
42 44 46 47 43 44 43 38 29 26 24 26 36 31 37 37 40 40 37 36 37 37 37 38 37 37 36 35 35 39 37 36 37 37 37 37 36 36 35 35 35 35 36 37
36 35 44 47 46 43 40 40 29 22 21 26 32 30 36 36 38 39 39 37 38 37 38 38 37 36 36 36 35 35 35 35 35 36 34 34 34 34 35 34 34 34 34 35
35 37 43 45 46 47 40 35 39 31 17 22 30 30 36 37 35 36 36 37 36 37 37 37 37 36 36 35 35 35 35 34 34 34 34 34 33 32 32 32 32 32 32 36
43 34 42 43 44 43 42 44 32 29 17 17 26 29 31 32 33 35 35 35 35 37 37 36 36 36 37 37 36 35 35 34 34 34 33 34 33 33 32 32 30 30 30 31
42 40 35 40 38 39 38 35 36 36 29 21 17 27 36 36 37 35 36 37 36 36 36 36 36 37 36 35 35 34 35 34 34 34 34 33 33 33 33 31 31 31 30 30
43 38 27 35 40 41 38 38 38 26 25 26 27 30 39 39 38 37 36 38 36 36 36 36 35 35 34 35 34 34 34 34 34 34 33 33 33 31 30 31 31 29 31 32
42 33 19 26 36 37 35 36 36 34 28 21 23 26 38 36 36 37 36 35 36 36 35 35 34 33 33 33 34 33 33 33 33 33 32 31 30 29 28 29 29 29 29 29
45 34 30 30 30 34 29 32 33 33 21 23 27 29 36 35 35 35 36 36 35 35 35 33 32 32 33 33 33 33 33 33 32 32 31 29 28 28 28 27 27 26 27 26
41 33 30 32 35 34 32 31 30 29 30 25 31 28 36 35 34 35 36 34 33 33 33 33 32 32 32 32 33 33 33 34 33 31 30 29 28 28 27 26 26 27 27 28
37 25 29 22 31 31 27 31 29 30 31 29 31 30 39 37 32 31 33 33 32 32 33 33 33 33 33 33 33 33 33 32 30 27 25 27 26 26 26 25 25 25 25 25
32 25 20 18 24 24 14 23 30 32 32 31 25 31 25 30 32 31 31 33 33 33 34 33 33 33 33 32 33 30 29 27 23 22 21 21 22 21 22 21 22 21 20 20
28 25 22 12 10 2 26 29 31 29 30 26 25 21 24 29 29 32 31 31 32 33 33 33 33 32 31 30 28 27 27 23 23 20 17 17 19 17 18 18 16 16 17 16
33 28 12 11 4 17 27 30 28 26 24 24 24 22 27 28 27 26 32 32 32 32 33 33 32 31 28 26 26 25 23 23 21 20 19 17 15 12 14 11 12 13 12 12
29 29 23 3 2 4 21 29 31 30 15 18 21 22 22 25 16 22 31 34 34 34 33 32 29 27 25 23 24 22 20 17 17 18 18 16 14 8 9 10 9 10 9 10
11 14 19 16 3 9 22 24 29 11 19 18 20 25 23 22 28 29 31 31 32 32 31 29 26 25 24 22 20 18 17 15 15 14 13 11 11 8 7 7 8 6 6 7
16 12 9 6 7 6 26 25 20 26 26 26 27 28 28 30 30 30 30 30 31 30 28 27 24 22 20 19 17 15 14 15 11 9 7 6 4 5 7 3 4 4 3 2
17 21 12 16 15 28 28 29 33 30 27 28 28 30 31 30 29 30 30 29 30 29 26 25 21 19 19 14 13 11 11 10 8 0 -3 -2 1 4 4 1 2 1 2 1
22 25 19 18 25 26 30 33 31 31 31 31 31 31 30 30 30 29 28 28 27 23 21 16 14 12 11 11 13 8 7 6 -6 -10 -3 1 1 2 1 4 4 2 0 1
22 23 17 18 26 27 28 29 32 32 30 30 30 31 31 29 29 28 27 25 24 20 17 14 13 12 11 10 9 5 4 -1 -4 -5 1 1 1 -2 2 3 3 4 6 7
27 27 22 20 32 30 31 33 33 31 32 30 30 28 27 27 28 27 25 22 20 17 13 11 9 9 7 5 5 4 -2 -7 -8 -2 1 1 1 2 2 2 2 10 13 15

GFSCGP_sfc_temp_027.txt.gz
Temp
47 44 41 45 46 45 42 40 40 42 50 44 45 44 50 52 46 40 39 39 40 40 43 44 43 43 43 43 44 44 44 45 46 46 44 47 47 48 48 52 51 53 54 55
43 40 50 49 47 46 41 38 39 44 48 46 45 46 48 44 42 42 40 38 39 39 40 42 41 40 40 40 42 43 43 43 44 45 43 44 44 44 45 48 49 48 49 49
42 48 50 49 44 43 41 39 39 42 44 42 39 40 42 40 41 41 40 40 39 38 37 38 38 37 37 37 37 41 42 42 42 44 44 44 43 42 42 42 43 43 45 45
42 48 48 43 44 45 39 45 45 42 38 34 38 30 39 39 36 37 37 35 36 36 37 38 37 36 36 35 36 39 40 40 42 42 42 40 38 37 36 38 40 41 41 41
44 43 41 42 44 47 44 44 42 40 36 33 35 31 36 37 33 34 34 35 35 36 36 36 36 37 36 35 34 35 38 38 39 39 39 38 37 36 37 37 38 38 40 40
44 45 46 46 44 46 46 42 39 35 34 26 35 35 32 35 37 34 35 35 36 35 36 36 37 37 35 34 34 34 37 36 37 38 37 36 34 35 34 34 34 35 36 37
39 42 43 46 42 42 41 38 29 26 24 26 33 29 36 36 36 39 36 35 35 36 35 35 35 34 34 34 34 36 35 34 34 35 35 34 33 33 33 32 31 31 32 34
35 34 43 46 45 41 39 39 29 22 21 26 31 28 36 34 35 39 38 37 35 35 36 35 35 34 34 34 33 33 33 33 33 33 32 32 32 31 31 31 30 31 31 31
34 36 42 43 44 47 38 35 39 30 16 21 30 31 34 35 33 33 34 34 34 35 35 35 35 35 34 33 33 33 32 32 32 32 32 31 31 31 30 30 29 29 29 33
41 34 40 41 42 42 40 43 32 29 19 18 26 28 32 30 31 33 33 33 35 35 35 34 34 34 34 34 33 33 33 32 32 32 32 31 31 31 30 29 29 28 29 29
42 39 34 39 38 37 37 34 34 34 29 22 17 29 35 36 35 34 35 36 35 35 34 34 34 34 34 33 33 32 33 33 32 33 32 31 31 30 30 30 29 28 28 29
43 38 26 34 37 38 36 37 37 31 26 25 26 32 38 37 39 38 37 37 36 35 35 34 34 33 33 34 33 33 33 32 32 32 31 32 31 30 29 29 29 28 28 28
42 33 21 29 35 34 33 34 34 31 27 20 23 27 37 35 36 37 36 36 36 36 34 33 33 32 32 32 33 32 32 32 32 32 31 30 30 28 27 27 27 27 26 26
47 36 34 31 32 34 28 31 32 31 26 28 30 32 32 35 36 36 35 36 36 35 34 32 31 31 31 31 31 31 31 31 31 30 30 28 28 28 27 26 26 25 25 24
41 34 31 34 35 34 32 31 30 30 32 30 34 31 34 35 35 34 36 36 34 34 33 33 32 31 30 30 31 31 31 31 30 29 29 27 27 27 25 24 23 24 24 24
36 27 31 26 30 31 28 31 33 34 32 30 30 31 39 34 35 32 34 34 32 32 32 33 33 32 32 31 31 32 31 30 29 27 24 25 23 23 22 21 21 21 21 20
32 28 24 27 26 27 21 24 30 32 32 32 27 34 26 31 32 32 31 32 33 32 33 32 33 33 33 32 33 30 28 26 22 21 18 19 20 19 19 19 18 18 17 17
29 28 26 18 17 14 28 28 31 30 30 28 25 22 26 29 29 32 30 31 32 33 33 33 32 32 31 31 29 27 26 23 22 19 16 16 18 15 16 15 14 14 14 13
33 29 18 19 9 19 27 29 27 26 26 27 29 26 28 28 26 25 31 30 31 31 32 32 32 32 29 27 26 25 22 22 21 19 18 16 15 11 12 8 10 11 10 10
30 31 26 10 8 9 23 29 31 31 17 21 24 23 23 25 17 26 30 32 32 33 33 32 31 29 26 24 24 22 20 18 17 18 18 16 13 6 6 8 8 8 7 9
14 20 21 15 15 14 21 24 31 13 21 18 21 25 22 21 28 30 30 30 32 32 32 30 28 26 25 22 20 19 17 15 16 15 13 11 10 6 6 5 6 5 4 6
17 13 10 10 9 9 27 26 22 26 26 25 26 29 27 28 30 30 30 31 31 30 30 30 25 24 21 20 18 16 15 15 12 11 8 6 1 2 5 -5 1 -0 -0 -0
18 23 16 19 17 28 27 28 32 30 27 27 29 31 30 29 29 30 29 29 30 30 29 26 23 20 19 16 14 13 14 12 8 4 -2 -5 -1 2 2 -4 0 -0 -2 -2
22 25 21 20 25 25 29 31 30 31 31 32 31 31 30 29 29 29 29 29 28 26 23 19 17 16 13 11 13 10 10 9 -0 -0 -2 -0 -2 -1 -1 3 3 0 -1 -0
24 24 18 19 26 26 29 30 31 32 31 30 30 30 30 29 30 28 28 25 26 24 18 17 18 16 12 10 9 7 8 3 -0 -0 2 -1 -2 -3 -1 1 2 3 5 6
26 25 21 17 30 30 30 32 33 31 32 31 29 27 27 27 29 29 26 27 24 20 15 14 12 10 8 6 5 5 1 -1 -2 0 2 -1 -0 -1 1 0 1 9 13 16

GFSCGP_sfc_temp_030.txt.gz
Temp
45 43 41 44 46 44 42 39 40 41 47 43 45 44 49 45 39 37 36 36 37 38 40 40 40 39 39 40 41 42 42 43 45 43 42 45 43 45 45 47 48 49 48 50
42 40 48 47 45 44 41 39 39 43 46 45 43 44 44 41 39 39 37 36 37 37 37 39 38 37 37 37 38 40 41 41 43 42 42 42 41 41 42 44 43 43 43 44
41 47 48 48 42 41 39 38 37 42 41 40 36 39 37 37 38 38 38 38 37 36 36 36 36 34 34 34 34 38 38 39 40 41 42 41 40 39 39 39 40 40 41 41
42 46 47 42 42 43 37 43 43 40 37 33 37 30 36 35 34 35 35 34 34 35 35 35 34 33 33 33 34 36 38 38 39 40 40 38 36 35 34 35 36 38 38 38
43 42 41 41 43 45 41 43 40 38 35 31 33 30 35 35 33 32 33 34 34 34 35 35 34 35 34 34 32 33 36 37 37 37 37 37 35 34 33 33 35 35 36 36
43 44 45 45 42 45 44 41 38 34 33 25 35 35 32 33 37 33 34 34 35 34 34 34 35 35 34 33 33 33 34 34 35 35 35 34 33 32 33 31 32 32 32 34
38 41 43 45 41 40 40 37 29 26 24 26 31 29 35 37 36 37 35 34 34 34 33 33 33 33 33 32 32 34 33 32 32 33 33 32 31 30 30 29 29 29 29 29
33 32 42 45 44 40 38 38 30 23 21 26 30 27 36 34 35 36 38 36 34 33 34 34 34 33 33 33 32 32 32 31 31 31 30 30 30 29 29 29 28 28 28 28
33 36 40 41 42 44 37 34 38 29 15 21 30 32 34 33 31 32 32 33 33 33 33 34 34 33 33 32 32 32 31 31 31 30 30 29 29 29 28 27 28 27 28 31
41 34 38 39 42 40 39 42 33 29 19 17 27 28 33 32 32 30 31 32 32 34 34 33 33 33 33 33 32 32 31 31 30 30 30 29 29 28 28 28 28 28 28 29
42 40 33 38 37 36 36 33 34 35 30 22 17 28 35 36 33 31 33 35 34 34 34 33 33 34 34 33 31 31 31 31 31 31 30 30 29 28 29 28 27 27 27 27
43 37 28 34 35 36 34 36 35 32 26 24 25 32 34 35 35 37 36 36 35 35 34 34 34 33 32 32 32 32 31 31 32 31 30 31 30 29 28 27 27 26 26 27
43 34 22 28 33 33 32 34 34 31 27 22 28 29 36 32 34 35 34 34 35 35 34 33 32 31 31 30 31 31 31 31 32 30 30 30 29 28 27 26 26 26 25 24
47 34 32 32 32 34 29 32 32 34 30 31 32 35 31 34 36 34 35 35 35 35 34 32 31 30 30 31 31 31 31 30 31 29 29 28 27 27 26 25 24 24 24 23
43 32 32 33 34 34 33 33 30 30 35 33 35 32 33 37 36 37 36 35 34 34 33 32 32 32 32 30 31 31 30 30 29 28 28 27 27 25 24 22 21 21 21 21
37 31 30 25 30 32 29 32 31 34 31 31 30 30 39 37 36 34 35 36 34 34 34 33 34 33 33 31 31 32 30 29 29 27 26 26 23 22 20 20 20 20 19 18
33 28 25 27 26 27 25 28 31 31 31 35 27 36 29 31 33 32 32 32 33 33 34 33 33 33 33 32 33 29 29 28 23 22 19 19 19 18 18 17 17 17 15 15
29 27 26 20 22 17 28 27 30 33 33 32 28 25 26 29 30 32 31 31 32 33 33 33 32 31 31 31 30 29 27 23 22 20 17 16 17 15 15 14 13 13 13 12
32 30 20 19 18 23 26 28 27 29 28 27 29 30 29 29 26 27 32 31 32 32 33 32 32 31 29 29 28 26 23 23 21 19 19 16 14 11 12 7 9 10 9 9
29 31 30 16 17 16 22 28 31 32 20 23 26 26 22 26 19 25 31 31 31 32 32 32 31 30 28 27 25 23 21 19 18 19 19 16 13 7 6 9 6 7 4 9
21 21 25 19 19 19 23 25 31 18 24 18 21 24 23 22 28 32 31 30 32 32 32 31 28 28 28 24 21 20 18 18 17 15 14 11 10 6 5 4 5 1 1 6
21 20 18 18 17 16 27 27 25 28 26 27 27 29 28 30 32 30 31 31 30 31 31 31 27 27 24 21 21 19 18 16 13 11 10 8 6 4 6 -5 -3 -4 -3 -3
22 26 20 24 23 28 31 30 32 31 28 28 29 30 31 29 29 30 29 28 29 30 30 28 25 24 21 18 19 17 15 12 9 7 6 2 3 6 5 -3 -1 -2 -6 -5
23 26 23 24 25 27 30 31 30 31 32 32 31 31 30 29 30 29 28 27 27 26 25 21 17 17 16 13 16 12 11 9 3 -1 4 5 4 4 3 4 4 -4 -4 -2
25 25 19 20 26 27 30 30 33 32 31 30 29 30 30 28 28 27 27 25 25 25 21 17 19 19 18 13 10 8 8 5 1 0 3 4 4 2 2 3 2 2 3 4
26 24 22 19 30 31 32 33 33 30 31 30 28 27 26 27 27 26 25 25 24 24 17 15 16 15 12 11 7 3 2 2 1 2 5 5 4 2 3 2 1 9 13 16

GFSCGP_sfc_temp_033.txt.gz
Temp
46 44 42 45 46 45 43 41 43 43 48 46 46 46 51 44 40 38 38 39 39 40 42 42 41 41 41 42 43 43 44 45 48 48 48 48 45 45 45 45 45 46 46 48
43 40 48 47 46 45 42 40 40 44 46 45 44 44 47 43 41 41 39 38 39 39 40 40 40 39 39 39 40 41 42 43 45 46 45 46 44 43 44 44 44 44 44 44
41 46 47 47 42 42 40 40 38 42 42 42 40 41 40 38 39 39 39 39 39 39 38 38 38 37 38 37 37 40 41 41 42 44 45 45 44 43 43 42 42 41 43 43
42 46 46 42 42 43 37 43 43 41 39 35 40 33 39 37 35 36 36 36 37 38 38 38 37 37 37 37 38 39 39 41 41 43 42 41 40 38 38 39 39 40 40 40
42 41 41 40 43 45 41 42 41 39 37 35 35 33 37 36 36 34 35 35 36 37 37 37 36 37 37 37 36 37 39 39 39 40 41 40 37 37 38 38 38 38 38 38
42 43 44 45 42 44 43 40 38 35 34 27 36 36 35 36 39 34 36 36 36 36 36 36 37 37 36 36 36 37 37 36 37 38 38 38 37 36 36 36 36 36 36 36
38 41 43 44 40 41 39 38 29 27 26 27 33 31 38 41 39 39 38 36 36 36 35 35 35 35 35 35 36 37 36 34 35 36 36 36 35 35 35 34 34 34 34 34
33 32 42 45 43 40 37 39 30 23 23 27 30 28 38 37 36 37 39 38 37 35 35 35 35 35 35 35 35 35 34 34 34 34 34 34 34 34 34 34 34 33 33 33
33 35 40 42 43 45 38 35 39 28 15 22 31 34 39 35 34 34 34 35 35 35 35 35 35 35 35 34 34 34 34 33 33 33 33 33 33 33 32 32 33 33 33 34
41 34 38 39 42 40 40 43 33 30 22 19 28 30 35 34 35 32 31 34 35 35 34 35 35 35 35 35 34 34 34 33 33 33 33 33 32 32 32 33 32 32 32 32
42 40 34 39 37 37 36 35 34 36 32 24 20 29 37 39 37 33 34 36 36 35 36 36 36 35 35 34 33 33 33 33 33 33 33 33 32 32 32 32 31 31 31 31
43 39 29 34 36 37 35 37 37 32 26 25 26 33 36 37 38 37 36 37 36 38 37 36 36 35 34 34 33 33 33 33 34 33 32 33 32 32 31 30 30 30 29 29
43 36 26 31 34 33 33 34 35 33 29 24 25 29 36 34 34 35 35 35 37 36 35 35 34 35 34 33 33 33 33 33 34 32 32 32 31 31 30 29 29 29 28 27
50 36 35 36 35 35 30 32 33 36 24 30 34 36 33 35 36 34 35 35 35 36 36 35 33 34 34 33 34 33 33 33 33 32 31 31 30 30 29 28 27 26 26 25
43 34 32 34 35 35 34 33 32 33 38 33 38 34 37 37 37 38 37 35 34 35 35 34 34 33 32 32 33 33 33 32 32 31 31 30 30 28 27 25 24 24 23 23
37 33 32 29 32 33 30 34 33 35 35 35 34 32 40 40 36 35 35 35 34 35 35 35 35 33 33 34 33 34 33 32 31 30 30 29 27 24 22 22 22 21 20 20
34 31 31 31 27 29 27 30 32 32 32 37 30 40 33 35 36 35 34 35 35 35 35 35 34 34 34 33 35 33 33 30 28 26 24 23 22 21 20 20 19 19 17 17
31 31 31 19 24 21 28 27 31 34 33 30 28 25 31 34 33 34 34 34 33 35 35 35 34 33 33 33 32 32 29 27 26 24 21 20 20 18 17 16 16 15 15 14
33 31 23 22 21 26 25 28 28 29 30 30 33 31 30 29 29 28 31 32 34 34 34 34 34 33 32 32 31 28 25 25 24 23 22 19 18 15 15 12 12 13 12 12
30 31 32 20 20 20 25 29 31 34 24 25 31 28 23 27 21 27 31 32 33 32 33 33 33 32 31 30 28 25 23 21 22 23 22 19 16 11 10 12 10 10 9 11
23 23 27 22 21 24 27 26 32 24 28 25 24 25 26 26 30 32 32 30 32 32 32 32 30 30 30 27 23 23 21 21 22 19 17 15 13 10 10 8 9 7 5 8
24 23 22 22 20 20 28 29 28 32 28 28 28 29 28 31 32 32 32 32 32 31 31 32 28 29 29 24 22 21 20 20 17 15 13 11 7 10 8 2 4 2 2 1
24 26 24 27 26 28 33 31 34 33 30 29 31 31 31 31 31 32 31 30 30 30 30 29 27 27 26 21 21 21 20 16 13 11 7 5 5 6 5 1 3 5 2 1
25 28 24 25 26 27 31 32 32 32 33 32 32 31 30 31 30 30 29 29 28 25 25 23 20 20 21 17 19 21 15 13 8 6 5 5 4 5 4 7 6 3 3 2
27 27 21 21 26 28 31 31 33 32 32 31 30 31 30 29 28 28 26 25 25 24 22 19 21 21 23 16 14 11 11 10 7 5 6 5 4 3 6 6 7 7 6 5
27 25 24 22 31 32 33 36 34 32 31 29 29 27 26 27 28 27 25 24 22 22 17 17 18 18 15 10 9 8 7 8 6 5 5 5 5 5 6 5 5 11 15 17

GFSCGP_sfc_temp_036.txt.gz
Temp
59 59 54 61 63 61 59 56 57 58 59 58 60 61 62 58 56 54 53 53 52 51 51 52 51 52 53 54 55 56 57 58 61 59 58 56 53 54 52 53 53 55 55 56
56 53 63 58 58 57 55 55 56 57 56 56 59 57 64 55 57 57 54 52 52 50 51 50 51 52 52 52 53 53 54 56 56 57 56 55 53 52 53 52 51 53 52 52
57 58 58 56 52 52 53 53 55 54 53 54 53 54 58 53 49 50 52 54 52 52 50 50 49 50 52 50 51 51 52 53 55 54 54 53 53 53 51 50 49 49 51 50
56 57 53 53 53 56 51 56 54 51 50 47 52 47 53 54 49 46 47 49 50 50 50 49 49 50 49 48 49 50 51 52 53 54 55 54 51 47 48 48 48 47 48 48
55 49 50 51 54 55 53 52 52 51 49 46 47 45 54 47 47 45 47 49 50 50 50 48 47 46 46 47 47 49 50 50 51 52 52 51 48 48 48 48 47 47 46 46
53 53 54 56 50 54 51 50 48 47 47 38 47 46 51 51 52 51 48 48 48 48 48 48 46 45 45 46 46 48 47 47 49 50 51 50 47 47 46 46 45 45 46 45
48 50 52 52 48 49 52 50 41 37 36 36 41 42 52 57 50 52 47 47 48 48 47 46 45 45 45 45 45 46 47 45 47 48 48 48 48 48 46 46 46 45 44 43
43 41 48 52 54 49 48 51 43 32 33 40 36 37 49 47 46 46 51 50 48 47 47 46 46 46 45 44 45 46 46 44 45 46 45 46 47 47 46 45 45 44 43 42
43 43 48 48 50 55 46 42 50 36 27 35 45 46 52 43 43 43 45 46 45 45 46 46 46 46 45 45 45 45 45 44 44 44 45 44 45 45 43 43 44 43 42 41
51 44 45 46 51 49 49 51 39 41 31 31 42 43 49 43 45 42 41 43 46 46 46 46 46 46 46 46 45 46 45 44 44 44 44 44 43 43 43 43 41 41 40 40
51 47 41 45 44 46 42 43 44 46 42 36 37 45 54 54 51 45 45 45 47 46 46 46 47 47 46 45 44 44 44 43 43 43 43 42 41 42 42 41 41 40 39 38
51 46 37 41 45 45 51 48 47 41 33 37 36 44 47 50 52 50 49 46 48 48 47 47 48 46 45 43 43 43 44 43 43 43 42 42 41 41 41 40 39 38 38 36
49 42 35 36 40 41 41 43 46 46 37 36 35 41 44 44 45 47 48 47 46 46 47 48 47 46 45 45 44 44 44 43 43 42 41 41 40 40 40 39 37 36 36 35
52 43 41 39 44 47 38 41 42 44 38 41 40 47 44 45 45 46 45 47 47 45 46 47 46 46 47 47 45 45 44 44 42 41 41 40 40 40 39 38 36 35 34 33
49 38 44 47 46 44 43 42 41 41 45 42 48 45 48 48 48 51 52 47 45 44 44 45 45 46 47 45 45 45 45 43 43 41 40 40 40 39 37 34 32 31 30 31
41 38 42 37 46 41 38 42 42 42 45 47 48 45 54 53 49 47 46 43 43 45 45 45 45 45 44 45 44 44 44 42 42 41 39 41 38 34 31 30 28 28 27 26
38 38 32 32 39 34 29 37 41 42 46 46 41 45 43 43 44 48 47 45 45 46 46 45 45 45 45 45 44 43 43 42 37 35 34 33 32 30 29 28 26 26 25 25
36 35 35 31 29 24 37 38 46 42 41 41 38 36 40 43 45 46 46 45 45 45 45 46 46 46 45 44 42 44 41 38 34 34 32 31 29 28 27 25 24 25 24 23
36 33 25 25 26 32 29 34 37 36 39 40 42 39 39 37 41 44 42 44 46 46 46 46 47 46 43 41 41 37 34 34 34 33 32 29 28 25 24 22 23 23 22 21
31 34 33 25 26 26 35 35 38 43 35 35 38 35 33 37 36 45 41 41 42 43 43 42 41 40 40 39 37 33 32 31 31 33 32 30 27 23 21 22 20 21 20 19
26 26 29 26 27 30 35 34 37 29 33 33 37 35 33 36 43 42 40 39 41 41 39 39 38 38 39 37 31 31 31 30 33 31 28 25 24 21 21 20 19 17 16 16
29 26 26 27 26 25 34 33 34 37 33 34 35 35 35 38 37 38 39 39 38 38 37 37 36 37 38 33 30 31 30 33 27 26 24 22 19 20 18 15 15 13 13 12
27 33 30 31 32 32 38 36 38 37 35 35 38 37 38 36 37 38 37 37 36 36 36 35 34 33 33 30 30 30 32 26 23 21 19 17 16 16 15 13 13 14 13 13
28 32 31 30 31 32 35 35 37 37 38 38 39 38 37 37 37 36 37 36 36 32 30 29 28 27 28 28 26 29 24 22 19 19 17 15 13 14 12 15 15 15 15 15
32 32 27 27 30 32 34 35 37 37 37 36 36 37 37 36 35 36 33 31 32 31 29 27 27 28 30 27 26 25 21 19 19 18 16 16 16 13 15 15 17 16 17 16
31 28 28 28 35 36 37 39 37 36 35 35 34 31 32 33 34 32 30 31 30 29 27 25 25 25 28 25 23 18 17 17 17 17 16 17 17 16 16 16 16 17 18 19

GFSCGP_sfc_temp_039.txt.gz
Temp
66 61 57 64 66 67 64 62 61 66 65 61 63 65 69 65 64 65 64 62 61 58 57 57 56 58 58 60 59 57 57 56 57 57 57 58 55 55 54 55 56 56 57 57
58 55 66 69 66 64 61 59 59 65 62 59 62 62 67 68 63 65 64 62 61 56 56 55 56 57 58 58 59 59 60 61 61 60 58 57 56 55 54 54 54 55 53 54
59 63 64 61 59 57 59 57 59 59 58 59 59 56 60 67 66 65 64 64 61 57 55 54 54 56 56 56 56 57 58 58 57 57 56 55 55 55 53 51 51 52 53 52
60 67 59 57 57 60 54 63 60 58 54 49 58 46 60 65 59 56 56 58 58 58 57 56 54 54 54 53 54 55 55 56 57 59 57 56 53 49 50 50 50 49 50 50
58 54 54 54 58 62 57 59 57 56 52 51 53 46 56 63 58 55 54 55 56 56 56 54 54 53 52 52 52 53 53 54 55 56 56 54 50 50 51 50 48 48 48 48
59 58 59 60 55 60 58 55 53 52 50 40 49 49 53 56 56 62 55 54 55 54 54 54 52 50 49 49 50 51 51 51 53 54 54 52 50 50 48 48 47 47 47 46
54 54 57 57 52 53 55 52 43 39 37 38 49 48 54 63 58 61 54 52 54 54 53 51 48 49 49 48 49 49 50 50 52 53 52 52 51 51 49 48 47 46 45 44
49 46 55 56 56 53 49 52 43 34 37 43 41 40 51 58 58 55 57 54 54 52 52 50 49 49 48 47 48 49 49 48 50 50 49 50 51 50 49 48 47 46 45 43
49 49 56 57 59 59 50 45 55 42 32 36 47 50 58 48 47 48 53 52 51 51 51 50 51 50 49 47 47 48 48 47 48 48 48 48 49 48 46 46 46 45 44 43
57 48 51 51 53 55 53 56 40 43 32 32 46 49 50 44 47 48 49 49 50 51 51 51 51 50 49 49 48 49 49 47 47 47 47 46 47 47 46 45 44 43 41 42
57 51 44 47 46 48 45 45 48 49 46 38 38 47 62 59 56 49 49 49 50 50 50 50 51 50 49 49 47 47 47 46 45 46 46 44 44 45 45 44 43 42 41 41
54 50 45 47 53 54 56 50 49 41 36 40 40 45 54 63 62 55 51 50 52 52 51 51 51 49 48 47 46 46 47 45 45 46 45 44 44 43 43 43 42 41 40 40
52 42 34 39 43 45 43 49 50 49 38 37 37 44 51 50 53 54 53 52 52 51 51 51 50 49 48 47 46 46 46 45 45 45 44 43 42 42 42 41 40 40 39 38
53 43 38 40 47 50 41 44 46 45 38 41 42 49 47 48 50 51 53 52 52 50 50 50 50 50 49 49 47 47 47 47 45 44 43 42 41 41 42 41 39 38 37 36
50 37 42 44 48 50 46 44 44 42 46 42 48 49 55 52 52 54 53 52 50 48 48 48 48 49 50 49 48 48 48 47 46 43 42 42 41 42 41 38 36 35 34 35
45 36 40 36 45 45 42 45 46 45 46 48 50 50 62 59 58 56 55 51 49 48 48 48 49 48 48 49 48 47 47 45 45 42 41 42 40 38 35 33 31 31 30 30
38 35 33 32 39 39 31 39 44 46 48 49 44 51 50 51 49 51 51 49 48 49 49 48 47 47 48 51 47 47 46 45 41 38 36 35 36 33 32 31 30 29 29 29
36 33 34 33 32 27 42 51 48 47 49 50 47 39 44 46 47 48 52 49 47 47 49 49 48 49 47 48 47 47 44 41 37 35 34 33 32 31 30 28 27 28 28 26
40 35 32 30 30 38 44 37 41 40 43 51 48 42 41 40 42 43 47 47 47 48 49 48 49 50 49 45 45 40 37 37 35 34 33 32 32 30 28 26 26 27 26 25
32 37 33 29 29 28 42 42 44 46 35 40 43 39 36 38 35 44 44 43 46 48 45 44 44 42 42 42 40 34 33 33 33 34 34 33 31 29 27 26 25 26 25 24
28 29 29 31 30 33 37 37 43 32 36 35 41 40 39 40 46 44 44 43 43 42 39 39 40 40 41 39 33 32 32 31 34 32 31 30 30 27 27 25 25 23 21 21
32 29 29 31 28 27 39 36 37 39 37 37 41 41 40 40 40 40 42 40 40 38 37 38 38 38 39 33 32 31 31 33 30 29 27 26 24 25 24 21 20 19 18 17
29 36 32 33 32 33 39 36 38 38 36 38 40 40 41 40 39 40 39 38 38 38 38 37 35 34 35 31 31 31 33 29 25 24 22 21 21 22 20 18 18 16 16 17
32 36 32 32 29 30 33 34 36 38 39 40 41 40 40 39 39 38 37 37 36 33 32 30 30 29 28 28 28 29 27 25 22 22 20 19 17 18 17 19 19 18 19 18
33 33 30 29 31 32 32 36 37 39 39 39 40 40 39 39 38 38 34 33 33 32 29 28 28 28 28 28 28 26 24 22 22 21 19 20 19 17 17 18 19 19 20 21
34 33 31 30 34 35 36 40 40 37 37 38 36 34 34 36 36 34 32 33 32 31 28 26 25 25 25 25 24 23 21 20 21 20 20 21 20 18 19 19 18 23 24 23

GFSCGP_sfc_temp_042.txt.gz
Temp
59 51 48 55 58 60 57 53 51 55 57 54 54 55 60 58 56 55 55 54 53 52 51 51 51 51 52 55 54 53 52 53 54 53 53 51 48 47 46 48 48 49 49 50
51 47 58 62 61 57 56 52 50 56 57 52 53 53 59 58 57 58 59 54 53 49 48 50 49 49 50 54 55 55 55 54 56 54 52 48 45 45 46 45 47 47 47 46
51 56 61 59 55 54 53 50 50 51 52 51 47 46 53 59 60 59 59 57 55 49 47 47 48 47 48 48 52 54 54 51 50 49 50 49 46 44 42 42 43 44 46 45
54 61 56 55 53 55 48 56 55 52 46 39 48 35 48 55 57 56 57 53 51 50 50 48 48 46 46 46 47 48 49 49 49 49 47 46 43 41 40 40 41 42 42 42
51 51 50 50 53 57 50 54 51 48 44 40 41 39 45 54 54 55 54 50 50 50 49 48 46 47 45 45 44 45 47 48 48 48 47 45 42 41 40 40 39 39 39 40
52 53 53 53 52 53 54 50 47 44 42 31 42 42 41 51 54 55 52 51 50 49 48 47 45 44 42 42 43 43 44 45 46 46 45 43 42 41 39 38 37 37 37 37
48 49 52 53 47 49 50 44 33 29 27 29 42 39 46 53 53 55 52 51 50 49 48 45 42 41 41 41 41 42 42 43 44 44 44 43 42 41 39 38 37 36 35 34
41 39 49 52 52 46 44 46 33 27 27 30 34 32 43 48 49 51 55 53 52 49 48 44 42 43 42 41 40 41 41 42 42 42 42 42 42 40 39 39 37 36 34 34
46 44 51 51 53 54 44 39 50 36 26 26 36 41 50 45 43 44 47 49 49 48 47 44 44 43 41 40 40 41 41 41 41 41 40 41 41 40 38 38 37 35 35 37
52 43 47 45 50 49 46 49 36 35 22 23 34 38 42 39 43 42 45 47 48 48 47 45 44 43 42 41 41 41 41 40 40 40 40 40 39 38 38 37 35 34 33 34
52 45 38 44 41 42 40 39 42 43 35 27 27 37 50 50 49 44 46 48 48 47 47 46 45 45 44 42 41 41 41 40 39 39 39 37 36 37 37 35 34 33 33 33
52 46 33 38 46 47 47 44 44 33 32 35 31 40 49 48 50 48 47 48 48 48 47 47 46 45 42 42 41 41 40 39 38 38 37 36 37 36 34 34 34 32 31 32
50 40 31 33 38 41 40 44 47 47 35 37 30 37 45 45 46 47 46 46 48 47 47 47 46 44 43 42 41 41 40 39 38 38 36 35 34 33 33 32 32 32 31 30
53 42 38 37 40 43 35 40 44 44 35 35 39 43 40 43 43 45 45 46 46 47 46 46 45 44 43 43 41 41 40 40 38 38 35 34 33 33 33 32 31 31 30 29
50 38 42 45 48 44 39 38 42 40 43 38 43 44 51 48 45 48 47 46 46 46 45 45 45 44 44 42 41 41 41 40 39 37 34 34 33 33 32 30 30 29 29 29
44 37 41 39 41 41 39 42 41 42 43 45 46 44 52 54 52 46 47 46 45 45 46 46 46 44 43 43 42 42 41 39 38 36 35 34 33 33 31 29 28 28 28 27
38 35 33 33 38 37 32 37 41 43 45 45 39 47 51 50 47 46 46 46 45 45 46 45 45 45 45 44 44 42 42 37 36 33 31 31 32 32 28 28 27 26 24 25
36 34 34 33 33 26 37 46 46 44 46 48 46 38 39 45 47 46 46 46 45 45 44 45 44 44 44 43 43 41 37 36 34 33 31 31 31 28 26 26 25 23 23 23
43 35 33 31 32 38 39 34 36 37 40 48 47 46 40 39 41 40 43 46 45 45 46 46 46 47 45 42 42 39 36 34 34 32 31 32 30 27 26 25 23 23 22 20
33 39 34 30 29 28 30 33 37 43 34 41 45 44 36 39 38 38 41 42 43 45 42 40 40 40 40 37 37 35 32 32 33 32 32 30 29 28 26 25 21 20 18 21
29 32 30 32 30 31 30 31 37 31 31 29 34 35 37 40 41 41 39 40 38 37 37 36 36 37 35 33 32 31 29 31 32 28 28 27 27 28 26 21 18 19 16 19
29 28 28 30 29 28 33 33 34 34 31 31 34 35 36 36 36 35 36 35 35 33 34 34 34 34 33 30 31 29 29 30 27 27 26 24 22 23 21 19 14 16 15 12
29 33 31 33 32 32 33 33 35 36 34 36 36 35 36 34 34 33 32 33 33 33 33 33 32 31 31 27 28 28 26 26 24 23 20 16 17 18 17 17 14 11 11 12
29 33 30 30 29 30 32 34 35 35 35 36 37 35 35 34 33 32 32 32 32 28 28 25 26 25 24 21 24 22 24 22 20 17 16 15 16 14 13 15 15 14 12 11
30 32 28 24 28 29 32 32 34 36 35 35 34 34 35 34 33 33 30 29 29 28 25 24 26 24 23 21 20 18 20 21 19 17 16 15 14 13 11 13 14 15 12 15
31 31 28 27 32 33 34 36 36 35 35 34 33 31 32 33 33 32 29 29 28 27 23 22 21 20 18 18 17 17 18 19 18 16 15 14 13 11 11 10 8 23 23 25

GFSCGP_sfc_temp_045.txt.gz
Temp
52 46 43 48 51 51 48 45 45 49 54 51 49 49 53 54 51 50 48 49 49 49 47 48 49 48 48 49 50 51 51 51 52 52 50 48 47 47 46 46 45 46 47 47
48 43 52 55 53 52 50 46 46 50 53 50 49 48 53 52 53 55 54 52 51 45 45 46 46 46 47 48 52 52 52 54 54 54 51 49 47 45 43 44 44 44 44 44
44 51 56 54 51 50 48 46 44 48 48 47 44 42 48 54 54 55 57 56 53 47 45 44 45 44 45 47 52 53 53 53 52 51 49 47 45 42 42 40 41 41 43 42
48 56 53 51 49 51 44 51 51 49 43 37 44 36 44 49 51 51 56 51 51 46 46 46 45 43 43 45 50 52 51 50 50 50 47 45 43 40 37 38 38 39 40 40
47 49 48 50 51 53 47 50 48 45 41 36 38 35 42 49 50 55 54 54 50 48 47 45 45 45 43 43 42 47 48 45 46 47 46 43 40 40 39 38 37 37 38 38
49 50 51 51 48 51 51 47 45 42 39 29 39 38 38 48 52 57 52 49 47 46 46 46 44 43 41 40 40 41 43 44 44 44 43 42 40 38 37 36 36 36 36 36
45 46 48 51 47 49 48 42 31 28 26 30 39 36 46 49 53 54 52 46 46 46 44 43 41 41 39 39 39 40 41 41 42 43 41 41 40 40 39 37 36 35 35 33
41 37 46 49 49 46 42 43 32 26 25 28 34 31 42 51 53 48 52 51 47 45 45 43 41 41 40 40 38 40 41 40 40 41 40 41 40 40 40 38 37 35 34 33
40 40 47 48 52 54 41 39 48 35 21 24 33 39 46 45 45 44 45 47 46 45 43 41 40 40 40 39 39 41 40 39 41 41 40 40 39 39 39 36 35 34 33 35
50 39 43 44 51 47 45 47 35 32 22 21 30 33 40 41 45 43 43 44 43 44 42 41 41 41 40 41 40 40 41 41 40 39 40 40 38 38 37 36 34 34 32 32
50 45 35 42 39 41 41 38 40 41 32 27 27 36 45 48 49 44 44 45 46 44 42 42 42 41 40 40 40 40 39 38 38 39 37 37 36 36 36 34 33 32 31 31
52 44 30 37 42 45 42 42 40 35 31 30 29 41 47 45 45 46 45 46 47 47 44 43 42 41 40 40 39 39 39 38 38 38 37 35 36 34 34 33 32 31 31 31
49 40 32 32 37 39 39 42 48 43 31 35 29 39 44 42 43 44 42 43 45 45 42 43 42 41 41 40 40 40 39 38 37 37 35 34 34 33 33 32 31 30 29 29
53 41 42 39 40 41 36 40 42 44 35 35 39 44 41 42 45 43 42 43 44 45 44 43 42 42 42 41 40 40 39 38 37 36 35 34 33 33 32 31 30 30 29 28
50 38 39 45 43 42 38 39 41 40 43 38 44 44 50 51 46 46 44 42 43 43 43 43 43 43 42 41 40 40 39 38 38 36 34 34 33 32 30 30 29 28 28 29
46 37 40 38 42 40 38 39 41 43 44 45 46 45 50 52 48 44 45 44 43 44 44 45 45 43 42 41 41 40 40 38 38 37 34 34 32 32 30 30 29 29 28 27
40 39 35 33 39 37 32 39 42 42 44 44 39 47 48 50 51 45 43 44 45 46 45 45 44 43 43 43 42 41 40 38 36 34 33 32 33 32 31 30 29 28 27 25
35 37 35 33 34 27 38 45 47 45 46 47 45 48 41 47 51 47 45 45 45 46 45 45 45 45 42 42 42 42 39 36 35 34 32 32 33 32 29 28 28 27 25 24
44 37 32 31 32 36 39 34 37 38 40 49 47 49 50 41 38 40 43 45 47 45 47 46 45 46 44 42 42 39 36 36 35 34 32 32 33 31 29 28 27 26 24 21
39 43 35 31 30 28 34 34 35 42 36 42 46 47 47 40 38 47 41 41 42 45 43 43 42 42 43 42 41 37 35 34 33 34 34 33 32 31 29 29 25 21 22 23
33 34 32 33 32 32 31 31 36 33 34 27 31 40 36 41 47 42 40 40 39 38 38 38 40 42 41 37 36 35 33 32 34 31 30 29 30 29 28 25 21 19 19 20
31 31 30 32 30 29 35 35 35 34 32 30 33 33 35 35 33 34 35 35 35 35 35 35 35 34 32 33 35 31 32 32 27 27 27 26 25 26 23 22 16 17 18 19
29 32 30 33 33 35 36 36 36 36 32 35 35 33 35 34 33 33 32 33 34 34 32 32 33 31 29 27 31 30 27 25 24 23 22 21 18 20 19 18 17 16 17 18
30 34 31 32 31 30 32 34 34 36 35 36 36 35 35 34 33 32 32 32 31 29 28 25 27 26 23 20 23 21 23 22 21 19 16 15 18 15 14 19 18 17 15 14
32 33 29 28 29 30 33 33 34 36 37 37 35 34 35 34 33 32 30 29 29 28 24 25 25 23 22 19 17 15 18 19 19 16 16 15 14 14 12 13 12 14 11 14
30 30 30 29 33 34 35 38 36 34 35 35 34 33 32 34 32 31 29 29 28 27 21 21 18 20 16 17 14 14 16 20 19 17 15 14 13 10 11 10 9 22 22 25

GFSCGP_sfc_temp_048.txt.gz
Temp
49 45 43 47 49 48 46 43 43 46 53 49 47 48 53 51 48 47 47 47 47 48 47 46 47 46 45 45 46 47 48 51 52 51 49 49 46 46 46 47 47 45 45 45
45 42 51 51 50 49 46 43 42 47 51 49 47 46 50 49 50 53 53 51 50 45 44 45 44 44 44 45 46 46 48 51 53 53 49 48 46 45 45 45 43 42 43 42
44 50 53 52 47 46 45 42 41 46 45 45 41 40 46 52 51 52 55 57 54 49 46 44 44 44 44 44 44 47 48 51 51 50 48 45 45 45 43 41 39 39 41 40
45 52 51 47 47 49 41 49 48 46 41 36 41 34 42 47 49 50 55 53 53 49 47 46 45 43 44 44 45 47 48 48 50 50 47 46 42 40 38 37 37 37 38 38
46 47 47 46 48 51 46 49 46 43 38 34 36 33 39 44 45 50 57 53 51 48 47 45 46 47 45 44 44 45 47 49 49 49 48 45 40 39 37 36 35 34 35 36
47 49 51 51 49 52 50 46 42 38 37 29 39 37 36 44 51 52 56 56 50 47 46 47 46 45 42 41 41 47 48 47 47 47 45 44 39 37 36 34 34 32 33 33
43 45 48 50 47 47 47 43 30 28 26 30 36 33 45 48 51 55 58 53 46 46 45 43 41 42 42 40 40 43 47 44 44 44 41 40 40 39 37 36 35 33 33 31
40 36 46 49 50 45 42 42 32 25 24 28 33 30 40 48 54 49 48 48 43 42 44 43 43 43 42 41 40 42 44 43 40 40 39 39 39 39 38 37 35 34 33 33
39 40 44 46 49 54 42 38 47 35 18 23 33 38 45 46 47 47 47 43 40 41 42 42 42 42 41 40 40 41 40 40 40 40 39 38 39 37 36 34 33 33 32 34
47 36 40 41 47 44 44 47 35 31 22 20 29 31 39 40 45 49 48 41 40 40 39 40 40 40 41 41 40 40 41 40 40 39 40 39 39 37 36 35 33 33 31 32
49 43 34 40 39 40 39 38 38 39 32 26 22 34 42 49 48 48 48 44 41 40 40 40 40 40 40 39 38 38 38 37 37 39 39 37 35 36 36 35 33 32 32 31
48 44 29 36 40 40 38 39 38 31 29 29 28 39 47 46 47 47 48 45 42 43 41 41 40 38 37 37 38 38 38 38 38 38 37 37 36 35 33 33 32 31 31 31
48 40 28 31 36 37 37 41 47 40 32 31 30 39 42 42 44 46 46 43 41 41 40 39 38 37 37 38 38 38 38 38 36 36 36 34 33 33 33 32 31 31 30 30
52 41 38 36 37 41 34 37 40 44 37 37 39 45 41 45 45 47 44 41 40 41 41 40 39 39 40 39 38 38 38 38 36 36 35 34 33 34 33 32 31 31 31 30
49 38 39 46 43 43 40 38 41 40 44 39 46 43 51 51 48 49 47 42 40 40 40 40 40 40 40 39 39 40 39 38 37 36 34 34 33 33 32 31 31 30 30 31
45 39 42 39 44 40 37 39 42 43 44 45 46 46 51 51 47 44 46 42 41 41 42 42 42 41 40 40 40 40 39 37 37 36 34 34 33 32 31 31 30 30 29 28
44 39 36 33 40 35 31 39 40 42 46 44 39 48 47 50 50 47 45 44 44 44 45 43 43 42 42 42 42 40 39 38 35 34 33 32 33 32 32 31 30 29 28 28
35 38 38 34 35 27 40 48 49 45 45 46 46 48 42 48 52 51 46 44 45 47 45 44 44 44 43 43 42 41 37 35 35 34 33 32 32 32 30 29 29 29 28 27
44 38 33 31 32 37 39 35 39 39 42 50 48 50 51 51 38 46 45 48 50 47 46 46 45 46 44 41 40 38 35 35 35 33 33 33 33 31 29 29 29 29 27 25
41 42 34 31 29 28 36 36 40 42 37 46 47 48 48 43 37 48 48 41 42 43 41 40 40 40 41 40 39 36 34 34 34 34 34 34 33 32 30 31 30 28 27 27
33 35 32 32 31 33 32 31 38 34 37 27 31 35 36 39 46 39 38 37 37 37 37 37 41 41 40 39 37 35 34 33 36 35 33 31 32 32 32 31 28 24 24 22
32 32 33 33 31 29 36 34 37 37 32 32 32 35 36 36 34 33 33 34 35 35 34 35 35 33 34 35 36 34 33 33 30 30 30 30 30 31 30 28 20 20 20 19
29 34 32 33 33 36 35 37 37 36 35 37 36 35 34 33 32 32 32 32 33 33 33 33 34 32 30 30 32 30 28 27 27 28 27 26 25 24 24 22 18 15 17 19
30 33 33 33 33 34 33 35 35 36 36 36 36 35 35 34 32 30 31 31 31 27 28 27 30 27 24 21 25 25 25 24 26 24 21 19 21 17 17 19 19 19 18 18
32 33 31 30 32 31 34 33 36 35 35 35 34 34 35 34 32 31 28 27 27 26 24 26 28 27 23 22 21 19 21 22 21 18 16 16 16 16 14 13 14 15 10 16
31 31 31 31 36 37 36 36 35 35 36 36 36 33 31 33 32 30 28 27 27 26 22 24 21 23 19 20 18 17 17 21 20 17 16 15 16 12 12 12 8 22 22 25

GFSCGP_sfc_temp_051.txt.gz
Temp
48 45 42 46 47 45 44 40 41 44 49 47 46 47 52 50 45 45 46 46 47 48 50 46 46 45 45 45 45 45 47 50 50 47 49 49 46 47 46 47 47 48 47 44
45 42 50 50 47 46 42 40 40 45 48 47 45 45 49 47 48 51 51 51 50 50 44 46 44 43 44 45 45 45 46 49 50 52 49 48 47 44 45 45 45 46 44 42
43 48 50 50 45 44 42 41 40 43 43 42 40 40 45 52 49 51 52 56 55 53 49 47 44 43 43 44 44 45 46 50 52 49 47 45 45 44 43 43 43 42 41 40
44 49 48 45 44 47 40 46 46 43 40 35 40 33 41 45 49 49 55 52 54 53 49 48 46 43 44 45 44 46 46 46 47 49 47 46 42 40 42 42 41 39 38 38
45 45 45 43 45 48 44 46 44 41 36 34 35 33 38 41 44 51 55 55 55 51 49 47 47 47 46 44 44 45 45 45 47 49 48 47 44 38 38 39 39 34 34 35
45 47 48 48 47 49 48 44 41 36 35 28 40 37 36 42 48 50 56 58 52 48 46 47 47 46 44 43 44 44 45 45 47 48 47 45 42 38 36 35 34 33 32 33
41 44 45 49 45 45 45 42 30 28 25 30 34 32 47 47 50 53 57 54 47 45 42 41 41 42 42 42 43 44 45 43 47 47 46 44 43 42 38 37 36 34 32 30
39 37 45 48 49 45 43 42 31 24 23 28 32 30 39 46 52 50 49 49 44 41 41 42 43 43 42 42 42 44 44 43 44 45 44 44 43 42 40 38 36 35 34 32
37 38 43 45 48 53 41 37 45 36 18 23 33 37 44 46 46 46 48 45 42 43 40 40 41 42 42 42 42 44 43 42 42 44 43 41 42 40 37 34 34 33 31 33
46 36 39 41 47 43 44 47 36 32 22 18 29 31 38 43 45 50 49 49 41 41 38 38 39 41 42 43 42 41 42 41 40 41 42 40 39 37 35 35 33 32 31 32
46 41 33 38 38 39 38 37 37 37 31 26 21 34 41 49 48 49 50 47 45 41 38 37 38 38 39 40 39 38 38 37 37 38 39 37 35 35 35 34 32 32 32 31
47 42 30 35 38 39 39 38 38 30 28 28 27 39 44 47 48 47 49 49 42 41 39 38 37 37 36 37 37 38 38 38 38 38 37 36 35 34 33 33 32 32 32 32
47 38 25 31 34 36 34 38 43 37 30 31 27 39 41 39 42 46 48 44 42 40 38 37 35 36 36 36 37 38 38 37 36 36 36 34 33 33 33 32 32 32 31 31
50 41 35 35 35 38 33 36 40 43 34 36 38 44 41 44 43 46 47 45 41 39 38 37 36 37 37 38 38 38 37 38 35 35 35 33 33 34 34 33 32 32 32 31
47 34 37 42 42 39 36 36 39 39 43 37 44 44 51 51 47 50 49 45 41 39 38 38 38 37 37 37 38 38 38 36 36 36 34 34 34 35 34 32 32 32 31 32
44 34 38 36 41 38 36 37 40 41 44 44 45 45 51 49 46 44 48 46 43 41 41 40 40 39 38 39 38 39 38 37 37 36 35 36 34 33 32 31 31 31 30 29
39 36 34 32 37 37 31 38 41 40 45 45 38 48 49 52 51 53 50 44 44 45 45 42 41 41 41 41 40 39 39 37 35 35 34 33 33 32 31 31 30 30 29 29
36 36 35 33 34 27 41 48 48 46 47 47 47 50 50 50 52 48 46 47 46 47 45 43 42 42 42 41 40 40 37 35 35 34 32 32 33 32 31 30 30 29 29 28
43 39 34 32 32 38 39 40 40 38 42 51 48 50 52 51 40 49 46 49 51 46 48 48 46 44 42 40 40 37 34 34 34 33 33 33 33 31 30 29 28 28 27 26
42 43 35 31 29 28 42 43 42 44 37 50 49 50 49 46 39 50 46 42 43 45 42 41 38 38 39 39 37 34 33 33 33 34 34 34 33 32 30 30 28 28 28 28
34 35 33 33 31 33 35 31 36 34 37 31 39 44 41 42 47 39 39 40 37 37 36 35 37 38 37 36 34 33 32 32 35 35 34 33 33 32 32 30 29 28 27 27
33 32 33 33 31 29 32 33 36 39 31 30 33 35 36 37 38 36 35 35 33 33 33 33 33 32 32 32 34 32 32 32 32 33 32 32 32 32 31 31 29 28 27 25
30 34 33 34 35 37 36 34 36 36 32 33 34 36 36 36 34 33 33 31 32 32 32 31 30 29 29 30 33 32 29 31 31 31 31 31 31 31 30 30 26 24 24 23
29 32 30 34 35 35 36 36 35 36 36 37 37 34 34 35 32 31 31 30 30 25 26 25 28 26 25 27 30 31 29 29 30 29 27 25 26 23 24 25 24 23 21 21
30 32 32 32 33 34 37 35 37 37 38 36 36 35 34 34 32 31 28 25 25 24 23 25 28 25 23 24 23 24 24 26 25 23 21 21 22 21 19 18 20 21 15 21
30 30 32 33 35 36 37 36 36 35 35 36 36 33 32 33 33 29 27 26 25 25 22 24 23 24 20 21 19 19 19 23 23 19 19 19 19 17 17 16 12 24 23 27

GFSCGP_sfc_temp_054.txt.gz
Temp
46 44 41 46 45 43 42 38 38 42 47 45 44 44 49 50 44 46 46 46 48 50 55 48 47 45 44 44 44 45 48 50 50 49 49 48 47 47 46 47 48 49 48 48
43 40 49 49 46 44 41 38 39 43 45 44 44 44 49 48 48 49 53 51 50 51 46 46 45 43 44 45 45 44 48 48 51 48 49 45 47 45 45 45 45 46 46 46
41 46 48 49 42 42 40 39 38 42 42 41 38 38 43 48 47 49 50 54 53 54 53 47 44 44 44 44 44 45 46 50 51 48 46 43 45 45 44 43 43 43 44 43
43 47 47 43 42 46 38 44 43 41 38 33 37 31 38 46 48 48 54 50 52 54 52 48 46 44 44 45 45 45 45 47 49 48 44 45 42 42 41 43 42 41 42 41
44 43 43 42 44 47 43 44 42 39 36 32 31 32 37 39 44 50 55 56 53 53 49 49 48 49 47 45 44 45 45 45 45 46 47 48 46 40 39 41 40 39 39 38
42 44 47 47 45 47 46 43 40 35 34 29 36 36 41 41 47 49 54 56 54 49 47 46 45 45 44 43 44 44 44 44 44 45 45 47 43 40 40 39 39 38 37 33
40 42 43 47 43 43 42 41 31 28 24 29 32 33 48 45 50 51 55 55 49 46 44 42 41 41 41 41 43 44 43 43 45 44 44 44 44 43 42 41 40 37 35 31
38 37 43 47 47 43 40 42 31 24 22 28 30 29 39 46 49 49 48 49 44 44 44 41 40 41 41 42 43 44 43 44 45 44 42 42 44 44 43 42 41 40 38 34
35 36 41 43 45 51 40 37 43 35 17 23 34 36 44 45 46 46 46 45 45 43 44 41 39 39 40 41 42 44 43 44 44 44 42 43 44 43 42 40 40 38 32 34
43 35 37 40 44 42 43 45 34 31 23 17 29 31 38 44 46 49 47 49 45 43 42 39 38 38 39 41 42 43 43 42 43 43 42 43 43 42 41 39 37 35 31 33
47 41 33 36 37 38 39 37 36 37 32 24 21 36 40 49 50 49 50 47 46 44 43 39 37 37 38 39 40 41 40 38 38 40 40 40 39 40 39 38 36 33 32 31
45 41 36 37 36 37 36 38 38 30 27 27 27 40 44 45 44 46 50 47 42 42 42 39 36 36 35 36 36 37 39 38 39 39 38 39 39 38 37 37 35 32 32 31
46 37 27 32 33 33 34 37 41 35 29 30 26 40 42 40 43 44 46 46 45 41 38 37 34 34 35 36 36 37 38 38 37 36 36 36 37 36 37 35 32 32 31 31
50 38 33 33 34 36 31 34 39 42 33 38 35 43 45 42 45 45 46 45 44 42 40 37 35 34 35 36 37 38 38 39 36 36 35 35 36 37 36 35 33 32 32 31
46 33 37 40 39 36 36 35 37 39 43 35 44 43 50 52 49 50 49 46 46 43 40 38 37 36 36 36 37 38 38 37 36 35 34 35 35 36 35 32 32 32 32 32
43 34 36 35 39 36 34 36 38 40 42 43 44 44 54 51 48 45 48 51 46 43 43 42 40 37 37 37 38 38 38 36 36 35 34 35 33 33 32 32 32 32 31 30
39 35 33 32 36 34 30 36 40 41 43 43 38 47 50 52 51 52 53 46 48 46 46 46 42 41 40 40 40 38 38 36 35 34 33 32 32 32 32 32 31 31 30 31
36 34 34 32 32 26 38 43 45 43 45 47 47 49 52 52 53 48 50 49 47 49 48 45 44 44 43 41 40 39 37 34 34 33 32 32 32 32 31 31 31 31 30 30
43 37 33 31 32 36 37 39 37 36 40 48 47 49 51 53 41 50 48 47 52 48 48 48 48 44 41 39 39 36 34 33 33 33 32 32 33 32 31 30 30 30 28 28
40 41 34 32 29 26 40 45 43 43 35 48 48 49 49 46 39 49 44 40 43 43 41 41 40 38 38 36 36 34 32 32 32 33 32 33 33 32 31 31 29 28 28 28
33 34 32 33 31 32 34 32 40 33 35 31 37 46 44 42 47 39 38 40 37 37 37 36 35 36 34 34 33 32 31 30 31 31 31 32 32 31 32 30 30 28 27 26
32 31 32 33 30 29 35 33 36 36 31 30 32 33 36 38 38 37 36 35 35 35 34 32 32 31 30 31 32 28 28 29 29 29 29 29 30 31 30 29 28 28 27 27
30 33 32 34 34 38 35 39 39 37 37 36 37 38 36 33 35 35 34 33 32 32 31 30 28 28 28 25 29 28 25 28 28 30 30 31 31 30 31 30 29 28 28 28
30 34 32 34 36 38 35 36 35 36 36 36 35 35 36 36 35 33 33 32 31 24 24 23 25 24 22 24 28 28 31 32 33 31 30 30 30 30 31 31 30 30 27 26
32 31 31 32 34 33 36 35 37 36 35 36 36 36 36 34 34 34 30 26 25 24 23 23 24 24 22 25 27 29 29 32 29 27 25 26 27 28 26 25 26 26 24 28
31 31 32 31 36 35 35 33 34 35 35 36 35 33 32 33 33 30 28 27 26 25 23 25 24 24 22 22 21 21 23 25 25 22 22 23 22 21 21 20 17 26 26 30

GFSCGP_sfc_temp_057.txt.gz
Temp
46 45 43 47 45 44 43 41 41 43 47 46 45 46 49 53 48 48 51 52 52 52 59 55 53 52 49 49 49 50 50 51 52 52 50 50 51 50 49 49 50 50 51 51
43 41 48 48 46 45 42 40 41 44 45 46 44 45 51 50 54 55 57 56 55 57 53 51 51 49 49 50 49 49 50 51 52 54 51 52 50 48 49 47 48 48 48 49
41 46 47 48 42 42 40 40 40 43 42 42 40 40 44 49 49 52 52 57 56 57 59 55 48 49 49 48 48 49 49 50 52 53 47 47 47 46 45 46 45 46 47 47
42 47 46 42 41 45 38 44 43 41 40 35 40 33 41 46 49 49 53 53 55 57 56 53 49 49 48 49 49 50 49 50 50 49 49 49 47 45 46 47 46 44 45 44
43 42 42 42 44 45 42 43 42 39 37 35 35 34 40 41 45 49 56 57 56 55 53 53 49 51 51 49 47 49 48 49 50 49 50 50 47 46 46 45 43 42 42 42
42 43 45 46 44 45 44 42 39 35 35 29 36 38 42 41 47 51 53 56 55 53 51 50 49 47 47 46 46 47 47 47 48 49 50 50 49 43 43 42 41 41 40 39
39 41 42 46 42 43 41 40 31 28 25 30 33 34 49 47 50 51 56 59 53 51 50 49 46 44 43 43 44 46 46 45 46 49 49 49 47 46 45 43 42 39 38 38
36 34 42 46 47 42 39 41 32 24 23 29 31 30 40 47 49 49 50 50 47 48 49 48 46 44 42 42 43 45 46 45 45 46 46 46 46 47 46 46 44 42 41 40
34 35 40 42 44 50 39 36 44 36 17 24 33 37 46 46 47 47 48 47 46 47 47 47 45 43 41 42 43 45 46 45 45 46 45 45 45 45 45 45 43 42 42 39
42 35 38 39 43 41 43 45 35 31 23 18 31 32 40 44 49 50 49 49 49 47 47 45 43 41 41 42 43 44 45 45 45 46 46 45 45 44 44 43 41 39 38 38
46 40 33 36 37 37 38 37 36 37 32 25 22 35 41 48 50 49 50 49 49 49 47 46 43 41 40 40 41 43 43 43 42 44 44 42 42 42 42 41 40 38 37 37
45 42 34 35 37 37 34 37 40 32 27 26 27 40 44 46 49 47 48 48 48 46 47 44 42 39 38 39 39 41 42 40 42 43 43 42 42 41 40 40 38 37 37 37
45 37 24 32 34 33 33 36 39 35 29 28 28 39 43 42 45 45 46 46 47 46 44 42 39 38 37 38 38 39 40 40 40 40 41 41 40 39 39 38 37 37 36 35
49 38 34 34 34 36 31 34 40 42 33 38 34 43 50 45 46 47 48 47 47 46 44 42 39 38 38 38 38 38 39 40 38 39 39 38 39 39 39 38 36 36 35 34
45 34 36 39 38 36 36 35 38 39 42 37 42 43 50 52 52 55 55 48 48 48 44 42 42 41 38 37 37 38 39 39 38 37 37 37 37 39 38 36 35 35 35 35
42 33 36 34 37 38 35 36 37 40 42 43 45 44 56 57 49 47 50 53 53 49 48 46 45 41 39 39 39 39 39 38 38 37 37 37 36 36 35 34 34 33 33 33
38 34 33 31 37 35 30 35 39 40 42 42 37 46 53 51 52 49 49 48 50 51 51 53 47 45 43 42 42 39 39 38 36 36 35 34 34 34 34 33 32 32 32 32
34 32 33 32 31 25 38 43 44 42 44 45 46 49 51 52 52 49 52 50 50 50 50 49 50 47 45 43 40 40 37 36 35 35 34 33 33 33 32 32 32 32 32 31
39 34 31 29 30 34 35 38 36 36 39 47 46 48 51 52 40 48 53 47 52 53 49 47 46 45 44 41 39 36 34 34 33 34 33 33 33 32 31 30 31 32 31 31
38 40 34 30 26 25 34 41 42 42 34 44 46 47 48 44 37 47 41 40 42 42 40 40 39 39 40 38 35 34 33 32 32 34 33 33 33 31 30 31 30 31 31 30
30 32 31 32 29 33 36 34 38 32 34 31 33 43 38 40 46 42 38 40 37 36 37 36 35 37 36 34 32 31 30 30 31 31 31 31 32 30 31 31 30 29 28 27
29 27 30 31 29 27 36 34 36 41 33 31 35 38 38 39 40 38 37 36 36 34 33 33 33 32 31 30 30 28 28 28 28 29 28 28 28 30 30 29 28 29 28 26
28 34 32 33 32 37 37 38 41 40 39 36 37 38 36 36 36 37 37 34 33 32 32 29 28 28 27 25 27 27 25 27 27 27 26 27 29 30 30 29 28 28 28 27
32 34 32 32 31 35 42 39 37 37 37 37 39 36 35 36 35 35 34 33 32 26 25 23 25 25 23 23 25 25 25 27 28 28 29 29 29 29 30 30 30 29 28 27
29 30 30 30 35 35 39 36 37 38 37 37 36 35 36 36 35 33 31 26 26 24 24 23 24 24 23 24 25 27 31 32 31 30 29 29 30 30 29 29 30 30 31 32
30 30 28 30 35 35 37 34 34 34 36 36 34 33 35 35 35 30 26 26 26 26 23 24 22 24 24 24 23 25 28 30 28 26 26 27 28 27 25 25 22 29 29 33

GFSCGP_sfc_temp_060.txt.gz
Temp
58 61 57 64 63 60 59 57 57 60 59 57 60 62 66 70 69 67 69 72 73 73 77 76 73 70 67 67 66 65 64 65 65 63 62 61 55 55 57 58 57 57 57 57
58 55 64 59 58 57 56 56 57 59 55 56 59 58 65 67 67 71 72 73 74 75 76 74 71 68 66 65 64 64 64 64 64 65 64 64 60 55 58 55 54 54 54 54
58 60 58 57 54 53 55 54 56 55 54 55 54 57 63 67 65 66 69 72 74 75 75 77 69 67 66 65 64 63 63 64 63 64 63 57 52 51 51 51 50 49 51 49
56 58 54 53 53 57 53 57 55 52 52 50 53 50 61 66 66 65 70 72 73 72 73 73 73 66 65 65 65 64 63 63 63 63 59 58 53 51 54 53 50 49 49 48
55 50 50 51 55 56 54 53 53 51 51 47 51 46 58 56 60 65 69 71 74 74 73 71 69 67 68 64 63 62 62 61 61 61 61 60 58 58 55 52 48 47 47 47
53 53 55 56 51 55 52 51 50 49 49 42 53 49 56 64 63 66 68 71 72 73 70 68 68 64 64 63 60 60 60 59 60 59 60 59 58 58 56 50 47 46 47 45
49 50 52 53 50 51 52 52 44 40 37 41 45 44 55 63 64 64 68 71 70 67 68 67 65 61 60 58 57 58 58 57 59 58 59 59 59 56 56 55 52 48 47 47
45 43 50 54 56 52 49 53 45 35 36 46 38 41 55 61 64 61 64 66 66 63 65 66 66 63 59 56 56 56 56 56 58 57 58 58 59 57 58 56 56 53 51 48
45 44 49 50 54 58 48 43 55 45 32 37 49 55 62 59 60 62 61 64 64 64 64 64 65 62 59 56 55 55 55 55 56 56 57 57 57 56 55 53 55 52 50 46
52 44 46 48 53 51 52 55 43 44 33 33 47 48 51 58 64 65 61 63 65 65 65 65 63 60 57 56 55 55 55 54 55 55 56 54 54 54 51 50 50 49 48 46
56 47 43 46 46 47 47 46 46 47 43 38 38 49 65 63 65 61 63 60 63 63 62 63 61 58 56 54 53 54 54 53 52 52 54 53 52 51 50 50 51 48 46 41
53 47 41 46 50 51 54 52 51 42 36 41 41 46 58 62 62 58 60 59 61 61 61 60 59 56 54 52 52 52 53 52 52 52 53 51 52 51 49 48 50 47 44 41
51 41 33 39 43 43 43 48 50 51 38 37 36 44 59 58 59 59 58 61 61 59 60 60 57 57 56 55 53 52 52 51 50 51 51 50 50 48 48 47 48 45 43 40
48 42 38 38 46 47 39 44 47 47 38 41 43 49 58 60 59 61 61 62 62 61 60 62 60 60 58 56 54 52 52 52 49 49 49 48 48 47 46 45 44 42 41 39
45 34 40 44 47 46 44 44 45 43 47 42 47 49 55 60 61 64 65 65 65 62 61 59 58 58 60 55 52 51 52 50 49 47 47 48 47 47 45 42 40 39 38 38
43 33 36 34 42 42 40 44 44 45 47 49 50 50 61 63 64 62 61 61 61 63 65 66 59 56 55 56 53 52 51 49 48 46 45 47 46 43 40 39 38 36 36 36
37 34 32 30 39 37 31 37 42 45 49 50 44 52 58 58 59 60 61 61 59 62 64 64 62 61 58 58 55 52 52 50 44 42 41 40 40 38 38 37 36 34 35 35
34 33 32 31 32 25 40 51 50 46 49 52 50 53 56 57 60 59 61 60 60 61 59 61 62 62 61 56 54 53 47 44 40 38 37 37 37 36 37 36 35 34 34 33
40 34 30 28 29 36 41 45 44 42 43 52 51 54 56 58 56 57 61 62 60 61 61 58 58 55 55 53 51 44 40 40 38 38 37 37 36 35 35 34 34 34 33 32
41 41 33 31 25 24 42 51 48 49 35 51 52 51 52 54 45 53 58 52 54 53 50 49 48 47 47 49 45 39 38 37 36 38 38 38 36 34 33 34 34 34 33 32
30 30 27 28 27 33 43 49 47 32 37 38 45 51 50 48 53 58 49 50 48 45 43 44 44 45 44 43 38 37 36 35 37 36 35 34 35 33 34 34 34 33 31 30
31 30 29 30 28 26 41 41 39 39 40 40 44 46 45 46 45 45 46 45 45 43 41 41 41 41 39 36 36 34 34 34 34 33 33 33 33 33 33 32 32 32 29 28
28 36 33 35 36 40 42 41 44 41 38 41 43 47 45 43 44 45 44 43 41 39 38 35 34 33 33 32 34 33 32 32 30 30 29 30 32 32 32 31 30 30 30 29
33 39 33 31 38 41 42 45 45 42 41 44 44 41 40 41 44 43 41 40 38 33 32 30 31 30 29 30 30 30 30 30 29 29 29 30 30 31 31 32 32 31 31 29
36 36 34 33 39 43 44 43 42 41 42 40 40 40 40 41 41 42 38 34 32 31 30 30 29 28 27 29 30 31 31 32 31 30 29 30 31 31 31 31 31 31 32 33
37 35 32 31 41 40 42 43 40 38 39 39 38 38 38 37 37 35 32 32 31 30 29 28 27 26 26 26 26 28 32 32 31 29 30 31 31 31 30 29 27 33 33 34

GFSCGP_sfc_temp_063.txt.gz
Temp
65 63 59 65 68 68 64 62 61 67 65 60 63 65 70 75 76 75 76 76 78 80 84 83 82 79 76 75 74 74 72 70 71 69 67 68 65 63 63 65 64 64 64 63
60 57 67 65 65 62 62 60 60 66 63 58 63 63 69 72 73 75 76 77 79 81 82 83 81 79 74 73 72 72 71 70 70 70 69 69 68 65 62 60 60 60 58 60
59 62 64 61 59 58 60 59 60 60 60 61 58 59 66 74 75 75 76 78 78 80 81 83 80 77 74 71 70 70 70 70 70 69 69 68 67 62 57 55 55 54 55 56
60 65 58 57 57 61 55 66 61 59 55 52 60 51 64 70 72 75 76 76 78 79 80 80 81 77 73 71 71 70 70 69 69 68 67 64 59 57 59 59 55 52 52 52
58 55 54 54 58 62 58 58 58 56 53 53 54 49 60 69 67 70 75 77 79 80 81 80 78 76 76 71 69 69 69 68 68 67 67 64 60 63 63 60 54 53 50 50
58 58 60 60 56 60 59 56 55 54 53 44 54 53 57 65 69 74 76 77 78 79 78 77 76 75 73 71 68 66 67 66 67 66 65 63 61 63 61 57 55 52 49 46
55 54 57 57 52 55 57 54 45 43 40 42 53 51 58 67 71 72 73 74 77 75 74 74 71 67 67 66 64 64 64 64 65 64 64 63 63 63 61 57 55 51 47 44
48 45 53 56 57 54 51 55 46 36 40 46 44 43 57 69 72 69 69 71 71 72 71 70 72 70 66 63 62 62 62 62 64 63 62 62 63 63 63 61 57 52 50 48
51 48 57 57 60 62 52 46 58 46 39 39 49 57 66 68 64 67 70 71 71 72 71 68 69 71 68 63 61 61 61 61 62 62 62 61 62 61 61 60 60 56 53 51
56 46 51 52 55 56 54 59 44 46 34 33 46 50 53 61 66 69 69 69 71 71 69 70 69 68 65 64 62 61 61 60 60 61 61 60 60 60 61 59 57 57 56 51
57 51 45 50 49 51 49 48 49 51 47 38 38 48 66 66 67 66 67 66 67 68 67 67 69 66 63 61 60 60 59 59 58 59 58 58 58 58 58 57 56 53 51 47
56 51 43 48 57 57 58 53 52 42 40 45 42 45 67 67 66 65 64 67 67 66 67 66 65 64 61 59 58 58 58 57 57 58 57 56 57 55 55 54 53 51 48 45
53 42 33 39 48 49 47 53 53 53 44 37 36 44 65 68 67 66 64 67 67 66 66 67 65 64 64 63 60 58 57 57 56 56 55 55 54 54 53 52 51 49 45 43
48 38 39 38 47 51 43 47 51 49 39 41 43 49 58 62 64 67 67 64 67 69 66 69 67 69 67 65 64 61 59 58 55 54 53 52 52 52 52 52 50 46 44 42
42 33 37 42 46 46 45 46 47 46 49 43 47 49 56 60 63 66 69 69 68 68 68 67 64 65 68 67 62 60 60 58 56 53 51 51 51 52 51 48 47 44 43 42
40 32 35 32 40 41 36 41 45 47 48 48 50 50 62 65 66 65 65 66 65 66 66 67 68 64 62 65 64 60 59 57 54 52 49 51 48 46 44 43 41 39 39 38
39 35 32 29 39 39 31 37 42 45 49 49 43 52 59 59 61 62 64 64 64 65 66 66 66 66 65 63 61 61 59 55 49 46 43 41 42 41 41 40 38 37 36 36
35 33 32 28 32 23 41 53 52 48 50 52 51 53 56 58 61 61 64 63 63 64 64 65 65 66 66 63 59 59 52 49 44 42 39 39 39 38 38 37 36 36 36 34
44 37 30 25 27 35 41 47 46 44 45 55 53 55 57 59 59 60 65 65 64 64 64 61 57 55 56 55 54 47 43 43 41 40 39 38 38 36 36 35 35 35 34 33
43 43 33 30 24 22 40 49 54 53 35 48 44 45 45 52 47 55 59 56 56 57 54 50 49 50 51 52 48 41 40 39 38 38 38 38 36 35 35 35 34 34 34 33
31 31 27 27 25 31 43 48 52 31 35 37 41 43 41 41 47 51 52 53 52 47 45 46 47 48 47 44 37 37 38 36 37 36 36 35 35 34 35 34 34 33 32 30
31 29 29 31 26 24 43 45 38 39 41 42 43 44 43 45 46 47 50 47 46 45 43 42 40 42 42 37 35 35 35 34 33 33 33 32 32 33 33 32 32 32 30 29
27 35 32 34 35 45 46 44 46 41 39 41 40 43 42 42 44 45 46 47 44 43 41 37 34 33 34 32 33 33 32 32 31 30 29 31 31 32 32 31 30 30 30 28
37 43 34 34 39 42 45 48 49 49 44 47 46 45 44 42 44 42 42 42 43 36 34 32 32 31 30 30 30 31 30 30 29 29 29 30 30 31 31 32 32 30 30 29
37 38 34 33 39 42 44 46 46 46 45 44 45 44 42 40 41 43 41 37 36 34 32 31 31 30 29 30 30 30 30 30 30 30 29 31 31 31 31 31 32 32 32 32
38 35 32 30 41 41 41 45 45 40 42 43 41 39 39 38 38 38 36 35 33 32 31 29 28 28 27 27 26 28 31 32 30 28 28 30 31 31 31 30 30 33 33 33

GFSCGP_sfc_temp_066.txt.gz
Temp
57 51 48 55 58 59 54 52 51 54 56 52 52 54 59 64 63 61 62 62 64 66 70 71 69 68 66 65 67 68 66 65 65 62 61 58 59 58 59 61 63 63 63 63
52 47 59 61 59 56 52 49 50 56 56 51 52 52 58 61 63 64 63 63 65 66 68 70 68 65 65 67 64 64 66 65 64 64 62 59 58 55 58 57 59 61 61 62
50 54 60 58 53 52 51 49 50 51 52 52 46 46 52 60 64 65 65 67 66 66 66 67 67 64 63 62 63 64 65 65 64 63 61 57 56 54 52 55 57 56 57 59
52 58 56 52 52 54 47 53 55 51 46 39 49 35 50 58 61 62 62 61 62 64 66 67 67 62 63 64 64 63 61 61 63 62 60 59 58 55 53 54 55 56 54 55
50 51 49 49 52 56 49 53 52 48 43 40 42 36 46 54 53 59 63 65 64 65 65 65 66 66 63 60 58 59 59 60 61 62 61 59 57 53 50 51 51 51 50 52
50 53 52 53 52 53 55 50 48 45 43 32 44 42 42 51 54 57 61 61 62 63 61 63 63 62 60 57 56 56 57 59 60 60 60 58 56 51 50 50 49 49 48 48
48 49 51 53 47 50 49 46 33 30 28 30 43 40 48 56 60 56 59 60 60 57 58 60 57 58 56 56 54 54 55 55 56 56 56 56 53 52 51 51 51 46 44 45
42 38 47 51 50 45 44 45 33 26 27 31 36 35 43 56 57 58 57 59 59 56 59 59 59 57 55 55 53 53 53 54 55 55 54 54 54 55 55 52 51 50 48 48
43 44 50 52 52 53 45 40 49 37 26 27 37 46 57 57 56 58 60 59 58 59 59 58 58 58 55 53 52 52 52 53 54 54 53 53 52 54 55 52 52 50 47 47
49 40 46 47 49 50 47 51 37 37 24 22 35 38 44 51 56 59 54 54 56 57 58 57 58 57 54 52 52 52 52 51 52 52 52 52 52 52 52 51 50 48 47 45
50 45 37 44 42 44 42 41 43 44 37 27 26 36 53 53 54 54 53 56 57 55 56 56 55 54 53 52 50 50 50 51 50 51 51 50 49 50 50 50 49 48 46 44
49 45 33 40 46 48 47 46 46 32 32 33 32 39 57 54 54 55 53 56 53 56 56 55 54 53 51 50 50 49 49 49 49 50 49 49 49 49 48 48 48 46 43 39
46 39 26 33 40 43 40 46 47 46 35 34 27 37 55 52 54 56 54 57 57 56 55 57 54 53 53 52 50 49 49 48 48 49 47 47 47 47 46 46 46 43 40 37
48 39 34 31 38 43 36 41 45 45 35 36 37 43 51 54 54 58 58 56 55 57 57 56 56 56 55 54 53 51 50 49 48 47 46 45 45 47 46 45 44 41 39 37
44 33 36 38 40 40 38 37 39 37 39 38 41 42 49 54 55 55 57 58 57 58 59 58 56 55 55 56 53 52 51 49 48 46 46 47 45 45 45 42 40 38 36 37
40 32 33 28 36 38 34 37 39 40 41 42 43 43 55 57 58 57 58 58 58 56 58 58 58 57 56 55 55 53 51 49 47 47 46 47 42 40 40 39 38 36 35 34
37 33 30 22 31 30 28 34 38 41 43 43 38 46 53 52 54 55 56 55 57 58 60 57 57 57 56 54 54 52 51 48 43 41 38 37 37 36 37 37 35 34 33 32
31 32 28 23 23 18 35 44 44 42 45 46 47 49 50 52 53 54 54 53 55 57 57 57 53 50 50 49 48 48 43 42 41 38 34 33 34 35 33 33 33 32 31 31
39 32 19 20 20 28 34 40 39 37 40 47 44 43 43 44 44 49 46 49 49 49 48 47 45 45 45 45 44 39 38 38 38 37 35 32 33 32 31 31 30 28 29 28
38 38 30 16 13 8 33 40 44 45 30 39 40 39 39 40 34 42 46 46 47 48 45 42 41 42 43 41 38 35 35 34 35 35 35 34 32 32 31 30 29 27 26 28
27 24 25 24 23 26 35 42 42 25 28 31 35 39 38 37 41 44 45 45 45 42 42 41 39 39 40 37 33 33 34 33 33 31 30 30 30 28 28 27 26 26 27 29
23 18 20 22 22 20 40 37 31 36 38 38 38 42 40 41 42 42 43 40 40 40 39 34 34 34 36 31 30 30 30 30 28 28 28 27 25 28 26 25 23 30 29 28
22 29 19 25 24 37 38 36 40 41 37 36 38 39 39 37 38 41 42 43 41 40 39 35 28 29 31 27 26 26 27 26 25 24 23 23 25 25 25 24 24 27 28 27
28 35 26 27 33 36 38 39 41 39 37 40 40 39 37 37 38 38 39 40 40 36 34 30 30 29 27 27 26 24 24 24 22 21 21 21 23 24 23 26 26 25 22 24
27 30 26 26 31 33 36 38 39 40 40 38 39 37 37 35 36 34 35 35 35 33 28 28 27 27 25 25 24 24 25 25 23 25 24 22 22 22 22 23 23 25 24 27
31 30 27 26 33 34 36 37 38 38 36 37 36 39 40 35 34 32 32 31 29 28 25 25 24 23 22 22 19 22 26 27 27 26 27 28 27 26 26 25 27 34 32 33

GFSCGP_sfc_temp_069.txt.gz
Temp
53 47 43 48 50 52 49 45 43 47 53 50 49 48 53 57 55 54 54 55 57 60 66 64 66 66 62 64 62 65 64 63 65 63 61 60 63 62 60 62 64 65 65 64
47 43 52 55 54 52 48 44 43 48 51 48 48 49 53 54 58 60 61 56 57 57 61 64 62 61 61 65 65 64 65 63 65 67 66 65 60 56 59 57 59 65 65 64
44 50 56 55 49 50 46 44 43 46 47 47 43 42 47 54 54 58 58 59 59 61 61 61 62 59 62 62 61 65 65 63 65 64 58 55 54 53 54 54 55 58 61 63
47 53 53 48 49 51 44 48 50 48 42 37 44 33 42 53 57 56 59 57 58 58 59 60 62 58 57 63 64 66 63 61 63 60 59 60 60 58 60 61 58 53 56 59
46 47 47 45 49 52 47 50 48 45 40 36 36 33 41 46 48 54 57 58 58 58 58 60 61 61 58 59 57 56 56 58 59 60 60 59 59 58 48 49 50 51 50 54
47 50 49 50 48 50 52 48 47 42 39 30 39 39 36 46 51 51 54 56 57 58 57 58 57 58 56 53 52 52 54 55 56 59 58 57 57 49 48 47 49 49 48 50
44 45 47 50 46 49 47 43 31 29 26 29 37 34 43 51 55 55 55 54 54 57 57 59 58 58 54 52 51 51 53 53 52 54 56 52 53 51 51 49 49 48 50 50
38 36 45 49 48 44 43 43 32 25 25 29 35 33 45 52 56 55 55 57 54 52 53 54 55 55 54 52 51 50 51 51 51 51 52 53 52 54 54 51 51 50 49 50
38 39 46 48 50 52 42 39 45 35 21 25 34 40 50 53 54 59 56 54 54 55 54 55 54 53 53 51 50 50 50 50 51 51 51 50 53 50 52 50 51 51 48 48
46 37 42 43 47 46 45 48 36 33 23 21 30 34 41 47 50 53 54 53 53 52 53 53 52 52 51 50 50 49 49 49 50 50 50 51 51 50 49 49 48 48 47 46
48 42 36 41 40 41 40 38 40 41 33 26 23 34 47 50 52 50 52 54 53 54 53 54 53 52 52 51 50 49 48 48 48 48 49 48 48 48 48 49 48 48 45 45
48 42 30 38 43 45 43 42 42 32 30 31 30 39 49 50 50 52 52 55 54 54 55 53 53 51 51 51 49 48 48 47 47 48 47 47 47 47 47 49 48 46 45 43
45 36 23 32 38 41 38 42 44 42 32 30 25 37 52 51 52 52 51 52 53 53 54 54 52 51 50 49 49 48 48 47 47 47 46 46 46 46 47 47 45 44 43 41
46 37 32 28 33 38 33 35 38 38 26 33 36 41 50 48 50 53 51 51 52 53 55 53 53 53 52 52 51 49 48 48 46 46 45 45 46 47 47 46 44 43 40 39
42 34 36 35 36 38 38 36 38 36 37 33 38 35 43 47 49 53 51 53 53 53 53 54 53 53 55 52 52 51 49 48 47 45 44 46 46 44 43 41 40 39 37 37
39 30 34 31 37 37 33 34 35 37 39 39 39 39 49 53 55 53 52 51 51 52 52 53 54 53 52 53 51 50 49 48 46 44 44 46 42 39 39 39 38 37 36 34
35 32 29 17 30 31 23 32 36 39 41 42 37 43 49 47 49 47 46 45 44 46 48 48 47 47 47 46 47 46 45 44 41 40 38 38 37 36 37 37 36 35 34 33
34 32 30 15 19 8 31 38 38 37 40 42 43 45 44 40 42 43 43 42 44 45 46 46 45 44 45 44 43 42 38 37 37 36 35 34 35 35 34 33 34 33 32 32
37 31 25 19 9 23 32 36 35 33 35 42 39 39 39 40 39 42 44 43 43 44 45 43 42 41 41 40 38 35 35 35 35 35 35 34 32 33 31 31 31 28 27 27
35 36 26 5 6 7 27 36 40 40 25 36 38 36 37 38 31 35 44 45 44 44 43 41 40 39 39 38 35 32 34 32 33 34 34 34 33 32 32 31 27 25 24 27
25 29 25 24 22 21 32 35 39 22 27 32 35 39 38 36 38 42 43 43 43 40 41 40 38 40 38 35 32 32 31 32 33 32 31 31 30 28 27 25 25 25 24 26
22 22 17 25 21 19 36 32 30 34 33 37 37 39 39 39 38 38 40 40 39 38 38 39 36 37 35 32 30 29 29 30 28 27 27 28 24 26 26 23 23 28 28 27
19 25 20 24 24 35 36 36 39 41 37 34 36 36 37 35 36 37 38 39 39 36 35 35 32 31 32 28 26 26 30 29 25 25 26 24 20 22 21 22 28 28 28 27
25 32 24 25 30 31 34 36 38 39 37 37 38 37 36 35 35 34 34 36 37 35 33 30 28 29 27 25 26 24 26 25 20 23 24 21 21 20 19 25 26 27 27 26
26 28 23 24 29 30 34 35 36 36 35 35 36 35 35 34 33 33 32 32 33 31 28 26 26 25 24 22 24 26 25 24 25 24 22 19 19 19 20 22 22 22 22 27
28 28 25 23 32 31 32 35 34 34 35 36 34 34 36 33 33 33 30 29 28 29 25 23 22 19 19 18 17 18 23 23 19 23 25 24 26 26 25 24 26 33 32 33

GFSCGP_sfc_temp_072.txt.gz
Temp
51 46 43 48 48 49 47 44 42 45 50 48 47 46 51 55 52 51 53 53 54 55 64 60 61 61 59 60 61 64 64 67 66 61 62 62 62 63 63 65 66 67 66 64
47 43 50 51 50 48 45 43 42 45 48 47 45 47 51 52 54 55 55 54 54 54 57 61 60 57 57 64 62 63 64 66 65 68 67 66 64 59 63 61 63 65 65 65
44 49 53 52 48 48 44 43 42 44 44 43 40 41 45 51 50 54 55 55 55 56 57 58 58 57 55 57 59 63 63 64 66 67 60 54 54 53 54 54 60 63 64 64
46 51 50 47 47 48 43 48 46 44 41 36 41 32 40 48 53 53 56 51 54 54 55 57 58 57 55 58 59 62 63 62 63 63 62 62 62 60 61 64 59 55 59 63
45 45 45 44 47 50 46 47 45 43 38 34 35 33 39 42 48 52 55 53 55 55 52 55 58 58 58 55 54 55 56 58 61 61 62 61 61 62 54 51 53 52 54 57
45 48 49 49 46 48 50 46 43 38 37 30 36 37 36 43 48 49 54 55 55 55 55 55 55 56 55 52 50 50 52 53 55 58 58 58 59 55 48 48 50 49 50 55
41 43 45 48 45 47 45 41 30 28 26 28 34 32 39 48 51 51 53 53 52 51 52 52 53 53 52 52 50 49 50 51 51 53 54 53 56 52 51 50 51 47 48 49
36 34 44 48 47 43 42 41 31 25 23 28 33 32 43 48 53 54 52 52 49 51 51 51 50 50 51 51 51 49 49 50 49 50 50 50 52 53 53 50 50 50 51 51
36 38 43 45 46 50 41 37 44 34 18 24 33 38 49 52 49 51 51 52 53 53 52 52 53 52 51 50 51 50 49 49 49 49 48 49 49 50 51 49 50 50 49 48
44 36 40 42 47 45 44 47 36 32 22 20 29 32 39 46 48 50 50 51 53 54 54 54 52 52 52 50 50 49 49 49 49 48 48 48 48 49 48 48 48 49 48 46
45 41 35 40 39 40 40 38 38 39 32 25 21 33 44 46 48 47 48 50 50 51 52 52 53 52 50 49 49 49 48 48 48 48 47 47 46 47 47 48 49 49 47 45
46 40 30 36 40 42 40 40 40 31 29 28 29 33 48 47 47 47 47 50 50 50 51 51 50 50 49 50 49 48 48 47 48 48 47 47 47 46 46 48 49 46 47 43
47 37 25 32 38 38 36 38 40 38 31 28 25 33 46 45 46 47 48 48 49 50 51 51 52 53 55 51 50 49 48 48 47 46 46 45 45 45 45 46 45 44 44 42
47 37 34 30 33 37 33 33 36 37 27 33 35 40 45 44 45 49 50 49 48 50 50 48 48 49 51 51 48 48 48 47 46 45 44 44 44 45 45 44 43 42 42 41
43 30 34 35 35 36 36 35 35 34 35 31 33 34 41 45 45 47 48 48 47 45 45 45 45 44 45 46 47 47 47 46 45 44 43 45 45 43 43 41 40 39 39 40
39 31 34 29 34 35 31 33 34 35 36 37 37 36 47 48 46 44 43 43 43 43 45 45 45 44 45 44 45 45 43 43 42 41 40 42 40 39 38 38 37 37 37 36
36 32 27 20 30 31 22 30 33 34 36 41 36 42 43 40 41 40 40 41 41 43 44 44 44 43 43 42 43 42 41 39 36 36 36 36 35 35 36 36 36 35 35 35
30 27 23 16 18 15 31 35 36 35 38 41 41 40 37 37 39 40 42 40 42 43 43 43 42 42 41 41 40 39 37 35 34 34 33 33 34 34 33 33 33 33 33 32
36 30 22 17 9 23 32 34 33 32 33 38 37 34 35 37 36 36 41 41 41 42 42 42 41 40 40 39 38 33 34 35 34 34 33 32 32 32 32 32 31 30 28 26
36 36 30 11 15 9 26 33 37 37 24 34 35 34 34 35 29 32 40 39 40 41 40 39 39 38 37 38 35 32 33 32 34 34 33 32 31 29 30 31 31 29 24 28
28 29 27 19 20 20 30 35 36 20 26 30 33 35 34 33 36 39 38 38 38 37 38 38 37 37 38 36 32 31 31 31 33 31 30 29 29 27 27 25 24 23 22 25
24 22 17 23 21 17 34 30 29 32 32 34 35 36 36 37 37 37 37 36 35 35 35 35 33 34 35 32 28 29 28 31 28 27 27 28 26 28 29 20 20 22 28 28
19 25 20 24 25 35 34 34 37 37 35 33 34 35 35 35 34 35 35 37 36 33 33 33 29 31 32 27 24 25 28 27 26 23 25 25 24 26 24 24 27 28 28 27
25 30 24 25 29 30 32 34 37 36 36 35 34 35 35 34 34 33 32 34 35 33 30 26 24 26 28 23 24 23 25 24 20 20 21 22 22 22 21 27 27 28 27 26
29 29 23 23 29 30 33 34 35 35 34 34 35 34 34 33 32 31 31 30 31 30 28 23 25 26 26 22 21 18 22 26 25 20 20 21 19 17 21 21 21 21 22 26
28 27 25 21 31 32 32 35 34 32 32 30 29 29 31 31 31 30 29 29 28 29 26 23 21 20 22 18 17 16 14 19 24 24 26 28 20 20 25 26 26 32 32 33

GFSCGP_sfc_temp_075.txt.gz
Temp
49 46 43 47 46 45 44 42 41 44 48 46 45 44 50 53 49 50 51 51 52 53 59 58 59 57 56 57 58 60 61 64 64 63 62 63 63 65 65 66 66 66 65 64
47 43 50 50 48 48 44 41 40 44 47 46 44 46 49 50 52 52 53 53 52 52 54 55 55 54 54 60 59 61 63 64 64 66 66 65 64 65 67 66 66 66 65 65
44 47 51 50 45 46 42 41 41 43 43 42 40 41 43 48 48 52 52 51 52 53 54 54 54 53 53 52 55 60 62 65 65 67 62 54 55 53 57 59 63 64 65 65
44 48 48 45 45 46 41 47 46 43 39 35 38 33 40 45 48 50 52 49 51 51 52 53 54 53 52 53 52 55 58 59 62 63 61 62 63 61 60 63 61 63 64 64
44 45 44 43 46 48 44 46 43 41 37 34 34 33 40 41 45 49 50 50 50 50 50 52 53 53 51 50 49 49 53 56 58 60 63 61 62 63 57 55 55 55 59 61
44 46 47 47 44 46 47 44 41 36 35 29 34 34 36 41 44 46 48 49 49 50 51 52 52 51 51 49 48 48 50 52 55 57 57 58 60 57 51 50 53 52 55 58
40 41 43 46 44 45 43 40 30 29 25 27 32 31 38 43 47 46 47 50 49 49 49 50 50 51 51 51 49 49 49 50 51 53 54 54 56 55 53 51 52 49 49 52
36 34 43 47 46 43 41 40 31 24 22 28 33 31 41 46 49 48 49 49 49 49 48 49 49 49 49 50 50 49 49 49 48 49 51 51 52 52 52 50 50 51 51 52
35 37 42 43 45 48 40 36 41 31 16 23 31 35 47 46 46 47 49 49 49 49 50 50 50 49 48 48 49 48 48 48 48 48 47 48 48 49 50 49 49 51 49 48
43 35 39 41 45 43 43 46 35 30 21 19 28 30 38 40 42 45 46 47 48 50 51 52 51 50 49 48 48 48 48 47 47 47 46 47 47 47 48 48 48 48 48 46
44 41 34 40 39 39 39 37 37 38 32 25 21 31 41 43 44 45 45 47 48 49 49 50 50 50 50 50 50 49 48 47 47 47 46 46 46 46 46 47 47 47 46 45
44 39 30 35 39 41 39 40 39 32 28 27 29 32 45 45 44 45 44 46 47 47 47 47 47 47 47 47 47 47 47 46 46 46 46 46 46 45 45 45 46 45 45 44
45 36 26 33 36 37 36 36 39 36 31 26 26 30 45 41 42 44 45 44 45 45 45 45 44 44 45 44 44 44 44 44 45 44 44 44 44 44 44 44 44 44 43 42
47 37 35 32 33 37 34 35 37 38 28 30 32 36 38 42 43 45 43 42 42 43 44 44 45 45 46 46 45 43 44 44 42 43 42 42 42 43 43 43 43 42 42 41
43 33 35 35 36 37 36 36 36 35 34 34 33 32 39 43 44 41 40 42 42 43 43 43 43 43 43 44 44 45 44 43 42 41 41 42 41 40 40 39 38 38 37 39
40 32 33 31 33 35 32 34 33 33 34 35 34 36 45 41 43 40 41 42 41 41 42 42 43 42 42 42 42 43 42 41 38 38 37 38 36 35 36 35 35 35 36 36
36 31 29 26 29 30 26 32 32 33 35 37 33 39 40 37 39 38 39 40 40 40 41 41 41 41 42 41 40 40 40 38 35 34 34 34 34 34 35 34 34 34 34 34
31 30 28 22 22 19 31 33 35 35 36 39 38 37 37 37 37 39 39 40 38 39 39 40 40 40 40 39 39 38 35 34 34 35 34 32 32 32 33 33 33 32 31 31
36 31 22 22 11 25 32 33 32 32 33 37 35 35 34 35 32 33 39 39 37 38 39 39 38 38 38 37 37 33 33 33 32 34 33 33 31 31 30 30 31 31 30 29
34 35 29 13 11 11 26 34 37 37 24 35 37 34 32 33 28 30 38 37 37 38 38 37 36 36 35 36 34 32 32 31 32 33 32 31 30 28 29 29 29 27 23 28
28 28 27 17 16 19 29 33 36 22 27 27 34 35 34 32 34 37 35 36 36 36 36 35 35 34 35 34 31 30 30 30 31 29 29 28 28 26 26 26 23 22 23 24
27 24 22 24 22 19 32 31 29 32 30 33 34 34 34 34 34 34 34 35 35 34 34 34 32 32 32 31 28 28 28 30 26 26 25 26 24 25 27 22 21 20 21 21
22 28 22 25 27 34 32 32 35 35 33 32 33 35 35 34 34 34 34 34 33 33 32 33 29 29 30 26 23 25 28 25 25 23 23 24 24 24 23 18 21 26 27 27
25 30 25 27 31 32 34 34 36 36 35 36 35 33 33 33 33 32 32 32 32 29 27 25 24 25 26 26 23 22 23 25 26 25 24 23 23 24 21 22 22 24 26 26
26 29 23 23 29 31 32 34 35 36 35 33 32 31 31 31 30 30 29 28 29 28 25 22 23 24 25 25 22 16 20 15 17 23 25 25 27 24 21 21 20 20 20 23
29 27 27 23 32 33 33 34 34 33 32 31 29 28 29 30 29 28 26 26 25 25 24 23 22 20 22 19 19 15 10 9 11 16 22 26 27 27 22 20 21 31 33 33

GFSCGP_sfc_temp_078.txt.gz
Temp
48 47 42 47 47 44 43 40 39 42 46 45 43 44 49 51 49 50 51 49 50 51 54 55 56 55 54 54 56 58 60 62 63 62 63 63 63 64 65 66 65 64 64 62
46 41 49 49 48 46 44 41 39 43 46 44 42 45 49 49 51 50 52 49 50 49 51 54 53 49 52 53 54 56 59 61 62 64 64 64 67 66 67 66 65 65 64 64
44 47 50 49 44 45 40 41 39 40 40 41 40 42 43 47 47 49 49 47 48 49 49 51 52 51 50 49 50 53 56 59 61 64 60 54 56 57 62 63 64 64 65 64
45 47 48 44 43 45 39 46 44 42 38 35 38 34 41 43 46 47 47 46 46 47 49 49 50 50 49 49 49 51 53 55 57 60 59 60 61 61 63 65 65 64 64 64
43 45 44 43 46 48 43 45 43 39 36 33 35 34 41 40 42 46 47 47 47 47 47 48 49 50 49 47 46 47 50 52 55 57 60 59 60 61 58 56 59 63 62 63
42 44 45 46 44 45 44 43 40 35 34 29 33 33 36 39 41 42 45 46 46 46 47 48 48 49 48 47 47 47 49 50 52 54 56 57 58 57 53 52 54 55 59 61
38 39 42 46 42 44 42 40 30 28 25 26 30 31 37 42 44 44 43 45 45 45 47 48 48 48 48 48 47 47 47 48 49 51 52 53 54 54 54 52 52 50 53 53
35 34 42 46 44 41 39 40 31 24 22 27 31 30 38 41 43 47 45 44 45 47 47 47 47 47 47 47 47 47 47 47 46 47 48 49 50 51 52 51 50 52 52 53
35 35 41 43 44 48 39 36 40 29 15 23 30 33 40 41 44 44 45 47 47 47 47 47 47 47 46 47 46 45 45 46 46 46 46 46 46 47 48 49 49 49 49 49
44 36 39 40 44 43 41 44 34 30 19 18 26 30 33 37 40 41 44 44 46 46 47 47 47 46 46 45 45 47 45 44 44 45 45 45 45 45 45 45 46 46 47 46
43 40 34 40 38 38 39 36 35 37 32 23 20 30 40 42 42 42 42 45 44 45 44 44 44 44 45 45 46 45 46 45 45 45 44 44 44 44 44 44 45 45 45 45
43 39 30 35 38 39 37 39 38 31 27 26 28 31 45 44 43 43 42 44 42 43 42 43 43 43 43 43 43 43 44 44 44 44 44 43 44 43 43 43 44 44 44 43
44 35 23 31 35 35 34 36 37 35 31 26 26 30 42 40 41 41 42 41 42 42 43 42 42 41 42 42 42 41 41 41 41 41 41 43 43 43 43 42 42 42 42 41
46 35 36 34 34 36 33 34 36 40 30 32 31 33 37 38 40 40 40 40 40 41 42 41 41 40 41 41 41 41 40 40 39 39 39 38 38 39 40 40 40 39 39 38
41 30 32 32 34 34 34 35 35 36 41 36 36 36 42 42 41 39 40 41 40 40 40 40 40 40 40 41 42 42 42 41 38 37 37 37 37 37 36 35 35 35 35 37
40 32 33 31 34 34 31 33 34 34 34 34 34 34 43 44 42 40 40 40 39 38 39 39 39 39 40 40 40 41 40 39 37 36 36 36 34 33 33 33 33 33 33 33
35 33 32 28 31 32 30 31 33 33 34 37 33 38 40 40 40 40 39 39 38 38 38 38 38 38 38 37 37 37 37 35 33 33 34 33 32 32 33 33 32 33 33 32
33 32 31 22 27 23 31 32 35 36 37 40 38 37 39 39 39 40 39 38 37 38 38 38 37 37 37 36 36 35 33 32 32 33 32 31 32 31 31 30 30 31 31 30
37 31 22 23 22 26 29 34 34 35 36 39 37 37 35 36 35 35 38 38 38 36 37 37 36 36 36 35 35 32 33 32 32 33 32 31 30 29 29 28 29 29 29 29
34 35 31 20 17 15 27 33 35 38 27 35 38 36 33 32 28 31 36 37 36 35 36 36 35 34 33 34 32 31 31 29 30 31 31 30 29 27 26 28 27 26 26 27
28 26 25 16 13 19 30 32 35 23 28 27 35 35 33 32 34 35 36 34 35 35 35 34 33 33 33 32 30 29 29 29 31 28 28 27 26 24 25 25 22 25 24 24
29 27 26 22 20 18 33 31 31 34 31 32 33 34 35 35 34 34 34 34 34 34 34 33 31 31 31 30 26 27 27 29 25 25 25 24 24 24 26 21 22 20 21 28
23 29 26 29 28 33 32 34 35 34 33 33 34 34 35 34 33 33 33 33 33 33 32 32 27 28 28 25 22 24 27 25 23 25 26 27 25 24 23 20 22 22 20 27
24 29 26 27 27 30 33 34 34 35 34 34 34 35 34 32 31 31 31 31 30 28 26 23 22 22 23 22 22 21 22 22 15 16 20 24 26 26 27 22 22 20 19 20
27 29 24 23 28 31 32 33 35 35 35 34 33 33 31 30 29 28 27 25 25 24 22 20 22 22 22 22 21 15 18 13 13 14 17 18 23 26 28 28 22 23 22 21
28 27 27 24 33 33 34 35 35 34 34 34 32 29 29 28 28 26 24 22 21 20 19 18 18 17 18 18 17 16 8 7 7 11 16 18 19 22 26 27 26 29 32 34

GFSCGP_sfc_temp_081.txt.gz
Temp
48 46 43 47 48 45 45 42 42 42 47 45 44 45 50 52 52 52 53 53 53 54 56 56 57 57 56 57 60 62 63 64 65 64 63 64 63 64 65 65 65 65 64 62
46 42 49 49 47 47 44 42 41 43 46 45 42 46 50 50 50 50 50 50 52 51 53 54 54 55 55 56 56 58 61 63 64 66 67 67 66 66 66 66 65 65 64 63
44 46 49 48 44 45 40 43 41 42 42 42 40 44 45 48 48 49 48 48 49 49 51 52 52 51 51 52 53 55 58 60 63 65 63 60 62 61 63 64 64 64 64 64
46 46 46 43 43 45 40 46 45 43 40 37 40 36 41 43 48 46 46 46 46 47 49 50 51 51 50 50 50 53 54 57 59 62 62 62 64 63 65 66 65 64 64 64
44 43 43 41 45 47 43 45 43 40 37 37 37 37 41 42 43 45 46 46 47 47 47 49 50 50 49 49 49 50 53 54 57 59 62 61 62 63 63 62 64 65 63 64
42 44 45 45 44 45 44 42 40 36 35 31 36 35 38 40 43 44 45 46 47 48 48 49 50 49 49 49 50 51 52 51 53 56 58 59 59 59 58 58 58 61 63 63
38 40 42 45 43 45 42 40 31 30 26 28 32 32 39 42 45 46 46 46 47 47 48 48 48 49 49 48 47 49 50 49 50 52 53 54 56 57 57 57 57 55 54 56
35 33 42 44 43 41 40 41 32 25 23 28 31 30 39 41 43 46 46 46 46 46 46 46 46 46 47 47 47 48 48 48 48 49 49 50 51 53 53 54 55 54 55 56
36 36 41 43 44 47 40 38 40 29 14 23 30 35 41 41 43 44 46 46 45 45 45 45 45 45 45 46 45 45 47 47 47 47 48 48 49 49 49 50 51 52 52 51
43 35 38 40 44 43 41 44 36 30 19 19 27 30 34 38 41 43 44 44 44 44 44 45 45 45 45 45 45 46 45 45 45 46 47 47 47 48 48 48 48 48 49 49
45 41 35 40 39 38 39 37 36 37 32 23 20 30 39 42 42 42 43 43 43 42 43 43 44 44 44 45 45 45 45 45 45 45 45 45 45 46 47 47 47 47 47 47
44 39 32 36 39 40 38 40 39 32 27 26 27 32 42 43 42 43 43 42 42 42 42 42 42 43 43 43 44 44 44 44 43 43 44 44 44 44 44 43 44 44 44 45
44 36 25 31 36 36 35 37 37 35 31 25 25 30 40 39 40 42 42 42 42 42 42 42 42 41 42 42 42 42 42 42 41 41 41 42 41 42 42 42 42 42 41 41
46 35 35 34 35 36 33 35 36 39 32 30 32 32 35 37 39 40 41 41 41 41 41 41 41 41 41 42 42 41 41 41 39 39 39 39 39 39 40 39 39 39 39 39
42 32 32 32 32 34 35 35 35 37 42 37 39 35 41 40 40 41 41 40 40 40 40 40 40 40 40 40 40 40 40 40 38 37 37 37 37 37 37 36 36 36 36 38
38 32 32 31 35 33 33 35 37 41 37 33 34 36 43 45 41 39 40 39 39 38 39 40 39 39 39 39 39 39 38 38 36 36 35 35 34 33 33 33 33 34 34 34
36 34 30 23 32 31 30 33 35 35 35 38 35 39 39 38 40 39 38 39 38 38 39 39 38 38 38 37 37 36 36 35 34 33 33 33 32 33 33 32 32 33 33 33
34 33 31 24 29 25 33 32 35 36 36 39 38 38 42 43 42 41 42 39 38 38 38 38 38 38 37 36 36 35 34 34 34 34 34 32 32 32 31 31 31 31 32 31
38 32 24 24 24 27 29 33 32 35 34 39 38 38 39 38 39 37 40 40 38 39 38 38 37 37 36 35 34 33 34 33 33 33 33 32 31 29 29 28 29 29 29 30
35 36 30 22 23 20 29 34 37 40 28 36 40 39 35 35 32 35 37 37 37 38 37 36 36 35 35 34 33 31 31 29 30 31 31 30 29 27 26 28 27 28 28 28
28 28 26 24 23 23 31 33 37 29 30 30 37 37 34 33 36 36 36 37 37 37 37 35 34 33 32 31 30 29 29 28 30 27 27 26 26 24 25 25 26 25 25 25
29 26 26 20 22 21 33 31 32 35 32 33 34 34 35 34 33 35 36 36 36 35 34 33 32 31 30 29 26 26 26 28 24 23 23 24 26 28 27 23 24 23 21 22
24 30 28 29 30 33 32 33 35 35 34 34 34 35 36 34 34 35 34 33 33 33 31 29 25 24 26 22 21 22 25 24 22 18 17 19 21 24 27 27 25 25 25 25
26 30 28 29 29 30 32 32 34 35 36 35 35 35 36 34 33 32 32 31 30 27 24 21 18 17 18 18 19 18 20 21 13 12 15 17 18 20 22 28 29 27 24 23
28 30 25 23 27 30 32 34 35 35 34 34 34 34 34 34 32 31 28 26 25 23 20 17 16 16 17 17 16 13 17 12 11 12 14 15 17 18 20 22 25 28 29 26
27 27 28 27 32 33 35 35 34 33 33 33 32 30 30 31 29 26 23 22 20 18 17 15 14 13 13 12 12 11 6 4 4 7 12 13 14 16 18 19 21 30 32 33

GFSCGP_sfc_temp_084.txt.gz
Temp
59 61 56 60 62 57 59 58 56 54 56 57 57 60 64 66 65 68 68 68 68 68 68 68 67 69 70 72 73 73 74 74 71 66 65 65 64 66 67 68 68 69 67 66
58 55 59 59 57 57 58 56 52 53 54 55 54 58 64 61 61 60 62 64 63 64 65 64 65 65 65 69 69 71 72 73 73 70 68 68 67 67 68 68 67 67 66 65
56 55 57 55 53 55 53 56 51 54 52 53 53 58 58 58 59 59 59 59 60 61 63 64 63 63 64 63 64 67 69 71 73 73 70 66 64 64 65 65 65 66 67 66
56 53 54 53 54 58 50 55 54 51 54 50 51 52 54 55 55 57 58 59 60 61 62 62 62 62 61 61 63 64 65 67 70 72 70 66 64 63 67 68 67 67 66 65
51 50 50 51 55 56 52 54 54 51 50 51 50 52 55 54 53 54 56 56 58 59 61 60 60 60 60 61 61 64 64 65 65 68 70 69 67 70 70 71 70 70 69 66
50 54 56 54 50 53 52 52 51 50 50 43 49 49 54 54 54 53 55 56 58 58 59 60 59 61 60 61 61 62 62 62 64 66 66 67 66 65 64 65 66 67 67 66
48 49 52 54 50 52 52 54 42 41 40 41 41 42 54 54 56 58 56 57 57 59 59 59 58 58 58 58 59 59 61 59 62 62 62 62 61 60 60 60 59 59 60 61
44 40 49 53 54 50 51 54 44 34 34 39 37 40 51 53 55 58 58 56 56 57 57 56 57 57 56 56 57 58 58 57 59 60 59 60 61 62 63 61 61 62 62 63
45 43 49 50 51 56 49 46 50 38 26 38 46 48 52 51 52 54 55 56 55 55 55 55 55 56 56 55 55 56 57 56 57 57 58 58 58 58 58 58 59 59 59 58
51 41 44 47 51 51 51 53 45 45 32 33 41 43 51 45 49 53 52 54 53 53 54 54 55 54 54 55 55 56 56 54 55 56 56 55 55 56 57 57 55 56 57 57
53 47 40 45 45 47 46 47 45 49 44 37 36 45 56 52 54 53 55 54 53 53 53 53 53 53 54 54 55 55 55 53 53 54 54 54 53 54 54 54 53 53 54 54
50 45 38 43 46 47 47 49 50 44 35 38 38 47 49 58 58 56 53 52 53 53 52 52 52 53 53 52 52 52 52 50 50 51 52 51 52 52 52 51 51 50 50 50
48 42 32 36 42 43 42 45 48 44 39 34 37 47 47 54 53 54 52 51 50 50 51 52 53 53 53 52 51 51 50 49 48 49 49 49 48 48 48 47 47 47 47 47
50 41 43 40 46 46 39 41 43 48 40 43 43 45 45 47 50 51 51 51 51 50 49 51 51 51 51 51 51 51 50 49 47 48 48 47 46 47 47 47 46 45 46 46
48 38 42 40 41 44 45 42 43 44 50 44 50 47 48 50 51 52 52 50 47 47 48 48 48 49 50 49 49 49 48 47 47 47 46 45 44 45 43 42 41 41 41 43
43 34 37 33 37 38 38 43 44 47 49 50 50 47 56 56 54 48 47 47 47 47 47 46 46 46 47 46 46 46 47 46 45 44 42 43 41 40 40 39 38 39 40 40
40 34 33 34 34 35 33 39 42 46 51 50 45 52 50 50 47 49 48 47 47 46 46 45 46 46 45 45 44 45 45 44 42 40 39 38 38 37 38 38 37 38 38 38
36 34 34 29 32 26 41 40 46 46 47 48 47 46 50 49 51 51 50 47 46 45 45 45 45 45 44 43 43 43 42 41 40 39 37 37 37 35 36 35 35 36 37 36
41 37 29 29 30 37 39 37 38 39 44 46 48 45 47 46 46 43 48 49 47 46 46 45 46 44 43 42 41 40 40 39 38 37 36 35 34 32 32 31 33 34 34 34
36 37 36 27 29 28 39 40 43 47 36 45 47 44 42 44 39 46 44 43 44 45 43 42 42 41 41 39 39 36 36 35 35 34 33 32 32 29 29 30 30 31 31 31
30 31 30 29 29 33 39 40 43 33 38 38 47 45 42 45 48 45 43 43 43 42 41 41 40 39 37 36 33 33 33 32 32 30 29 28 29 28 30 30 30 29 28 29
31 29 29 29 29 28 39 38 39 44 37 39 43 43 43 39 39 41 43 41 40 39 38 38 37 35 34 32 30 29 29 30 28 26 24 24 24 25 28 27 29 30 29 28
30 37 32 35 35 37 41 40 42 41 38 39 41 42 41 38 39 41 40 39 38 37 36 33 31 29 29 27 27 24 26 25 24 19 18 19 21 22 24 25 25 28 30 30
32 35 35 36 36 37 38 39 41 41 41 40 42 41 41 39 40 39 38 37 35 31 28 26 25 23 23 24 23 21 21 21 16 15 16 18 19 21 22 25 27 27 27 28
36 35 32 32 33 36 38 40 41 40 40 39 41 41 40 40 39 39 34 32 31 28 25 23 22 21 20 20 19 18 18 15 13 13 15 17 19 20 20 22 24 25 27 28
34 33 35 37 38 39 40 39 39 38 38 39 38 35 36 37 36 33 30 29 27 24 22 20 18 17 16 15 14 14 12 10 7 11 15 17 16 18 19 20 22 26 27 29

GFSCGP_sfc_temp_087.txt.gz
Temp
66 61 57 62 66 69 67 61 59 64 60 61 62 65 70 71 69 71 73 74 74 73 74 73 73 74 75 77 78 78 78 78 71 67 65 65 65 67 67 68 69 70 68 66
59 55 66 69 64 62 63 61 60 56 58 59 62 61 69 67 68 67 68 71 70 70 70 68 69 69 71 72 74 76 77 78 76 68 68 68 67 67 68 68 68 68 68 66
58 61 63 61 60 60 60 59 57 59 54 58 58 60 62 62 63 64 64 65 66 67 68 67 67 68 68 68 71 73 75 76 77 75 69 66 64 64 65 66 67 67 67 66
61 56 57 59 59 63 54 61 60 54 55 53 56 54 60 60 60 61 62 65 65 65 66 66 65 65 64 65 67 69 72 73 75 76 74 66 64 64 66 68 67 66 67 66
54 53 54 55 59 62 57 61 59 57 56 54 53 53 60 58 56 57 60 60 62 63 64 62 62 62 63 64 65 67 68 69 70 72 73 71 67 68 68 66 66 65 66 66
54 57 60 60 56 60 58 56 56 56 54 45 55 54 59 55 59 58 58 60 60 62 61 61 62 63 62 63 64 65 65 66 68 69 70 70 68 65 61 61 60 61 62 64
51 53 55 58 52 56 59 55 44 42 41 42 46 46 59 59 62 61 58 59 60 62 63 62 61 61 61 61 62 63 63 63 65 65 65 65 64 64 64 64 64 63 64 65
46 41 51 57 59 52 54 57 46 35 37 44 40 42 54 59 62 63 62 61 60 60 60 60 60 59 59 59 60 61 61 60 62 62 62 62 64 64 63 62 61 61 61 61
49 46 52 54 55 60 54 49 55 41 32 40 47 53 55 54 56 58 58 58 58 59 59 58 59 59 58 58 58 60 59 59 59 60 60 59 60 60 59 59 60 59 59 58
56 42 48 49 55 54 55 59 45 49 33 34 47 49 53 47 51 55 55 57 58 58 58 58 58 58 58 58 58 59 59 57 58 58 58 57 57 58 58 57 55 55 56 56
57 51 41 48 48 51 49 49 51 54 48 40 39 47 59 55 57 56 57 59 57 57 57 57 57 57 57 58 58 57 57 56 55 56 56 55 55 56 56 55 54 53 54 53
54 48 39 44 48 49 55 55 54 46 38 44 40 49 54 63 62 60 59 58 58 57 57 57 56 56 56 55 55 54 54 52 53 54 54 53 54 54 53 52 52 51 50 51
51 44 33 37 44 46 47 51 55 55 44 35 38 48 52 58 61 60 58 57 56 55 55 55 55 56 56 55 54 53 52 50 51 52 52 51 50 50 49 49 49 49 48 49
52 45 45 41 47 52 44 48 49 52 42 44 45 52 48 55 56 57 56 56 55 54 54 55 56 55 55 55 54 53 51 51 50 51 50 48 47 47 47 47 46 45 45 45
50 38 47 52 46 50 49 47 47 45 50 46 52 51 57 54 56 57 58 55 53 52 52 53 52 52 53 52 51 52 51 49 50 50 48 47 46 46 44 42 42 41 40 43
46 36 45 34 41 42 41 46 46 46 49 51 54 54 65 61 60 58 56 53 52 51 51 51 51 51 51 50 50 50 50 47 47 45 43 43 41 39 39 39 38 38 39 40
42 35 34 34 36 37 33 40 45 47 51 53 47 56 58 57 56 56 54 52 52 51 51 49 49 48 49 48 49 47 47 46 43 40 39 38 37 37 37 37 37 37 38 38
40 34 33 31 33 27 44 50 52 49 53 54 55 56 56 57 57 57 57 52 52 51 49 49 49 48 47 46 46 46 43 41 39 38 37 36 36 35 35 35 34 35 36 35
45 39 32 32 31 40 45 40 42 42 45 55 54 56 55 55 55 53 56 54 52 50 49 49 49 48 46 44 43 40 39 38 38 36 35 35 33 31 31 30 32 33 32 32
39 43 39 32 31 29 45 43 49 50 37 54 53 52 49 49 42 49 52 51 49 48 46 44 44 44 43 41 40 37 36 35 34 33 32 32 31 28 28 29 30 31 31 30
31 32 32 32 31 34 40 41 47 34 39 41 51 52 46 46 51 50 47 45 45 43 41 42 42 42 40 36 34 33 33 32 31 30 29 27 27 25 26 27 28 28 29 30
32 31 31 32 31 30 43 42 40 45 39 41 47 48 46 42 43 43 44 41 41 39 39 40 39 37 36 32 31 30 30 30 27 25 23 22 22 23 25 23 24 25 26 27
32 38 34 37 38 40 45 42 45 45 42 42 44 46 43 40 41 43 41 40 39 39 37 38 35 32 31 27 27 26 27 24 22 18 16 18 20 21 22 22 23 24 26 27
35 38 36 36 38 40 42 42 43 44 43 44 45 43 43 41 42 41 40 39 37 33 30 28 27 26 25 24 24 22 22 20 13 14 16 18 19 20 22 24 24 24 24 24
38 38 35 35 35 38 40 41 43 41 42 42 44 44 43 42 41 40 36 34 33 30 27 26 25 24 24 23 21 19 19 15 13 14 16 18 21 21 20 22 23 23 24 25
38 39 37 39 41 42 43 44 42 40 40 40 39 37 39 40 39 37 34 33 30 27 25 23 22 21 21 18 17 16 12 10 8 12 17 18 17 19 19 20 21 26 27 29

GFSCGP_sfc_temp_093.txt.gz
Temp
54 46 45 47 49 52 49 49 48 47 52 52 51 52 54 57 55 53 53 55 58 57 57 59 60 60 62 63 64 65 65 65 64 62 64 63 63 64 64 65 66 66 65 65
49 44 51 55 54 53 49 47 43 45 50 49 49 51 53 55 55 56 57 55 55 55 56 57 57 57 58 59 60 63 65 64 64 63 63 65 64 64 65 64 65 65 64 64
45 50 57 55 51 51 48 47 44 46 46 45 45 43 49 52 54 54 54 55 55 55 54 53 53 51 51 53 54 60 63 63 64 64 64 63 62 62 62 63 63 64 64 63
48 55 55 50 51 53 46 53 49 45 45 38 43 35 43 47 49 51 51 51 51 51 52 52 50 49 49 52 53 56 60 61 64 66 64 63 61 60 62 63 63 64 64 63
45 49 49 47 51 54 49 51 48 46 43 38 37 36 41 45 43 47 48 50 50 49 49 49 49 52 51 51 50 53 56 58 60 65 65 64 61 62 60 60 60 60 61 60
48 51 52 52 51 54 53 50 48 44 40 32 38 38 37 40 49 44 47 48 49 48 48 49 50 52 50 49 50 50 52 52 56 57 61 61 59 58 56 56 55 53 56 54
45 46 49 52 48 49 49 43 31 31 28 29 33 33 41 46 50 50 47 47 47 47 47 47 47 47 47 47 48 50 52 49 51 53 53 53 52 51 49 48 48 47 47 47
36 34 45 50 48 44 42 44 31 26 24 30 33 33 43 46 47 49 50 48 47 46 46 46 46 45 46 47 46 48 49 48 49 50 49 50 50 49 48 47 46 45 45 45
40 38 46 47 49 52 43 39 45 33 19 25 31 36 44 45 45 46 46 46 44 45 45 45 46 45 45 45 45 46 47 47 47 47 49 48 47 46 45 44 44 43 44 46
47 36 42 45 48 47 45 50 38 34 21 22 29 31 37 39 43 44 45 44 44 45 45 45 45 45 45 45 45 45 45 45 45 46 47 45 44 44 43 43 42 42 42 43
48 41 37 43 41 42 42 40 41 41 34 27 23 32 43 46 46 45 46 47 45 45 45 45 45 45 44 44 44 43 44 45 44 45 44 43 42 42 42 42 41 41 41 41
47 40 31 37 42 43 42 45 44 36 32 32 31 35 46 45 50 49 48 48 47 47 45 45 44 43 43 42 43 43 43 43 43 43 42 42 42 41 40 39 39 39 38 39
47 37 27 33 40 41 41 43 46 41 33 28 27 33 45 42 46 49 47 47 47 46 45 45 44 43 43 42 42 41 42 41 41 42 41 39 38 38 37 37 37 37 37 36
50 40 36 33 37 41 37 40 43 43 31 32 32 37 41 43 45 46 47 48 47 46 46 45 44 44 44 44 43 42 41 41 40 39 38 36 36 37 36 36 35 35 35 35
48 35 40 40 42 42 42 41 41 41 48 40 46 40 45 45 46 49 49 47 46 45 45 46 45 44 44 43 42 41 40 40 40 38 36 35 35 35 34 32 32 32 32 33
44 31 37 31 38 40 36 41 42 46 45 43 41 42 50 50 49 48 48 47 47 46 47 47 47 45 44 43 42 42 40 39 38 35 34 34 33 32 31 31 31 31 31 31
42 35 32 27 31 33 30 37 40 43 45 48 42 51 47 46 50 50 48 49 49 49 48 48 46 46 45 44 43 39 37 36 33 32 32 31 31 30 30 30 30 29 29 29
38 39 33 33 30 23 39 44 45 45 47 49 47 45 49 49 53 53 53 51 50 50 49 48 47 46 44 40 40 38 36 33 32 31 30 30 29 28 28 27 27 27 27 27
40 35 29 27 23 33 38 39 39 37 43 46 48 51 48 47 46 46 53 54 53 51 51 49 47 45 40 40 38 35 33 32 31 30 29 29 27 25 25 21 23 24 24 23
37 39 33 27 23 22 38 42 44 47 38 48 50 48 45 45 41 50 51 51 50 49 48 44 41 41 40 37 36 34 32 31 30 29 29 27 26 22 18 22 20 22 19 24
32 31 31 23 20 28 36 37 44 33 39 42 47 50 46 48 56 51 46 44 45 44 41 40 41 40 39 36 34 32 30 29 29 27 25 23 22 19 18 17 17 14 13 18
32 31 31 26 20 27 36 38 40 43 37 37 40 43 45 43 40 40 42 40 39 37 38 39 38 36 35 33 33 31 30 27 25 23 21 18 14 17 17 8 8 8 6 7
30 35 34 37 36 37 35 36 38 39 39 37 38 39 41 38 37 36 35 36 36 36 37 38 35 32 31 29 31 29 26 23 21 17 13 12 11 12 12 5 7 8 6 6
30 33 30 33 33 33 35 36 39 39 38 39 39 37 38 37 35 34 34 34 35 34 32 32 30 29 27 25 26 26 23 19 14 12 11 10 9 9 8 14 14 7 5 6
32 33 31 31 35 34 35 35 39 39 38 39 38 36 37 36 34 34 33 33 33 32 30 31 31 28 25 22 21 19 17 15 11 10 12 10 9 5 8 12 10 13 14 13
32 33 32 31 36 37 37 38 38 37 37 38 36 34 33 34 34 32 31 31 31 29 28 28 27 26 23 21 18 15 11 11 11 11 11 10 8 7 9 8 8 19 23 26

GFSCGP_sfc_temp_096.txt.gz
Temp
53 46 44 50 48 50 49 48 46 45 50 49 49 50 53 54 52 52 53 51 53 56 55 56 59 60 61 61 62 65 64 64 63 62 61 63 63 64 64 65 65 65 65 64
47 43 51 53 53 51 49 47 44 44 48 48 46 50 50 52 53 53 54 51 53 52 53 56 55 54 58 59 60 61 64 63 64 64 62 62 64 64 65 64 65 65 64 64
43 47 54 52 49 49 45 44 42 46 44 44 43 44 47 52 51 52 54 53 53 53 53 52 53 50 52 54 56 59 61 63 65 64 63 62 62 63 63 63 63 64 65 64
46 53 51 49 50 50 42 50 49 45 42 38 43 36 41 46 50 51 52 50 52 52 52 49 48 46 49 51 52 56 59 62 62 66 65 63 61 60 62 63 62 60 61 60
43 48 46 47 51 52 47 50 47 43 41 40 36 36 41 40 42 48 49 49 50 50 49 48 48 49 48 49 50 52 56 61 62 64 65 63 62 61 59 59 58 57 55 55
46 52 52 51 51 53 51 49 45 41 40 32 38 38 38 38 46 52 46 48 48 46 46 47 48 49 48 47 48 49 52 53 58 61 64 63 60 58 56 55 53 52 53 51
43 45 47 54 46 48 49 46 32 31 31 30 33 33 43 45 48 49 53 46 44 45 44 45 45 45 45 45 46 48 50 48 51 53 55 56 53 50 50 47 47 45 45 44
36 33 44 50 49 43 43 47 31 25 23 28 33 32 42 46 47 49 49 47 44 43 45 44 44 44 45 45 45 45 46 46 48 50 51 52 49 48 47 46 44 43 43 42
39 38 44 47 49 51 45 41 44 32 18 27 31 35 46 43 42 43 43 45 43 43 43 43 43 43 43 43 43 44 44 44 46 47 47 46 46 45 44 43 42 41 41 43
45 36 42 44 47 48 46 49 38 33 23 20 28 30 37 39 44 42 42 44 43 43 42 42 42 42 43 43 42 43 44 43 44 45 46 45 43 43 41 41 40 40 40 40
45 41 36 43 41 41 42 41 39 39 33 27 22 31 41 47 49 44 45 45 44 43 43 42 42 42 42 41 42 41 43 43 43 43 43 42 41 40 40 39 38 38 38 38
45 39 31 37 42 43 42 44 44 37 32 29 29 34 43 44 46 46 44 45 44 44 43 42 42 41 40 40 41 41 41 42 42 42 42 41 40 39 38 37 36 37 36 36
45 36 27 33 39 40 40 43 45 39 34 29 30 35 43 41 43 46 45 44 44 43 42 42 40 40 39 39 40 40 40 41 41 41 40 38 37 36 35 35 36 35 35 34
50 39 36 33 38 40 35 40 42 44 32 32 32 38 42 42 42 44 46 45 44 44 43 42 41 40 41 41 41 41 40 40 39 38 38 36 35 35 35 34 33 33 33 33
47 34 38 39 42 44 41 41 43 42 48 41 46 39 46 46 44 46 47 45 44 43 43 43 43 42 41 40 41 41 41 40 39 37 35 34 34 34 33 32 31 31 30 31
43 30 36 31 38 39 37 41 42 44 44 41 38 38 48 47 46 45 47 46 45 45 45 45 45 43 42 42 42 42 40 38 37 35 34 34 33 31 30 30 30 30 29 29
42 33 28 24 30 34 31 37 40 43 47 47 41 51 47 45 47 47 47 47 47 47 47 46 46 45 44 44 43 41 39 36 34 33 32 31 30 30 29 30 29 29 28 28
42 37 32 26 28 22 38 43 45 44 44 49 46 45 47 50 49 50 51 49 50 50 49 48 48 47 46 45 42 39 36 34 33 31 30 29 29 28 28 27 27 27 27 26
39 41 31 30 29 33 38 39 39 37 41 45 45 50 46 48 46 47 52 53 53 52 52 51 50 48 46 42 40 37 33 32 32 30 30 29 28 26 25 23 24 24 24 23
37 41 37 24 25 23 35 46 43 47 36 51 49 49 43 45 42 52 49 53 52 53 52 49 47 46 42 40 38 35 33 32 31 31 30 28 26 23 22 23 22 22 20 23
30 28 32 24 22 28 38 37 46 34 39 40 46 48 42 45 54 55 49 47 48 46 43 43 44 41 41 38 36 34 33 32 32 29 26 24 23 22 22 20 20 17 14 17
30 28 26 23 22 27 36 37 41 44 38 38 40 43 44 47 40 40 41 40 40 39 38 40 40 40 39 37 37 34 32 30 26 24 22 20 19 23 20 17 14 11 11 9
31 35 31 35 33 37 34 35 37 39 39 37 38 39 40 40 38 37 37 36 36 37 38 39 40 36 35 35 37 33 28 25 23 21 19 17 18 19 17 14 11 12 7 7
30 33 32 35 32 32 34 35 36 37 36 37 37 38 36 36 35 34 33 33 33 33 33 34 32 32 31 30 32 33 26 24 21 19 18 17 17 16 13 17 15 8 6 5
31 33 28 29 32 32 34 34 37 36 37 36 36 35 37 34 33 32 32 30 31 30 27 31 33 32 30 28 25 24 22 21 20 19 17 17 15 14 12 13 10 13 12 12
33 32 32 28 36 36 36 37 37 38 37 35 35 36 34 34 34 32 29 29 28 27 27 28 28 30 25 25 21 19 19 21 19 17 17 15 14 11 11 10 9 19 22 25

GFSCGP_sfc_temp_099.txt.gz
Temp
48 44 39 44 50 49 49 47 46 47 51 49 47 48 52 50 48 51 50 50 53 55 57 57 59 60 60 61 64 64 64 63 62 60 60 63 63 64 64 64 65 66 65 64
45 39 49 53 52 52 48 46 45 46 48 48 44 48 47 50 50 52 52 50 52 51 54 55 54 55 57 60 62 63 64 63 63 64 61 61 61 64 65 64 64 65 65 64
43 47 53 51 49 48 46 48 44 45 44 43 42 43 45 50 49 51 52 51 52 53 53 53 53 53 53 55 57 61 63 63 64 63 62 62 63 63 63 63 63 64 64 63
45 52 51 47 48 50 43 48 47 44 43 37 42 33 40 46 49 49 52 50 52 50 52 51 51 51 51 53 53 55 59 61 63 63 65 63 62 60 62 63 59 56 58 58
39 45 44 45 48 51 46 49 48 44 41 38 34 34 39 39 44 46 50 51 50 50 51 50 50 50 49 51 51 52 55 60 61 64 65 64 61 61 59 58 55 54 54 54
43 47 49 48 49 52 50 48 45 42 40 32 39 37 37 38 45 51 48 50 50 49 48 48 48 48 48 47 48 50 52 59 60 63 64 63 60 58 56 54 52 51 51 50
36 39 44 50 46 48 49 45 32 32 29 32 32 33 46 44 47 49 54 53 49 45 45 45 46 45 46 46 46 48 50 55 60 60 59 61 59 57 54 52 50 49 47 43
31 29 39 48 47 41 40 45 32 26 27 28 33 31 40 46 45 48 50 51 46 44 45 45 45 45 45 45 45 46 47 49 53 55 54 55 53 51 47 49 45 43 43 41
32 34 44 47 49 51 42 39 44 33 20 28 32 36 45 44 44 45 46 44 47 46 45 44 44 43 43 43 43 43 43 45 48 51 51 50 49 46 44 42 42 42 40 41
41 34 42 44 49 47 45 48 38 35 24 21 28 29 36 40 47 45 42 43 45 45 43 43 43 42 42 42 42 42 43 43 43 47 49 48 46 44 42 41 40 39 38 38
42 40 36 43 41 39 41 39 40 43 34 29 23 32 41 49 51 49 49 46 44 43 43 42 42 41 41 41 41 40 41 41 42 44 45 45 43 40 40 39 37 37 37 37
43 37 29 37 40 44 48 44 44 37 31 30 30 33 43 44 45 47 43 43 42 42 42 41 41 41 40 40 40 39 39 40 39 40 41 40 40 39 38 37 36 37 36 36
44 36 26 32 38 40 40 43 44 40 35 33 30 38 45 43 44 44 43 42 42 41 40 39 38 38 37 37 38 38 38 38 38 40 39 38 37 37 35 34 35 35 35 34
48 38 36 33 37 39 35 38 40 44 32 35 34 38 46 46 45 42 43 44 43 41 41 40 39 37 38 39 39 38 37 39 38 38 38 36 35 35 35 34 34 34 33 32
46 34 36 37 39 43 42 44 41 41 45 39 45 39 47 50 48 44 44 42 41 40 41 41 40 39 40 38 38 39 39 38 38 37 36 34 34 33 33 33 32 31 31 31
41 27 35 29 36 39 36 41 43 44 46 45 40 39 48 48 45 44 45 43 42 43 43 43 42 42 41 41 40 40 39 37 37 36 35 34 33 32 31 31 31 31 29 29
41 31 26 21 29 33 31 37 40 43 45 47 39 48 46 45 46 46 44 45 45 46 45 44 43 43 43 43 43 41 39 37 35 34 33 32 32 31 31 30 29 29 28 28
39 35 29 22 24 23 37 42 46 44 47 48 48 44 45 50 50 49 48 47 47 48 48 47 46 46 46 45 43 42 38 36 34 33 32 31 31 30 28 28 27 27 26 26
38 41 32 28 14 30 38 39 38 37 41 45 45 50 45 46 45 48 49 51 51 51 51 50 50 49 47 44 43 39 35 35 34 33 32 31 30 27 26 24 24 25 24 23
37 43 37 30 26 20 33 43 44 47 36 47 45 45 44 45 41 51 51 50 51 52 52 50 48 47 45 43 41 37 36 34 33 33 32 30 28 25 23 25 23 23 21 24
26 28 32 31 26 26 35 37 46 35 40 39 44 47 43 45 54 50 48 48 49 48 45 44 46 45 44 42 38 36 35 33 35 31 28 26 25 24 24 23 22 20 20 21
29 26 28 25 28 26 36 36 41 43 39 39 41 42 42 43 42 42 42 41 41 41 40 43 44 43 42 38 38 36 34 36 29 28 26 24 23 24 22 19 19 19 19 19
29 33 30 35 34 37 34 36 38 40 40 37 39 38 37 38 38 40 40 38 36 36 37 38 41 36 36 36 39 36 36 29 28 26 23 20 20 21 21 20 18 18 17 17
30 33 30 33 32 33 34 34 35 37 37 36 37 37 36 36 37 37 36 35 34 30 30 29 32 33 32 34 37 38 29 29 26 23 20 19 21 20 19 21 20 18 16 15
31 33 29 29 32 33 33 34 36 36 36 36 37 36 36 35 35 34 33 29 30 28 26 27 30 30 29 29 29 27 27 27 25 22 21 20 21 19 19 19 19 18 17 17
33 32 30 28 34 35 35 35 36 35 36 36 35 35 34 34 35 32 28 28 27 26 24 26 25 27 25 24 24 24 26 27 24 22 21 20 19 19 18 17 15 23 24 25

GFSCGP_sfc_temp_102.txt.gz
Temp
49 43 38 43 48 50 50 43 44 47 51 50 48 50 54 50 46 48 48 49 51 53 56 57 58 59 59 61 61 62 62 62 62 59 61 62 62 63 63 64 65 65 65 64
43 39 48 50 49 49 45 44 45 47 49 48 47 49 48 48 49 49 51 48 51 50 53 55 55 56 56 60 61 62 63 63 63 64 61 61 62 64 65 64 64 65 65 64
42 47 51 49 47 45 42 41 43 45 44 44 43 46 45 48 47 49 50 50 50 52 53 52 53 54 55 57 59 61 63 63 63 63 60 62 63 63 63 64 64 61 62 62
43 51 48 46 45 46 40 49 48 44 45 39 42 34 42 44 48 47 50 48 50 50 51 52 52 51 51 54 54 59 62 63 63 62 62 63 62 61 62 61 57 55 57 57
41 43 43 44 46 49 45 50 47 45 42 39 37 34 43 38 43 45 48 49 52 52 52 54 52 51 50 51 52 52 57 60 61 62 63 62 62 61 58 56 54 53 53 53
42 43 48 48 49 50 50 46 44 42 39 31 40 36 36 42 43 47 51 51 54 50 49 50 49 49 49 48 49 50 52 58 59 61 62 63 62 58 56 53 52 51 50 50
38 40 41 46 45 48 50 43 31 31 27 31 33 32 46 45 46 50 56 56 54 47 47 47 48 46 47 47 47 48 50 53 60 60 61 63 60 58 56 53 50 48 47 46
33 30 39 45 46 40 44 43 30 23 24 32 32 32 41 48 48 49 49 49 48 45 46 46 47 46 46 47 46 47 48 50 56 60 60 59 59 57 54 52 50 48 46 44
33 34 40 42 46 49 42 40 42 32 19 25 31 36 44 45 47 45 46 45 46 46 46 47 44 45 45 45 45 45 46 49 51 54 54 53 52 51 49 47 46 45 41 41
38 31 38 43 48 45 41 47 35 35 22 22 28 29 38 40 48 49 46 46 46 45 43 43 43 43 43 43 43 43 43 47 48 50 51 50 49 48 46 45 41 42 39 38
40 36 33 41 39 38 37 36 38 40 34 26 23 33 40 49 51 53 52 51 48 44 44 44 42 41 41 41 41 41 41 44 46 45 46 46 45 45 44 41 39 38 37 36
42 35 28 33 38 43 43 41 42 34 30 28 29 36 43 45 46 47 48 47 44 43 42 42 41 39 39 40 39 40 39 40 44 45 45 44 43 43 42 38 36 36 35 35
43 34 24 30 36 36 36 39 40 41 35 32 30 37 45 42 45 47 45 43 42 41 41 41 40 40 40 38 38 38 38 39 41 43 43 42 41 41 38 35 35 34 34 33
50 38 34 29 33 36 32 37 40 40 32 33 35 40 45 49 51 48 45 43 41 41 41 40 40 39 37 37 37 37 37 38 40 41 41 39 39 38 35 34 34 33 33 32
45 36 35 34 36 41 38 39 40 39 42 36 41 39 44 48 52 50 47 42 41 40 40 39 39 37 37 37 37 37 37 37 37 38 38 36 34 34 33 32 32 32 31 32
40 28 34 28 35 36 35 40 42 44 44 42 44 44 52 49 47 47 47 43 42 42 43 42 41 40 39 39 38 39 37 37 37 36 34 34 33 33 32 32 31 31 31 30
39 31 26 24 27 31 27 37 38 41 44 45 40 49 48 48 47 49 47 44 45 45 45 44 42 42 42 41 41 39 38 36 35 34 33 33 33 32 32 31 30 30 29 29
41 31 27 22 25 23 36 37 43 43 46 48 48 45 47 51 49 49 49 47 46 47 45 45 45 45 45 43 42 42 39 36 35 34 33 32 32 31 30 29 29 28 27 27
39 39 29 25 17 31 40 37 38 37 41 46 45 48 46 44 43 48 50 50 51 49 49 49 49 47 46 43 43 40 36 36 35 34 33 32 32 30 29 28 26 26 25 24
37 41 38 24 26 19 33 43 43 45 36 47 45 44 46 44 40 50 52 49 49 50 49 48 46 47 45 43 42 38 36 35 34 35 34 33 32 29 28 27 25 23 23 24
26 29 33 31 27 26 36 37 41 33 37 35 42 46 40 45 49 45 46 47 45 44 44 44 44 45 45 43 39 37 37 36 38 36 32 29 28 27 27 24 22 22 22 22
30 28 26 24 28 27 35 36 39 42 37 37 39 39 40 41 41 40 39 42 42 40 39 41 42 43 43 40 38 38 36 38 35 31 30 27 25 26 25 23 21 21 21 20
29 33 29 36 34 39 34 35 37 38 39 36 36 37 38 36 36 37 37 36 36 35 36 37 36 35 36 36 38 38 37 33 31 30 28 25 24 24 23 22 20 20 20 20
28 32 30 33 32 34 34 34 35 36 36 36 35 36 37 37 36 35 35 35 34 30 29 28 31 30 29 31 34 35 30 31 31 29 26 23 23 22 22 23 22 21 20 21
29 33 27 27 31 32 33 34 36 36 36 36 36 35 34 34 35 34 33 30 30 28 26 26 27 27 27 27 27 28 30 31 30 27 24 23 23 22 21 22 22 22 22 24
32 30 30 26 33 34 34 36 36 36 36 35 35 34 33 33 34 32 28 27 26 26 24 25 24 24 23 24 24 25 28 31 27 24 23 23 23 22 22 20 19 26 25 26

GFSCGP_sfc_temp_105.txt.gz
Temp
49 44 42 45 49 50 49 46 45 47 52 48 47 49 57 53 50 50 51 52 53 54 60 59 60 61 62 63 64 65 64 64 63 63 62 63 63 64 64 65 65 66 65 64
43 40 48 50 50 49 48 45 44 47 49 49 47 48 54 51 51 52 53 51 53 53 55 57 58 59 60 63 63 64 64 64 64 66 65 66 66 65 66 65 65 65 65 65
40 44 49 49 45 45 43 45 44 45 45 47 45 46 49 50 49 50 51 53 52 55 56 55 55 57 60 60 61 63 65 65 66 66 64 63 63 63 63 64 64 62 64 64
45 50 46 44 44 47 40 47 47 46 44 36 45 35 45 48 50 48 51 49 54 54 53 56 56 55 57 60 62 63 64 65 65 65 65 65 64 62 63 63 59 57 59 59
41 43 44 42 43 49 43 48 45 44 41 37 37 38 43 44 44 49 50 51 53 55 56 56 56 57 57 55 57 60 62 63 64 64 66 64 64 65 60 57 55 54 54 55
42 45 48 45 46 50 47 44 41 40 40 30 37 39 36 48 48 50 52 54 56 55 53 53 52 52 53 52 53 53 57 61 63 63 65 64 63 60 57 55 53 52 52 51
39 41 44 46 42 45 45 37 29 28 26 26 33 35 46 47 49 54 56 57 57 56 51 51 51 50 53 51 51 51 52 57 61 62 63 63 63 61 59 56 53 50 49 48
34 31 40 45 44 39 41 40 31 23 24 27 31 33 40 48 54 51 52 53 51 51 49 50 53 52 51 50 50 50 51 53 58 60 61 63 62 61 59 56 53 51 50 47
35 35 40 44 47 48 40 34 42 34 18 24 31 36 46 45 48 48 49 49 51 51 49 52 50 49 50 49 49 49 49 50 53 59 60 61 60 58 55 53 52 49 47 45
37 31 38 41 47 43 42 47 35 32 24 20 29 30 38 42 48 51 50 49 53 50 48 47 46 46 46 47 47 47 47 49 50 55 55 55 55 54 52 50 47 45 44 43
39 36 31 39 39 37 38 37 35 37 32 25 21 32 40 47 50 50 53 51 50 49 48 45 44 44 45 45 44 44 44 46 47 49 50 49 47 48 48 47 45 44 43 42
41 34 27 33 37 43 40 38 39 34 28 31 28 31 45 45 47 48 50 50 49 46 47 44 44 44 42 42 41 42 42 43 46 46 47 46 46 45 44 43 42 42 41 40
41 33 23 32 36 36 37 38 41 39 34 31 29 36 45 43 44 47 48 49 47 45 43 42 42 42 42 42 41 40 41 41 44 45 45 44 43 43 43 42 40 40 39 38
48 36 33 29 32 37 33 37 40 40 31 32 35 41 43 46 46 47 49 48 47 44 43 42 41 41 41 40 40 39 39 40 42 43 43 42 42 42 41 40 39 38 37 36
43 30 33 33 35 37 36 36 36 36 38 33 39 39 45 49 51 54 49 46 43 43 42 42 41 40 39 40 40 39 39 39 41 42 41 40 38 39 38 37 37 35 35 35
39 28 33 27 33 36 34 38 39 40 41 39 40 39 46 46 48 48 52 48 48 46 44 43 42 41 40 40 40 39 38 37 40 40 39 38 37 36 36 35 34 34 33 33
38 31 26 19 27 30 25 35 36 39 42 42 36 45 46 45 48 52 54 48 50 50 47 44 43 43 44 43 42 39 38 37 37 37 36 36 36 35 34 34 33 33 32 32
39 30 25 19 23 20 37 37 43 41 43 45 46 47 45 50 51 48 50 50 49 49 46 46 46 45 46 44 41 41 38 37 35 35 34 35 35 34 32 32 32 31 31 30
37 34 23 23 14 30 37 35 36 36 39 45 43 48 48 44 42 48 48 50 53 50 50 50 48 47 45 43 42 39 36 36 35 35 34 34 34 32 31 30 30 30 29 28
36 41 32 13 19 20 32 40 42 44 36 46 45 44 43 42 39 50 47 49 49 47 47 46 45 44 43 42 41 38 36 35 35 35 35 35 34 32 31 31 28 28 29 28
22 25 32 17 24 25 35 36 41 30 35 35 41 43 40 41 45 43 44 45 42 42 42 42 42 43 44 41 39 37 37 35 38 36 34 33 32 31 31 29 27 26 26 26
27 26 21 17 15 26 35 36 40 41 37 37 38 38 39 40 39 37 38 38 38 37 37 39 40 40 40 38 38 37 36 37 34 33 32 31 31 30 28 27 25 25 25 24
28 32 29 34 32 38 34 35 36 38 39 37 35 35 36 37 36 36 37 36 35 34 33 33 33 35 36 34 37 36 35 33 32 32 31 30 28 28 27 26 24 24 24 24
28 33 31 33 31 33 34 35 35 36 37 36 36 35 36 36 35 34 34 33 33 30 29 28 29 29 29 29 30 31 32 32 32 32 30 28 28 26 26 26 25 25 24 24
30 33 27 26 31 32 33 34 36 37 37 36 35 34 34 35 34 34 31 29 29 27 27 26 27 26 27 26 26 27 30 32 32 31 27 27 27 26 24 25 25 26 27 28
32 30 31 28 34 35 34 34 36 36 34 34 35 32 31 32 32 31 27 26 26 26 24 26 25 25 23 24 23 25 28 31 30 26 25 27 25 25 25 24 23 30 28 31

GFSCGP_sfc_temp_108.txt.gz
Temp
52 46 44 50 54 57 53 53 53 57 58 58 59 60 65 70 62 64 66 68 68 68 72 73 72 73 74 74 73 73 73 73 71 70 68 69 68 69 69 68 69 69 68 67
45 43 54 57 58 52 54 51 53 57 58 57 59 57 64 67 64 66 68 68 68 69 69 69 70 72 71 73 73 73 73 73 72 72 71 72 72 71 71 69 68 69 69 68
46 52 53 53 49 48 47 47 52 52 54 56 56 55 60 65 63 65 65 69 69 68 68 68 68 70 71 71 72 72 73 73 73 73 73 72 71 68 67 66 68 67 70 67
50 54 51 49 50 51 41 51 51 51 48 43 55 41 58 64 64 61 64 65 66 67 69 70 69 68 70 71 73 72 73 73 73 73 71 69 68 67 69 70 69 65 65 66
45 46 47 48 47 52 46 52 49 46 47 40 46 41 54 59 58 63 64 66 66 68 68 68 66 67 71 70 71 71 72 72 72 73 72 71 69 71 73 66 62 60 59 60
47 51 53 51 51 53 52 43 42 39 37 32 43 42 50 58 59 65 67 67 68 68 67 68 69 68 67 67 67 69 70 71 72 71 71 71 69 69 67 64 63 58 56 55
42 45 49 54 45 50 46 43 31 30 30 37 44 43 51 63 63 66 68 69 69 69 67 66 65 64 65 64 62 65 68 68 71 70 70 70 70 70 67 66 65 59 56 52
35 32 43 51 50 42 41 43 36 29 31 40 39 40 51 61 61 66 65 68 67 68 67 65 64 65 66 63 64 64 64 66 69 69 68 69 70 70 69 68 65 61 56 53
39 37 47 47 52 50 41 37 48 37 29 35 45 50 57 58 62 61 62 63 65 67 64 62 63 64 64 63 63 63 62 64 66 67 66 65 65 66 66 66 63 59 55 50
48 35 44 46 51 48 48 50 37 38 29 31 44 43 48 55 58 63 63 64 67 66 63 62 60 60 59 61 62 62 61 62 64 65 64 62 62 63 62 62 58 54 52 48
51 44 35 43 42 44 44 43 42 44 40 35 35 46 59 60 62 61 62 63 63 63 64 64 62 59 57 57 59 59 57 59 60 60 64 61 57 57 56 54 52 51 51 47
49 42 33 37 46 48 51 47 44 39 32 40 36 42 56 59 59 58 60 60 61 60 60 59 57 56 55 54 56 55 55 55 57 58 61 58 55 50 50 49 48 47 46 47
47 40 30 32 40 43 44 46 48 48 40 34 35 44 62 59 57 58 59 61 62 59 59 57 55 54 54 55 51 52 54 54 53 53 55 52 51 50 50 46 44 45 43 44
50 42 41 36 41 41 36 42 45 44 35 40 41 48 56 56 57 59 59 61 61 61 59 57 55 54 53 52 53 51 51 51 50 51 51 50 49 49 46 47 42 42 42 43
51 37 42 44 45 45 43 41 42 41 44 40 46 45 52 58 59 61 64 61 57 57 58 57 54 53 52 51 49 51 51 49 49 49 48 47 46 46 43 40 41 39 41 41
46 36 42 33 40 43 39 43 44 43 45 46 47 46 57 60 60 59 60 60 58 58 59 59 55 52 49 50 50 49 49 47 47 47 45 45 41 39 39 38 36 37 37 38
43 36 34 32 35 37 33 39 43 45 48 47 41 49 56 55 56 58 60 61 61 62 62 58 57 55 52 51 50 48 48 46 44 43 41 40 39 38 37 36 36 35 36 37
42 35 34 29 30 28 43 52 50 46 49 51 51 52 54 55 58 59 61 60 61 61 60 60 56 56 55 52 50 49 46 42 40 39 38 38 38 38 35 34 34 34 35 36
49 41 30 31 31 40 43 42 44 42 44 51 50 53 55 56 52 55 61 61 61 61 59 58 58 55 55 52 50 46 40 40 39 38 38 37 38 36 35 34 34 34 33 34
43 49 41 27 31 28 45 47 49 51 38 53 52 52 52 52 44 53 53 53 52 52 51 51 53 52 51 50 48 41 40 39 39 39 38 38 37 35 35 35 34 33 34 33
33 34 33 33 33 35 43 44 51 36 41 40 48 50 48 48 54 50 49 49 47 46 45 48 50 51 51 47 43 40 40 38 41 38 37 36 36 35 36 35 34 33 32 31
35 33 32 33 32 29 44 44 45 49 44 46 46 45 47 48 47 44 44 43 42 42 41 41 44 46 48 42 40 39 39 40 37 36 35 34 34 34 34 33 32 31 31 30
35 42 36 39 39 45 45 47 45 45 45 44 46 44 45 45 44 43 42 41 40 38 38 37 36 37 39 36 37 36 37 36 34 34 33 33 33 33 33 32 30 30 30 30
36 40 39 39 40 42 44 43 45 45 45 44 44 44 44 42 42 41 39 37 37 34 32 32 34 34 34 33 34 35 34 34 34 33 33 33 32 32 32 33 32 32 30 30
40 39 34 35 37 40 40 43 44 42 43 42 41 41 41 41 39 39 34 33 33 32 31 31 31 32 31 32 33 33 33 33 33 33 32 32 32 31 31 32 32 32 32 33
36 39 41 41 43 45 42 42 42 40 40 40 39 36 34 37 35 33 31 30 30 30 29 30 29 29 29 30 30 30 31 33 33 31 30 31 32 30 30 30 29 33 34 34

GFSCGP_sfc_temp_111.txt.gz
Temp
56 48 47 55 56 60 57 51 55 61 65 59 60 61 66 72 71 69 72 75 75 74 77 75 74 77 77 78 77 77 75 75 74 72 71 71 71 73 74 75 75 74 73 71
49 45 58 61 60 57 55 54 54 60 60 58 61 61 66 69 71 72 72 72 74 75 75 76 75 75 75 76 76 76 76 76 75 75 73 73 73 73 73 72 72 72 70 70
50 54 59 57 55 52 52 52 55 54 57 59 57 55 60 67 70 72 73 74 75 74 75 75 74 74 75 74 75 76 76 76 76 76 74 73 73 72 70 70 70 70 72 71
52 60 55 54 52 55 45 53 54 52 50 46 58 45 60 67 68 68 70 71 73 74 74 76 74 72 72 73 76 76 76 76 76 76 74 70 69 66 70 71 71 71 72 71
49 49 51 49 53 57 48 56 52 49 46 45 51 46 55 63 62 67 71 71 72 75 74 73 74 72 73 73 73 75 75 75 75 75 74 72 69 71 73 73 72 70 69 68
48 53 55 56 58 56 54 46 45 45 43 35 48 48 51 58 63 67 71 74 74 75 75 75 75 74 72 72 72 73 72 73 75 74 74 72 70 70 71 70 68 65 64 61
45 47 51 54 46 50 48 47 34 32 32 34 49 45 52 62 67 69 69 73 76 76 75 75 73 72 71 70 71 70 71 71 74 74 71 72 72 72 71 69 67 65 62 59
37 32 45 54 48 42 43 44 37 32 34 42 43 41 52 65 67 65 71 72 73 74 76 75 74 72 71 70 70 70 69 70 71 72 72 72 72 72 71 70 68 67 64 62
40 39 49 50 53 51 42 37 50 40 33 37 47 52 61 63 65 67 68 69 70 71 72 73 73 73 71 70 68 68 68 69 71 72 72 71 72 72 70 68 69 68 65 59
51 36 45 46 53 51 50 52 39 40 32 32 45 49 52 57 63 68 67 68 70 72 70 69 69 69 70 70 69 68 69 68 68 70 71 70 70 69 70 67 65 65 60 54
56 45 36 44 44 43 45 43 48 49 45 37 37 48 63 64 65 65 66 65 67 68 68 68 68 68 67 66 65 66 66 66 66 67 68 67 65 65 65 62 60 60 55 52
54 45 32 38 48 52 52 47 48 42 35 42 42 44 63 65 65 64 63 64 66 66 66 65 65 64 63 62 62 62 64 63 63 65 65 64 61 56 58 55 53 51 50 50
51 42 30 31 41 48 46 51 51 51 42 37 37 46 67 65 61 62 64 65 66 65 66 66 66 65 64 63 62 60 60 60 60 61 61 62 58 52 52 50 49 47 46 46
51 46 42 36 42 46 40 46 49 48 39 42 43 51 60 60 60 63 63 64 66 66 65 66 63 65 64 62 61 59 59 59 57 57 57 56 55 54 53 51 47 45 47 44
53 38 47 49 50 48 46 44 47 44 47 43 48 50 55 61 63 65 67 66 65 64 65 64 63 63 64 61 58 58 58 56 55 54 53 54 52 52 50 47 44 43 44 44
52 38 44 34 47 48 42 47 47 46 49 49 50 50 61 63 64 62 63 63 63 64 65 64 63 63 59 59 57 56 55 54 53 52 51 52 47 43 41 39 38 39 38 39
46 37 35 31 39 39 33 41 46 48 50 50 45 53 59 58 59 61 62 63 63 64 65 65 64 64 59 58 57 55 54 53 49 46 43 41 41 39 39 38 37 36 37 36
45 35 34 28 33 27 45 53 54 49 51 53 53 56 58 59 61 62 64 62 61 63 63 64 63 63 63 59 57 56 53 48 43 42 40 38 38 37 35 35 35 35 35 36
52 44 31 30 32 42 43 47 49 46 47 56 53 56 59 60 59 59 63 64 62 60 57 56 57 58 60 58 56 51 44 42 41 40 39 38 38 36 35 34 33 34 34 34
50 53 41 31 31 29 48 51 57 55 38 57 57 56 56 58 48 55 55 53 52 53 51 49 51 54 54 54 52 43 41 40 40 40 39 38 37 35 34 35 34 35 34 34
33 35 34 33 33 36 46 49 55 36 43 46 56 58 56 53 57 52 52 50 48 46 45 46 50 51 50 48 42 40 40 39 41 38 37 35 35 34 35 35 34 34 33 32
37 34 33 33 33 30 48 47 46 53 47 47 52 52 53 54 50 48 48 45 45 43 43 43 45 45 45 40 40 39 39 40 36 35 34 34 34 34 34 34 33 33 32 31
36 43 37 40 41 47 50 50 52 52 48 49 50 49 51 48 48 48 46 44 41 39 39 37 36 37 37 35 36 36 36 35 33 33 32 33 33 33 33 33 32 31 32 32
40 46 42 42 44 46 47 46 49 50 49 48 49 48 48 46 46 44 42 40 39 35 33 33 34 33 32 33 33 33 34 33 33 32 32 32 32 32 32 33 33 33 32 32
43 43 37 38 39 44 46 47 47 45 47 45 46 46 46 45 44 42 35 34 34 33 32 32 31 31 30 32 31 31 32 32 32 32 31 32 32 32 31 32 32 32 33 34
43 44 42 42 45 49 49 46 45 42 43 41 39 37 37 39 37 35 32 32 32 30 30 30 28 28 28 29 28 27 28 30 31 31 31 32 32 31 31 31 31 35 36 36

GFSCGP_sfc_temp_114.txt.gz
Temp
55 47 44 49 52 56 53 50 49 56 60 55 53 55 60 63 60 60 61 63 65 66 68 68 68 69 69 70 70 69 67 68 68 65 62 62 62 63 64 65 67 69 66 65
47 44 53 57 57 53 53 51 50 53 58 53 53 54 59 62 63 63 62 62 64 65 67 68 66 67 68 69 70 70 69 68 68 68 66 63 63 63 64 65 65 66 65 64
45 50 57 56 54 50 51 50 49 50 54 55 49 47 53 59 62 64 64 65 65 65 65 65 66 66 68 69 70 70 70 69 69 69 67 65 64 63 63 63 63 64 65 64
50 56 53 54 51 53 46 52 51 50 48 43 48 35 49 56 59 62 63 61 62 64 65 67 67 67 68 69 70 71 71 70 70 70 68 66 65 63 65 65 64 64 64 64
46 50 51 49 51 56 48 53 49 49 44 42 44 38 44 54 53 58 63 63 63 64 64 66 67 69 70 69 69 70 70 70 71 70 69 67 65 66 66 64 63 64 64 64
48 52 54 53 56 56 52 47 45 41 42 34 42 41 41 49 55 57 62 64 65 65 64 65 65 66 67 67 67 68 68 69 70 70 69 68 66 65 64 64 64 63 61 60
44 46 50 53 49 50 49 45 32 32 32 32 43 39 45 55 58 57 59 61 63 65 64 63 63 61 64 64 65 66 67 68 69 69 69 68 67 66 64 65 65 61 59 57
38 33 44 52 49 43 46 45 33 27 27 31 35 33 45 58 59 59 60 61 60 59 62 62 63 61 61 62 63 64 65 66 68 68 68 68 68 67 67 67 66 63 60 59
39 38 47 50 51 50 41 39 46 35 25 28 36 43 52 56 57 56 58 58 58 59 61 56 59 61 60 60 60 61 61 63 64 67 68 67 67 67 67 66 65 65 62 58
47 33 44 44 51 49 46 49 37 36 24 24 34 36 42 48 53 57 57 57 57 57 57 58 58 58 58 58 58 59 59 60 61 62 65 66 66 66 67 65 64 64 61 54
51 40 35 43 42 40 42 41 44 43 38 29 27 36 48 53 56 57 55 56 56 57 56 56 56 56 57 56 55 55 55 56 57 59 62 61 62 62 61 64 62 61 54 52
47 41 31 35 46 51 49 44 46 38 33 36 33 34 54 55 55 56 54 56 55 56 54 55 55 54 53 53 52 52 53 54 55 56 57 57 58 57 58 59 56 53 51 50
47 38 29 31 37 43 43 47 49 45 37 31 29 36 55 52 53 54 54 55 56 55 54 55 54 53 53 52 51 50 51 51 52 53 53 54 54 55 55 53 50 49 48 48
50 42 37 33 39 41 38 43 46 44 32 34 38 42 46 50 52 52 53 55 55 55 57 55 54 53 53 53 52 50 50 50 50 50 50 50 49 50 50 49 47 46 45 45
48 34 41 43 46 45 42 43 45 43 46 40 45 44 50 52 51 54 56 56 54 55 56 55 54 52 52 52 50 50 49 49 49 48 47 47 47 47 46 44 44 42 42 43
47 34 38 30 41 44 39 44 45 45 46 46 44 44 54 53 53 54 54 55 54 54 56 55 54 53 54 52 50 49 48 47 47 46 45 46 44 41 38 37 37 38 37 39
44 36 33 25 32 35 28 40 44 45 48 48 40 48 51 50 53 52 53 54 54 55 54 55 54 54 53 51 51 47 46 46 44 41 40 39 37 37 36 35 36 35 35 36
42 34 33 27 31 23 37 49 49 46 48 50 50 49 51 52 53 53 52 50 53 54 52 51 49 49 50 50 49 48 46 43 39 38 37 36 35 34 33 33 33 34 34 35
47 37 29 27 27 34 39 41 44 41 42 51 49 52 51 52 46 48 52 49 48 47 46 46 45 47 47 47 47 43 39 38 37 36 36 35 35 32 32 33 33 33 33 33
43 44 35 30 22 23 37 45 51 48 32 50 51 51 51 50 43 44 46 46 45 44 42 41 42 46 45 44 42 38 37 36 36 36 36 35 34 32 31 31 33 32 33 33
32 33 30 28 23 30 41 43 51 30 35 44 52 52 48 46 48 45 44 42 41 40 39 39 42 41 40 38 37 36 36 36 36 35 33 31 30 29 30 29 29 30 32 31
32 31 31 25 20 25 42 43 41 44 39 42 46 48 48 44 42 41 41 39 38 36 36 36 37 36 35 33 35 34 33 34 31 30 29 28 26 29 29 29 27 31 32 32
31 39 35 37 32 41 47 44 46 44 43 42 43 43 44 42 40 40 38 37 34 33 32 32 31 30 30 30 31 31 30 30 28 27 25 25 26 28 28 28 25 29 32 31
35 40 33 36 37 38 42 39 43 43 43 43 42 42 43 41 39 37 36 34 31 29 28 27 27 26 26 27 28 26 27 27 26 24 24 25 24 25 25 27 27 26 26 27
34 38 32 31 32 36 36 40 41 40 41 40 40 40 40 39 36 34 31 29 29 28 27 26 25 25 24 24 24 23 25 26 27 25 23 24 24 23 23 24 24 25 25 27
37 36 37 31 38 41 44 39 40 37 37 35 36 34 34 35 32 31 28 28 27 25 24 24 22 22 20 19 19 20 22 23 23 25 24 23 23 22 22 22 22 33 35 36

GFSCGP_sfc_temp_117.txt.gz
Temp
52 48 43 45 49 50 48 46 46 50 56 52 53 50 55 59 57 56 57 58 59 60 64 65 66 67 64 67 65 65 64 65 64 62 60 61 61 61 60 61 63 64 64 63
47 43 50 51 50 48 49 45 47 53 56 54 50 50 54 57 58 58 59 59 58 60 60 64 64 65 64 66 67 65 65 64 65 66 64 61 59 61 64 62 64 64 64 63
44 49 52 51 48 46 46 46 49 50 53 54 45 44 49 56 57 60 61 61 61 60 61 63 63 64 65 64 66 66 65 65 65 66 64 60 60 60 60 61 63 64 65 63
48 51 51 48 47 49 42 51 51 49 47 39 46 33 44 51 53 57 59 57 60 60 61 64 64 64 65 65 66 68 67 66 66 66 64 64 63 62 65 65 64 63 64 63
44 46 46 45 48 53 45 51 49 47 41 38 39 36 41 48 49 53 59 58 59 61 61 60 63 64 65 67 66 67 67 67 67 66 66 64 63 64 65 64 62 63 62 62
47 52 51 51 52 53 50 47 45 44 42 35 39 39 37 45 53 55 57 61 63 61 60 62 64 65 64 66 66 63 65 66 67 66 66 64 63 63 61 61 61 62 62 62
43 45 50 54 46 49 49 46 33 32 32 31 40 37 45 49 54 55 57 59 59 58 59 62 59 58 60 60 63 64 64 65 66 66 66 66 65 64 62 62 62 61 61 59
35 33 45 50 51 43 46 45 31 24 28 28 34 32 42 55 60 57 59 60 57 59 58 57 60 59 60 61 62 62 62 64 63 65 66 66 66 65 65 64 64 63 62 62
37 36 45 47 49 50 42 42 44 32 22 26 32 39 49 52 54 55 56 55 56 57 57 54 56 56 56 56 59 61 62 64 63 65 66 65 66 65 64 64 64 63 62 61
45 34 43 43 50 48 46 49 38 33 23 22 30 32 39 45 50 53 55 55 53 53 54 55 55 55 55 55 56 58 60 62 63 64 65 64 65 65 66 63 63 63 62 59
49 40 35 42 42 43 42 42 40 41 34 28 25 32 45 50 54 52 52 54 53 52 52 53 53 53 54 53 52 53 54 56 57 58 62 62 63 63 63 64 63 63 62 58
47 41 32 38 42 48 48 45 47 38 33 34 32 34 50 50 52 51 50 52 51 52 52 53 53 52 51 51 50 50 50 50 51 53 55 56 57 57 60 62 63 60 58 56
45 37 30 30 38 42 43 45 48 42 36 34 29 33 49 46 49 49 49 51 53 54 53 52 50 50 50 50 49 49 49 49 50 51 51 51 52 53 54 56 54 52 51 50
48 40 39 34 38 41 39 44 46 41 32 33 39 38 42 47 49 49 50 51 51 53 54 53 51 51 51 50 49 48 48 48 48 49 49 48 49 50 51 51 51 49 48 47
47 35 40 41 42 45 42 42 43 42 44 39 45 43 47 49 48 50 52 52 52 53 53 53 53 51 50 49 49 48 47 47 47 47 47 46 45 46 45 45 44 44 44 44
46 37 38 30 40 42 39 44 44 45 47 47 43 43 51 50 50 49 51 52 52 53 54 53 52 50 51 50 49 47 46 45 45 45 44 44 43 41 40 39 38 40 40 40
44 35 32 24 33 35 28 39 43 45 49 48 42 49 49 49 49 50 52 51 53 53 53 51 49 48 48 47 48 46 45 44 43 41 39 39 38 38 37 36 35 35 36 37
43 36 33 29 35 25 38 48 49 47 49 51 50 47 49 50 51 51 52 51 52 52 51 48 45 44 45 45 45 45 43 41 38 37 37 36 36 35 34 33 33 34 35 35
49 37 29 28 29 31 37 40 43 42 44 52 50 50 47 49 48 45 49 49 49 46 44 43 42 44 42 42 41 39 37 36 36 36 35 35 35 30 32 29 30 34 33 33
42 44 35 27 26 23 36 44 51 49 37 52 52 51 50 47 43 46 44 43 41 40 40 39 41 40 39 38 38 36 35 35 35 35 35 35 33 29 28 29 31 32 32 32
32 33 32 31 22 27 37 41 52 33 39 47 52 53 51 47 51 45 41 39 38 37 37 38 37 35 35 35 35 33 33 32 33 32 31 29 28 27 28 27 26 26 30 31
32 31 30 23 16 26 40 44 42 46 40 42 44 51 47 44 40 40 38 36 35 34 34 34 33 31 31 31 33 31 30 31 28 28 28 26 23 27 26 23 22 24 32 32
31 38 34 38 35 41 39 45 48 43 42 43 43 43 43 40 37 38 35 33 32 31 31 31 29 28 28 27 29 28 27 28 27 26 24 22 23 25 24 21 20 22 23 25
34 39 34 36 37 36 41 38 42 43 41 41 40 41 44 39 39 35 32 30 29 28 27 27 26 24 23 23 24 23 25 26 25 24 23 22 21 21 22 24 23 21 21 21
35 37 31 31 33 35 36 40 43 40 40 40 39 39 38 39 35 34 30 28 28 26 25 25 24 22 20 20 19 18 21 21 24 23 22 22 21 19 20 22 21 23 21 23
34 38 38 34 38 40 45 42 39 38 38 37 36 35 33 36 33 31 29 28 26 24 23 22 21 19 16 15 14 14 15 17 20 23 22 21 20 19 20 19 20 31 34 36

GFSCGP_sfc_temp_120.txt.gz
Temp
50 45 43 50 52 46 44 42 43 46 53 50 48 51 53 58 54 55 54 54 56 57 62 62 63 64 63 64 64 64 64 65 63 61 59 59 60 57 58 59 61 62 62 61
46 42 49 51 49 46 43 43 41 47 52 52 48 48 52 55 56 57 58 56 55 58 57 60 61 63 63 64 64 64 64 65 64 65 61 60 59 58 63 61 61 63 62 62
43 46 51 50 47 43 43 41 42 44 47 52 47 45 46 54 55 58 59 62 59 59 58 60 60 61 64 63 63 64 64 65 66 66 61 59 58 57 57 58 61 61 62 63
45 53 49 47 46 47 39 46 47 45 44 39 48 38 41 48 54 56 59 58 61 59 59 63 61 61 63 63 65 65 64 64 64 66 64 62 62 61 62 63 62 61 61 62
43 46 45 44 46 50 43 50 46 43 40 40 38 38 40 45 46 52 54 58 59 62 60 60 61 64 64 66 64 64 64 64 64 64 65 63 62 63 60 59 59 60 60 62
48 50 51 48 52 52 48 45 43 40 42 35 40 39 41 44 49 52 55 57 60 61 58 61 63 64 64 65 63 63 62 63 64 63 64 63 62 62 58 58 59 60 61 61
44 45 48 52 45 47 47 44 31 32 32 31 38 35 46 46 51 53 55 56 57 57 59 58 57 57 60 59 61 61 63 62 63 63 63 63 63 62 60 61 61 60 60 60
37 33 45 49 47 43 45 45 31 25 26 31 34 32 40 52 60 55 56 56 56 56 55 56 57 57 59 60 62 62 62 63 63 63 63 64 64 63 63 63 63 62 62 62
37 38 48 47 47 50 43 41 44 32 20 26 31 37 46 50 50 51 53 53 54 55 56 54 55 55 55 55 59 61 61 63 62 63 64 63 64 63 63 63 62 63 63 62
43 36 43 45 48 46 48 51 37 32 22 21 29 30 38 43 50 50 50 52 53 53 52 53 53 52 52 53 54 56 59 61 62 62 63 63 62 63 64 63 62 62 63 60
46 41 36 42 44 43 41 43 41 42 34 28 23 31 43 50 55 51 51 53 53 52 51 52 51 50 50 50 51 53 54 55 56 57 60 61 61 61 62 62 61 62 61 59
46 41 33 38 42 47 48 46 46 39 31 31 31 32 46 48 48 51 50 52 51 51 51 51 50 50 49 50 49 50 50 50 52 54 55 55 56 55 57 60 62 61 61 58
47 37 32 33 38 42 44 45 48 44 36 35 28 35 47 45 46 49 50 49 50 50 50 50 50 50 50 49 49 48 48 48 48 48 49 50 51 52 54 56 57 57 56 55
47 39 39 35 38 42 39 43 46 45 37 38 38 38 42 45 45 47 48 49 49 50 51 50 49 50 50 49 48 48 47 46 47 47 47 47 47 48 49 50 50 50 50 50
44 32 41 41 43 44 44 43 44 42 44 38 45 41 46 47 47 49 51 49 49 50 51 51 51 50 49 49 48 47 46 46 45 45 45 45 44 45 45 44 44 43 43 44
45 32 37 34 41 44 39 44 45 45 46 45 46 44 54 53 47 46 49 48 48 49 51 50 50 49 50 49 48 47 45 44 44 44 43 43 42 41 40 39 39 39 38 38
43 37 32 31 34 37 33 40 43 45 48 47 42 50 48 47 50 51 49 49 50 50 50 50 49 48 47 46 46 45 44 42 41 40 38 38 38 38 37 36 36 36 36 37
42 37 38 32 34 26 37 48 50 46 48 51 52 52 53 51 54 50 50 50 49 50 49 47 44 43 43 43 42 41 40 38 37 36 36 36 36 35 34 34 34 34 34 36
43 38 31 28 30 31 37 38 43 42 43 52 51 50 50 49 46 47 48 50 50 48 45 43 42 41 39 39 38 36 35 35 35 35 35 35 35 30 32 28 29 35 34 33
44 43 34 27 29 27 41 41 51 50 37 53 54 54 45 46 44 48 46 44 42 41 40 38 38 38 37 36 36 34 33 33 32 33 33 33 32 27 27 28 28 32 32 32
34 33 31 32 31 31 38 41 52 35 40 53 54 55 52 49 55 47 42 39 38 37 36 35 35 33 33 34 34 32 31 30 31 31 30 28 28 26 26 25 25 29 32 32
32 31 29 30 27 30 39 46 42 49 45 40 53 55 53 56 41 42 40 37 36 34 33 32 31 29 29 32 32 30 29 29 27 28 27 25 22 26 24 22 21 21 26 31
29 41 34 36 37 40 48 47 53 44 46 42 43 50 55 53 38 38 35 34 33 32 32 31 29 28 27 26 29 29 27 26 25 25 21 19 21 23 21 20 18 20 18 20
36 39 35 37 38 38 42 40 42 41 44 41 40 41 48 43 39 34 33 31 31 29 28 27 26 24 22 21 23 23 26 25 23 23 21 20 22 21 19 23 23 19 17 17
35 38 32 32 34 36 37 41 43 41 38 37 36 36 41 40 37 35 32 30 29 27 26 25 24 22 19 19 18 17 21 21 24 22 21 20 20 17 19 20 20 22 21 23
29 28 38 34 37 41 43 44 41 39 38 36 35 34 34 39 35 33 30 29 27 25 23 22 20 19 15 14 14 12 13 18 21 21 20 18 19 17 18 18 19 32 33 36